GFSSE_con_mucape_000.txt.gz
CAPE
643 730 849 1077 1143 1067 986 1039 1112 1062 1021 985 1015 855 773 794 877 1063 1258 1363 1359 1263 1161 1290 1278 1455 1764 1863 1786 1722 1945 2177 1988 1558 1753 1732 1195 1059 1418 1793 1178 900 1180
712 695 843 1064 1214 1283 1166 1130 1165 1148 1148 1001 1118 908 889 861 753 707 900 1058 1186 963 947 1007 1224 1199 1193 1161 1259 1439 1626 1825 1712 1585 1363 1403 1106 967 1139 1211 821 812 1179
724 746 839 1055 1349 1444 1470 1412 1370 1396 1288 1066 1014 971 917 795 626 658 822 1004 822 699 546 518 544 523 685 874 1026 1221 1356 1577 1561 1484 1468 902 839 1187 935 876 907 1222 1457
759 771 827 1165 1369 1477 1485 1530 1487 1465 1308 1206 1131 1024 880 667 608 636 599 815 446 325 303 343 462 480 503 632 729 825 962 1189 1294 1385 714 846 1199 1018 404 924 1259 1166 1397
858 899 1025 1177 1324 1462 1501 1558 1599 1645 1603 1481 1154 874 747 593 549 391 316 190 113 109 89 77 86 125 264 377 491 651 751 845 950 629 486 732 628 488 608 1046 1049 1454 1585
1183 1083 1186 1349 1405 1497 1546 1472 1476 1426 1358 1152 975 830 660 517 343 203 109 42 20 11 16 8 0 0 19 70 125 168 244 383 616 310 425 736 564 902 1002 1021 1401 1276 1504
1475 1299 1500 1405 1474 1523 1564 1472 1338 1304 1227 1175 1195 892 538 375 231 127 64 15 0 0 0 0 0 0 0 0 11 41 119 132 34 28 433 692 635 716 775 1094 775 1339 1359
2217 1971 1618 1599 1572 1538 1435 1212 1087 1056 1123 1184 1116 865 512 341 234 119 38 2 0 0 0 0 0 0 0 0 0 47 38 58 1 7 444 656 582 1035 644 749 1380 1361 1184
1532 1477 1317 1230 1164 1069 961 856 876 985 972 1007 1013 847 669 436 397 153 20 0 0 0 0 0 0 0 0 0 0 0 0 9 0 47 146 583 495 1345 1093 816 1114 1505 1581
972 948 866 797 710 705 709 714 695 648 615 676 748 598 423 311 268 257 159 46 37 0 0 0 0 0 0 0 0 0 0 0 0 0 0 222 1344 1498 1303 1308 1592 1691 1709
500 464 419 347 339 420 482 526 646 617 486 439 515 493 333 216 73 46 145 35 207 88 63 84 80 25 0 0 0 0 0 0 0 0 0 118 792 657 694 793 1004 1197 1289
423 311 418 280 92 201 330 432 258 331 251 247 307 338 317 349 315 83 115 262 268 202 245 273 230 155 68 0 0 0 0 0 0 0 0 53 359 346 83 119 543 840 839
544 493 544 481 163 16 117 56 131 255 317 396 530 524 467 513 299 456 189 166 195 142 150 128 96 56 25 0 0 0 0 0 0 0 0 51 163 69 56 17 1 284 570
514 485 563 657 344 155 96 103 171 401 516 618 626 382 249 208 13 19 14 57 13 0 32 82 81 59 8 0 0 0 0 0 0 0 0 15 104 77 32 0 0 83 132
386 285 196 178 209 131 47 287 350 396 626 772 689 456 87 59 5 14 6 2 0 0 5 10 14 7 0 0 0 0 0 0 0 0 0 0 68 81 45 0 0 0 6
431 435 406 269 335 185 195 209 176 205 177 613 394 107 37 21 54 46 30 7 0 12 8 9 2 1 0 0 0 0 0 0 4 11 9 0 24 67 99 4 0 0 0
457 606 564 790 722 250 409 375 213 108 59 107 90 23 30 31 71 77 8 0 0 0 0 0 0 0 0 0 0 0 0 0 0 0 0 0 0 15 17 73 137 94 37
603 802 658 485 481 301 285 339 397 54 35 36 52 53 59 48 78 40 11 1 0 0 0 0 0 0 0 0 0 0 1 6 0 0 1 2 0 2 0 11 59 118 153
736 820 656 379 540 207 212 99 82 96 81 65 41 17 24 50 23 10 5 5 0 0 0 0 0 0 0 0 0 0 0 0 0 0 6 21 5 28 39 3 1 37 107
826 789 820 494 444 111 150 84 97 99 54 15 6 0 1 0 2 0 0 0 0 0 0 0 0 0 0 0 0 0 0 0 0 0 0 0 2 20 38 36 37 0 18
860 759 550 381 194 94 57 63 98 33 19 16 7 2 0 2 0 0 0 0 0 0 0 0 0 0 0 0 0 0 0 0 0 0 0 0 0 27 52 53 51 49 17
204 111 114 39 22 16 40 56 52 44 35 28 10 6 0 0 0 0 0 0 0 0 0 0 0 0 0 0 0 0 0 0 0 0 0 0 0 0 8 60 66 85 86
80 70 37 23 34 48 43 41 45 41 17 5 0 0 0 0 0 0 0 0 0 0 0 0 0 0 0 0 0 0 0 0 0 0 0 0 0 0 0 0 3 19 26
0 0 0 0 0 1 1 0 0 0 0 0 0 0 0 0 0 0 0 0 0 0 0 0 0 0 0 0 0 0 4 8 0 0 0 0 0 0 0 0 0 1 10
0 0 0 0 0 0 0 0 0 0 0 0 0 0 0 0 0 0 0 0 0 0 0 0 0 0 0 2 3 0 0 0 7 3 0 0 0 0 0 0 0 0 2
0 0 0 0 0 0 0 0 0 0 0 0 0 0 0 0 0 0 0 0 0 0 0 0 0 0 0 3 10 10 5 20 13 16 0 0 0 0 0 0 0 0 0

GFSSE_con_mucape_003.txt.gz
CAPE
617 710 774 1044 1097 1125 1073 944 862 848 887 748 681 638 659 649 688 814 1013 1158 1153 840 831 855 774 792 863 979 1202 1357 1523 1633 1656 1519 1373 1501 1166 932 1356 1607 828 902 1160
657 754 964 1089 1128 1197 1160 1086 1021 1018 1025 749 751 748 727 661 635 676 735 724 619 412 341 445 516 607 618 665 843 985 1208 1473 1379 1442 1304 1158 1170 1296 990 1501 1140 963 1196
669 792 952 1154 1217 1240 1301 1262 1259 1198 869 819 820 811 742 627 595 634 625 489 260 162 125 139 159 182 175 258 497 827 980 1093 1303 1377 1391 752 660 1402 1118 1410 1151 1249 1396
722 799 1023 1248 1368 1390 1348 1377 1363 1185 996 940 909 888 705 596 547 466 415 389 182 138 67 48 39 46 75 159 329 543 611 704 845 1067 443 447 605 1504 869 492 1167 964 1259
732 861 1221 1276 1404 1498 1502 1505 1420 1430 1377 1188 1044 819 642 553 400 250 166 97 53 24 14 7 0 1 2 16 34 61 118 237 497 255 235 338 501 657 939 705 1062 1223 1471
910 1074 1142 1278 1430 1550 1589 1551 1488 1449 1199 1026 993 693 600 446 272 118 67 15 0 0 0 0 0 0 0 0 0 0 1 10 171 15 176 453 843 719 1315 1489 1470 1328 1366
1009 1153 1222 1307 1366 1440 1496 1474 1390 1200 955 998 945 702 541 394 243 100 23 0 0 0 0 0 0 0 0 0 0 0 6 29 0 0 0 358 485 899 1248 1124 1188 1138 1156
1209 1451 1327 1323 1251 1302 1349 1183 1088 1042 1071 1108 996 694 498 365 248 125 18 0 0 0 0 0 0 0 0 0 0 0 0 1 0 0 6 412 570 1157 1480 862 1263 1424 1366
2159 2079 1377 1465 1360 1285 1063 896 823 821 913 960 906 797 638 474 348 152 19 0 0 0 0 0 0 0 0 0 0 0 0 8 0 0 0 6 699 1244 1262 1266 1260 1319 1261
1738 1735 1583 1335 1308 1045 818 694 656 690 688 782 790 612 393 263 286 227 138 73 74 15 25 44 23 1 0 0 0 0 0 0 0 0 0 0 676 1014 667 906 1155 1393 1520
1188 1038 948 842 741 616 530 521 633 641 548 567 566 471 290 136 67 98 192 167 231 173 133 186 171 146 69 33 5 0 0 0 0 0 0 0 576 764 536 443 746 953 1025
642 628 497 428 405 347 379 403 254 260 205 209 235 220 243 282 259 210 126 283 427 375 395 403 400 310 269 45 0 0 0 0 0 0 0 0 176 272 405 128 329 119 498
186 239 193 165 142 160 194 169 62 136 128 148 300 349 357 387 376 325 367 139 177 261 218 175 166 138 91 47 37 3 0 0 0 0 0 0 58 240 162 46 55 0 74
225 313 288 66 9 2 56 21 36 83 269 326 477 588 419 291 116 40 22 1 0 0 0 0 24 42 60 13 0 0 0 0 0 0 0 0 36 136 48 2 0 0 95
458 393 431 314 19 4 35 112 185 237 429 536 531 464 282 118 12 0 0 0 0 0 0 0 0 6 0 0 0 0 0 0 0 0 3 0 0 93 59 54 38 8 8
514 519 507 531 244 156 121 170 222 328 501 674 638 477 358 44 33 3 3 1 0 0 0 0 0 0 0 0 0 0 0 0 0 0 0 0 0 19 154 109 85 72 53
459 563 427 486 271 147 232 286 254 354 308 610 752 539 56 21 26 35 51 6 0 0 0 0 0 0 0 0 0 0 0 0 0 0 0 0 0 0 10 103 264 352 299
338 460 439 564 399 178 295 292 216 114 56 203 251 87 11 26 41 54 39 8 0 0 0 0 0 0 0 0 0 0 0 0 0 2 1 1 0 0 0 6 22 48 221
198 499 701 601 231 104 104 307 118 26 31 31 26 26 29 32 38 9 0 0 0 0 0 0 0 0 0 0 0 0 0 0 0 0 0 0 0 0 0 0 0 0 0
411 599 690 487 232 168 138 105 62 38 52 41 43 38 22 5 7 19 4 2 0 0 0 0 0 0 0 0 0 0 0 0 0 0 0 0 0 0 0 0 2 23 0
546 792 588 344 222 113 88 102 42 82 49 35 48 33 27 25 0 0 0 0 0 0 0 0 0 0 0 0 0 0 0 0 0 0 0 0 0 0 0 0 0 3 46
656 486 260 125 33 45 72 95 88 67 37 11 9 1 0 0 0 0 0 0 0 0 0 0 0 0 0 0 0 0 0 0 0 0 0 0 0 0 0 0 0 0 1
107 96 56 27 45 65 83 25 7 0 0 0 0 0 0 0 0 0 0 0 0 0 0 0 0 0 0 0 0 0 0 0 0 0 0 0 0 0 0 0 0 0 0
0 0 0 0 0 0 0 0 0 0 0 0 0 0 0 0 0 0 0 0 0 0 0 0 0 0 0 0 0 0 0 0 0 0 0 0 0 0 0 0 0 0 0
0 0 0 0 0 0 0 0 0 0 0 0 0 0 0 0 0 0 0 1 0 0 0 0 0 0 0 0 0 0 0 0 16 0 0 0 0 0 0 0 0 0 0
0 0 0 0 0 0 0 0 0 0 0 0 0 0 0 0 0 0 4 0 0 0 0 0 0 0 0 0 0 1 0 0 0 0 0 0 0 0 0 0 0 0 0

GFSSE_con_mucape_006.txt.gz
CAPE
421 547 763 1138 1151 1015 862 733 710 775 817 758 704 616 582 557 591 634 725 891 773 480 433 452 464 505 514 530 643 783 976 1007 1195 1236 1431 1023 868 1024 1208 1444 1293 884 1335
565 693 883 1070 1170 1095 974 836 872 924 883 685 698 670 593 509 514 567 500 374 337 125 107 133 146 166 248 325 519 658 745 814 1000 960 1031 1030 862 991 1087 1334 1039 1236 1488
710 850 823 969 1174 1181 1071 1010 1142 1041 779 749 761 717 545 457 419 357 289 319 154 49 34 24 36 60 88 141 232 313 361 433 443 646 706 138 201 826 1314 1244 1349 1361 1317
806 907 883 964 1070 1259 1158 1194 1165 1011 837 821 825 676 516 424 280 151 149 239 33 14 9 3 0 0 0 1 13 14 18 23 87 158 45 85 179 668 1270 1148 1055 1001 1065
850 919 1034 1089 1172 1278 1289 1285 1206 1219 1140 1025 879 618 506 356 191 57 43 22 0 0 0 0 0 0 0 0 0 0 0 0 9 0 3 52 346 596 1050 1193 1143 1090 1311
880 933 1042 1156 1168 1327 1341 1392 1372 1277 1126 1047 895 584 462 272 127 22 5 0 0 0 0 0 0 0 0 0 0 0 0 0 0 0 0 0 199 753 1270 1382 1442 1043 1244
841 967 1110 1209 1256 1368 1490 1451 1346 1115 916 956 866 653 433 277 127 10 0 0 0 0 0 0 0 0 0 0 0 0 0 0 0 0 0 0 204 1017 1266 1063 1243 845 1049
1053 1084 1171 1182 1163 1204 1301 1252 1084 926 888 948 833 631 412 302 150 0 0 0 0 0 0 0 0 0 0 0 0 0 0 0 0 0 0 0 120 946 752 669 1360 819 731
1173 1209 1064 1107 1029 1059 1040 979 918 866 898 886 815 662 535 340 153 12 0 0 0 0 6 29 84 48 10 9 20 16 0 0 0 0 0 0 208 728 705 462 828 1128 1099
1696 1583 1877 1387 1039 1029 909 836 754 688 720 766 752 597 347 210 140 84 65 10 101 56 89 176 163 165 128 86 54 47 8 0 0 0 0 0 142 384 550 404 424 460 449
1743 1747 1866 1556 1326 1042 767 619 658 715 658 642 640 507 276 36 8 13 76 190 186 189 194 238 305 269 193 73 25 43 11 0 0 0 0 0 0 19 84 340 500 353 237
1145 1510 1437 1213 1036 738 494 480 454 395 335 324 342 285 198 144 142 173 114 168 295 335 432 421 426 415 242 40 6 0 0 0 0 0 0 0 0 0 19 95 396 252 177
725 796 789 656 480 378 347 289 132 147 104 127 227 229 240 290 287 267 185 131 33 47 22 3 13 41 9 10 1 0 0 0 0 0 0 0 0 0 1 0 124 152 114
455 486 425 272 201 185 129 102 8 55 59 140 353 393 386 335 221 26 14 0 0 0 0 0 0 0 0 0 0 0 0 0 0 0 0 0 0 0 0 0 0 190 170
194 256 183 82 7 18 18 21 37 87 225 346 458 519 344 171 41 0 1 4 1 0 0 0 0 0 0 0 0 0 0 0 0 0 0 0 0 0 0 0 0 1 199
221 278 328 132 1 0 7 52 138 213 373 586 628 515 367 135 84 19 34 36 10 0 0 0 0 0 0 0 0 0 0 0 0 0 0 0 0 0 0 0 0 0 11
383 460 447 400 223 26 48 68 97 161 399 560 683 659 322 87 27 27 34 47 29 12 0 0 0 0 0 0 0 0 0 0 0 0 0 0 0 0 0 0 0 0 0
338 493 578 509 415 148 157 107 68 88 194 109 232 106 51 39 27 34 41 40 17 0 0 0 0 0 0 0 0 0 0 0 0 0 0 0 0 0 0 0 0 0 0
146 378 475 406 278 90 112 93 25 60 48 117 59 43 30 29 16 9 11 1 0 0 0 0 0 0 0 0 0 0 0 0 0 0 0 0 0 0 0 0 0 0 0
266 547 639 387 205 138 89 89 80 34 27 36 35 19 22 15 15 11 10 4 0 0 0 0 0 0 0 0 0 0 0 0 0 0 0 0 0 0 0 0 0 0 0
391 544 475 282 183 92 41 32 19 15 45 24 0 1 0 0 0 0 0 0 0 0 0 0 0 0 0 0 0 0 0 0 0 0 0 0 0 0 0 0 0 0 0
415 146 45 38 27 8 2 21 25 2 2 0 0 0 0 0 0 0 0 0 0 0 0 0 0 0 0 0 0 0 0 0 0 0 0 0 0 0 0 0 0 0 0
25 6 4 0 0 0 0 0 0 0 0 0 0 0 0 0 0 0 0 0 0 0 0 0 0 0 0 0 0 0 0 0 0 0 0 0 0 0 0 0 0 0 0
0 0 0 0 0 0 0 0 0 0 0 0 0 0 0 0 0 0 0 0 0 0 0 0 0 0 0 0 0 0 0 1 0 0 0 0 0 0 0 0 0 0 0
0 0 0 0 0 0 0 0 0 0 0 0 0 0 0 0 0 0 0 0 0 0 0 0 0 0 0 0 0 0 0 0 0 0 0 0 0 0 0 0 0 0 0
0 0 0 0 0 0 0 0 0 0 0 0 0 0 0 0 0 0 0 0 0 0 0 0 0 0 0 0 0 0 0 0 0 0 0 0 0 0 0 0 0 0 0

GFSSE_con_mucape_009.txt.gz
CAPE
589 705 694 676 787 825 730 674 676 699 782 818 735 551 504 506 510 542 564 634 445 120 101 91 122 166 257 324 382 416 457 503 558 688 831 995 829 848 999 906 959 334 1182
807 818 702 835 816 883 798 760 783 881 887 690 591 534 462 445 498 389 249 386 280 31 17 31 42 47 62 81 114 128 158 197 246 383 379 261 320 730 1077 995 1342 672 1104
1007 1014 819 677 898 948 925 1014 1058 1045 749 679 657 525 412 379 297 204 160 355 161 15 3 0 0 0 0 0 0 0 0 0 39 59 105 224 318 685 1027 1411 1250 1205 913
1100 1065 780 712 982 1055 1070 1188 1139 1037 785 776 682 489 396 259 137 127 116 226 30 0 0 0 0 0 0 0 0 0 0 0 0 0 0 52 435 739 1102 1117 937 809 824
1198 1070 837 834 992 1191 1281 1252 1200 1138 1097 1039 731 480 359 201 41 40 22 73 0 0 0 0 0 0 0 0 0 0 0 0 0 0 0 134 718 708 1080 831 824 753 892
1058 925 763 823 1054 1337 1402 1378 1309 1195 1118 1023 811 524 342 161 40 0 0 0 0 0 0 0 0 0 0 0 0 0 0 0 0 0 0 30 567 1108 1002 1237 1062 695 1018
1075 1088 1032 956 983 1316 1529 1539 1307 1129 988 955 830 669 358 191 36 0 0 0 0 0 0 0 0 0 0 0 0 0 0 0 0 0 0 0 200 841 636 569 869 995 727
1124 1231 1308 1037 1020 1339 1463 1308 1019 888 887 841 784 602 353 222 49 0 0 0 0 0 1 0 0 0 0 0 0 0 0 0 0 0 0 0 119 493 733 562 912 1066 743
1236 1236 1401 1462 1372 1185 1082 990 889 778 823 776 709 588 391 221 88 38 35 46 14 11 124 114 62 83 28 65 48 19 0 0 0 0 0 0 2 125 325 441 607 410 298
1420 1324 1521 1470 1323 1252 1193 984 873 743 706 689 594 452 206 146 70 112 39 50 157 175 161 184 250 242 182 103 54 39 7 0 0 0 0 0 0 0 0 84 346 97 12
1479 1286 1064 1153 948 1134 1236 1006 775 686 634 605 506 372 159 153 177 162 101 134 274 200 292 380 363 322 249 64 1 23 0 0 0 0 0 0 0 0 0 14 449 473 79
1096 1318 1538 1536 1656 1122 860 835 734 559 428 420 395 494 415 410 387 292 259 127 131 148 293 213 199 213 133 133 69 0 0 0 0 0 0 0 0 0 0 113 280 300 264
962 1410 1379 1367 1215 983 748 611 485 385 315 327 436 445 562 535 673 619 481 311 258 38 32 2 22 64 87 23 0 0 0 0 0 0 0 0 0 0 0 0 90 275 326
830 858 925 893 743 538 405 367 170 177 208 343 488 631 707 705 553 177 108 2 0 0 0 0 0 0 0 0 0 0 0 0 0 0 0 0 0 0 0 6 10 2 121
554 683 692 432 317 212 122 56 34 102 213 396 598 622 670 433 189 28 3 1 6 20 0 0 0 0 0 0 0 0 0 0 0 0 0 0 0 0 0 0 2 3 0
365 535 364 167 36 12 8 54 99 108 171 288 305 295 228 175 82 54 7 19 35 47 24 8 0 0 0 0 0 0 0 0 0 0 0 0 0 0 0 0 0 0 0
253 322 323 246 59 13 56 69 44 42 12 32 181 183 139 98 46 43 38 39 45 49 22 0 0 0 0 0 0 0 0 0 0 0 0 0 0 0 0 0 0 0 0
186 370 449 404 266 73 59 5 5 3 1 1 75 45 17 30 31 9 20 8 3 8 0 0 0 0 0 0 0 0 0 0 0 0 0 0 0 0 0 0 0 0 0
441 470 437 448 250 159 50 15 16 25 21 81 62 26 16 16 5 6 2 1 9 8 0 0 0 0 0 0 0 0 0 0 0 0 0 0 0 0 0 0 0 0 0
274 308 370 417 281 125 90 69 59 25 20 17 30 43 35 1 1 0 0 0 0 0 0 0 0 0 0 0 0 0 0 0 0 0 0 0 0 0 0 0 0 0 0
457 556 563 372 225 85 22 0 3 0 0 28 4 0 0 0 0 0 0 0 0 0 0 0 0 0 0 0 0 0 0 0 0 0 0 0 0 0 0 0 0 0 0
316 129 102 42 21 1 0 0 0 0 0 0 0 0 0 0 0 0 0 0 0 0 0 0 0 0 0 0 0 0 0 0 0 0 0 0 0 0 0 0 0 0 0
0 0 0 0 0 0 0 0 0 0 0 0 0 0 0 0 0 0 0 0 0 0 0 0 0 0 0 0 0 0 0 0 0 0 0 0 0 0 0 0 0 0 0
0 0 0 0 0 0 0 0 0 0 0 0 0 0 0 0 0 0 0 0 0 0 0 0 0 0 0 0 0 0 0 0 0 0 0 0 0 0 0 0 0 0 0
0 0 0 0 0 0 0 0 0 0 0 0 0 0 0 0 0 0 0 0 0 0 0 0 0 0 0 0 1 0 0 0 0 0 0 0 0 0 0 0 0 0 0
0 0 0 0 0 0 0 0 0 0 0 0 0 0 0 0 0 0 0 0 0 0 0 7 1 0 0 0 0 0 0 0 0 0 0 0 0 0 0 0 0 0 0

GFSSE_con_mucape_012.txt.gz
CAPE
755 630 797 909 953 897 784 752 735 772 850 875 787 528 467 436 436 313 312 357 301 54 46 80 104 109 112 121 107 93 106 111 229 254 283 322 401 790 764 566 1020 415 770
848 662 631 860 910 872 844 842 884 925 964 715 591 512 428 395 249 153 235 243 138 15 5 1 0 0 0 0 0 0 0 1 3 63 153 296 810 865 866 910 1289 525 703
1028 863 538 784 921 913 944 1051 1076 1094 822 689 555 422 323 226 134 147 108 194 11 0 0 0 0 0 0 0 0 0 0 0 0 0 35 41 448 980 907 919 1228 800 657
1060 951 736 705 943 1026 1155 1181 1198 1071 847 736 514 368 231 137 103 74 10 115 2 0 0 0 0 0 0 0 0 0 0 0 0 0 0 0 190 845 538 517 521 630 702
1218 936 1028 791 811 968 1105 1063 1254 1241 1178 855 607 345 219 69 43 11 0 0 0 0 0 0 0 0 0 0 0 0 0 0 0 0 0 28 178 852 708 525 590 562 514
1067 1190 649 683 774 949 1104 1175 1423 1308 1104 910 760 405 217 80 2 0 0 0 0 0 0 0 0 0 0 0 0 0 0 0 0 0 0 4 127 720 631 465 404 417 475
1154 1332 969 737 666 995 1241 1540 1399 1199 1024 906 761 478 258 41 0 0 0 0 0 0 0 0 0 0 0 0 0 0 0 0 0 0 0 0 1 316 644 454 506 311 355
1135 1219 1139 691 835 983 1403 1368 1059 954 958 909 671 444 248 39 1 0 0 0 0 0 0 0 0 1 0 0 0 0 0 0 0 0 0 0 16 97 233 444 499 237 168
1408 1500 1262 1083 835 1130 1204 946 794 819 835 770 664 501 249 98 69 52 47 34 3 1 26 49 48 92 92 66 27 0 0 0 0 0 0 0 0 0 0 37 290 80 14
1456 1389 1348 1196 1321 1287 1269 891 758 723 696 670 523 355 190 105 104 104 25 109 116 104 98 131 171 195 175 180 56 37 12 0 0 0 0 0 0 0 10 38 59 71 0
1355 1340 1341 1302 1244 1133 1017 1078 720 702 625 516 436 224 118 151 173 144 89 166 264 268 284 345 325 310 199 212 3 0 13 0 0 0 1 0 0 0 0 0 208 228 0
1336 1373 1262 1425 1304 1154 775 737 580 284 213 251 466 500 381 663 617 413 238 176 119 96 166 19 8 66 70 0 0 0 0 0 0 0 0 0 0 0 0 0 127 347 429
1180 1249 1316 1549 1207 1067 699 485 220 185 262 558 785 859 821 999 939 665 311 191 195 0 63 1 1 0 1 0 0 0 0 0 0 0 0 0 0 0 0 0 15 83 125
935 944 1147 1362 1149 822 482 194 225 282 471 699 931 1080 1034 963 965 565 276 170 176 80 22 0 0 0 0 0 0 0 0 0 0 0 0 0 0 0 0 0 0 7 13
525 748 932 866 749 684 388 316 404 621 852 984 1047 903 666 661 706 624 311 119 17 26 25 16 2 0 0 0 0 0 0 0 0 0 0 0 0 0 0 0 0 0 0
466 862 961 720 597 431 356 504 638 314 132 205 252 171 120 12 114 411 70 5 28 50 47 23 7 0 0 0 0 0 0 0 0 0 0 0 0 0 0 0 0 0 0
582 948 937 743 512 554 518 61 37 26 8 36 78 77 75 39 12 18 26 21 35 29 1 0 0 0 0 0 0 0 0 0 0 0 0 0 0 0 0 0 0 0 0
491 984 976 712 640 603 40 37 15 31 17 22 33 55 52 28 10 22 16 0 0 0 0 0 0 0 0 0 0 0 0 0 0 0 0 0 0 0 0 0 0 0 0
678 1153 1105 947 895 551 42 36 8 19 34 53 66 31 20 9 8 0 0 0 0 0 0 0 0 0 0 0 0 0 0 0 0 0 6 0 0 0 0 0 0 0 0
948 1154 1247 827 600 517 202 89 56 49 12 9 25 43 1 0 0 0 0 0 0 0 0 0 0 0 0 0 0 0 0 0 0 3 23 8 1 1 0 0 0 0 0
1028 1066 1157 829 704 581 196 17 0 0 0 0 0 0 0 0 0 0 0 0 0 0 0 0 0 0 0 0 0 0 0 0 7 22 21 18 11 7 3 0 0 0 0
1129 1077 911 767 624 381 66 0 4 8 0 0 0 0 0 0 0 0 0 0 0 0 0 0 0 0 0 11 0 0 0 0 0 14 23 12 18 26 4 0 0 0 0
630 575 270 62 4 0 0 0 0 0 0 0 0 0 0 0 0 0 0 0 0 0 0 1 0 1 5 5 15 11 0 0 0 0 10 8 13 4 2 0 0 0 0
0 0 0 0 0 0 0 0 0 0 0 0 0 0 0 0 0 0 0 0 0 0 0 3 1 0 0 0 4 4 2 1 0 0 4 14 0 0 0 0 0 0 0
0 0 0 0 0 0 0 0 0 0 0 0 0 0 0 0 0 0 0 0 0 0 1 1 0 0 2 6 3 0 1 1 1 0 0 6 0 1 3 3 4 9 2
0 0 0 0 0 0 0 0 0 0 0 0 0 0 0 0 0 0 0 0 6 7 10 2 0 2 1 0 0 0 0 0 0 0 0 0 0 0 9 10 14 11 6

GFSSE_con_mucape_015.txt.gz
CAPE
584 268 803 903 917 839 742 676 675 725 845 769 647 490 413 330 220 340 385 325 253 41 23 5 0 0 0 0 0 0 0 0 0 69 162 342 616 804 796 763 1090 140 541
679 251 629 896 951 792 722 826 856 989 917 590 522 449 330 203 186 214 263 238 115 0 0 0 0 0 0 0 0 0 0 0 0 0 102 537 823 890 774 631 1093 516 507
788 422 312 858 958 917 886 1033 1143 1073 677 562 428 317 211 146 166 128 152 187 10 0 0 0 0 0 0 0 0 0 0 0 0 2 15 159 710 604 484 949 864 576 588
853 341 260 782 884 1065 1036 1079 1083 987 682 509 366 245 151 107 52 47 19 56 0 0 0 0 0 0 0 0 0 0 0 0 15 107 5 0 443 676 582 456 521 414 461
858 616 486 740 790 827 870 916 1112 1089 928 644 482 208 114 36 0 0 0 0 0 0 0 0 0 0 0 0 0 0 0 0 20 12 3 0 77 610 626 180 413 531 386
846 873 444 645 797 741 719 1031 1041 1186 873 756 554 204 56 0 0 0 0 0 0 0 0 0 0 0 0 0 0 0 0 0 0 0 0 0 1 436 616 324 166 119 400
557 610 572 550 638 616 722 929 1166 991 877 735 453 225 34 0 0 0 0 0 0 0 0 0 0 0 3 17 4 0 0 0 0 0 0 0 2 109 435 511 324 71 11
836 852 665 458 632 448 925 1039 982 903 812 700 447 222 15 3 0 0 6 5 0 13 22 20 33 56 54 54 50 23 14 2 0 0 0 0 49 33 0 121 245 84 0
339 913 1051 802 536 664 760 688 700 734 715 652 423 218 46 32 38 48 47 42 36 45 73 78 94 140 138 123 83 83 59 103 0 0 0 0 0 20 25 2 31 34 0
468 1275 1236 938 932 1093 975 633 636 638 630 554 318 126 71 78 36 42 51 125 157 148 203 341 348 308 269 293 107 41 70 90 0 1 12 0 0 0 0 0 33 39 30
1199 1144 1088 1007 870 904 924 772 638 664 590 452 355 102 55 177 158 87 87 157 276 204 197 240 133 148 232 315 297 38 88 0 0 1 10 0 0 3 12 0 0 106 82
1057 994 975 918 884 759 475 532 324 75 135 256 488 319 248 443 431 19 69 221 209 121 202 142 70 116 100 17 43 243 0 0 0 0 0 0 0 5 90 98 106 119 141
1173 1005 1046 1366 1246 524 380 240 104 138 377 675 678 628 661 541 684 476 296 331 309 91 201 115 72 35 26 9 0 0 0 0 0 0 0 0 0 0 8 18 28 21 20
696 1066 968 945 1082 516 279 156 113 346 530 539 794 783 828 686 620 556 316 342 374 227 134 102 88 37 7 0 0 0 0 0 0 0 0 0 0 0 0 0 0 0 0
455 658 718 776 618 499 256 332 669 741 801 856 930 661 678 773 665 464 648 437 202 98 93 68 47 1 0 0 0 0 0 0 0 0 0 0 0 0 0 0 0 0 0
397 665 663 561 516 327 481 774 536 237 138 103 197 340 504 428 312 133 83 138 39 97 12 13 0 0 0 0 0 0 0 0 0 0 0 0 0 0 0 0 0 0 0
617 868 771 745 533 474 763 321 86 3 29 14 67 237 219 237 91 28 31 16 15 11 0 0 0 0 0 0 0 0 0 0 0 1 1 24 2 0 0 0 0 0 0
815 1360 1089 659 679 823 522 170 15 39 9 0 0 2 8 17 18 2 6 0 0 0 0 0 0 0 0 0 0 0 0 0 0 1 0 28 31 8 0 1 0 0 0
723 1370 1357 1061 1018 705 394 167 307 113 30 9 14 2 6 0 0 0 0 0 0 0 0 0 0 0 0 0 0 0 1 0 4 0 0 16 29 32 14 0 29 0 0
847 1513 1593 1317 1206 612 392 445 338 137 31 5 17 22 0 0 0 0 0 0 0 0 0 0 0 0 0 0 0 0 1 0 0 0 5 32 26 13 6 20 19 14 30
1320 1539 1046 1094 1223 794 810 583 73 9 1 0 0 0 0 0 0 0 0 0 0 0 0 0 2 0 0 0 0 1 1 2 12 0 5 23 24 19 29 20 13 3 4
1423 1408 1122 1060 936 913 481 65 21 49 30 0 0 0 0 0 0 0 0 0 0 0 0 0 1 0 0 0 0 0 0 0 0 0 0 1 31 3 13 3 2 5 4
1307 1269 1184 943 734 288 28 27 48 14 0 0 0 0 0 0 0 0 0 0 0 0 0 0 1 7 0 0 1 1 0 0 0 0 3 5 48 11 12 4 2 1 1
894 674 359 96 7 1 0 0 1 19 21 0 0 0 0 0 0 0 0 0 0 0 0 0 0 3 6 7 10 7 13 17 0 0 3 3 9 6 46 2 5 2 0
45 8 0 0 0 0 0 0 0 0 0 0 0 0 0 0 0 0 0 0 0 0 1 6 14 14 20 26 21 14 10 1 0 6 0 10 10 14 21 26 20 11 8
0 0 0 0 0 0 0 0 0 0 0 0 0 0 1 0 0 0 0 0 0 0 7 16 21 27 32 23 11 3 20 19 16 23 23 20 47 12 14 26 63 52 54

GFSSE_con_mucape_018.txt.gz
CAPE
568 307 709 826 803 723 644 601 659 721 816 793 669 508 350 216 338 362 327 253 190 0 0 0 0 0 0 0 0 0 0 0 0 0 229 529 628 672 431 618 800 129 752
396 209 623 775 749 729 730 784 859 884 868 731 552 395 335 271 265 322 273 194 80 0 0 0 0 0 0 0 0 0 0 0 0 16 96 439 542 464 424 791 918 579 886
306 192 335 690 752 809 966 1127 1055 989 779 504 288 305 223 126 93 165 198 86 12 0 0 0 0 0 0 0 0 0 0 0 115 216 137 229 321 445 401 900 709 670 860
140 122 316 711 778 945 1139 1185 1069 907 587 440 297 175 206 59 8 23 104 62 34 0 0 0 0 0 0 0 0 0 0 0 51 107 0 74 185 581 192 189 461 268 552
188 199 491 604 540 763 874 710 961 847 610 454 326 155 25 0 0 0 158 125 24 0 0 0 0 0 0 44 49 39 20 35 55 28 0 0 1 543 363 183 5 90 477
575 381 406 386 317 633 751 1057 930 778 595 452 340 233 0 0 0 9 182 136 0 0 0 0 0 11 125 106 105 56 64 63 32 1 0 1 52 429 407 438 378 220 273
340 208 281 248 424 678 1053 1104 888 778 596 486 371 172 39 0 0 56 183 152 29 21 5 0 32 119 148 124 118 108 84 67 0 1 0 0 29 58 21 150 100 84 128
284 361 198 225 527 739 929 845 720 638 574 493 353 154 110 142 146 198 202 212 209 212 220 165 219 219 233 152 124 79 60 85 0 1 0 8 208 56 16 28 314 258 184
306 278 225 403 635 585 538 476 496 525 513 481 348 213 225 225 213 250 290 280 284 290 312 332 366 357 357 313 198 132 73 36 0 7 8 4 158 59 0 7 162 284 275
103 142 278 290 870 614 446 374 377 422 393 361 234 112 101 125 116 141 238 328 293 228 249 279 276 282 362 317 223 207 150 50 0 0 0 16 143 85 73 0 0 415 441
52 255 566 782 751 713 485 416 432 461 374 328 122 61 74 69 81 105 167 193 161 100 125 200 86 94 177 175 252 341 348 0 0 0 0 75 169 139 177 148 130 171 274
160 511 621 714 789 704 375 353 164 100 93 279 217 134 393 466 132 18 158 194 274 176 163 224 192 189 174 4 39 143 0 0 0 0 0 73 45 73 127 128 124 62 48
667 687 809 908 760 416 318 378 60 234 471 649 636 745 748 714 705 433 598 216 281 216 219 111 130 94 50 30 3 0 0 0 0 0 0 0 0 0 0 0 0 0 0
930 897 859 807 1160 377 310 250 339 515 709 808 870 730 936 926 877 596 403 245 203 79 132 71 36 5 5 1 5 0 0 0 0 0 0 0 0 0 0 0 0 0 0
762 871 780 1004 713 540 428 760 660 520 365 500 483 572 531 517 368 188 77 37 120 10 18 1 0 0 0 0 0 0 0 0 0 0 0 0 0 0 0 0 0 0 0
567 553 591 581 563 618 857 600 272 86 32 58 163 385 415 516 299 36 43 6 2 0 0 0 0 0 0 0 0 0 0 0 0 0 0 1 6 4 0 0 0 0 0
511 574 653 612 558 666 669 346 36 3 14 8 38 49 45 128 23 7 0 0 0 0 0 0 0 0 0 0 0 0 0 0 0 0 0 0 8 24 8 0 0 0 0
569 591 642 508 595 839 512 130 104 47 22 0 0 0 0 0 0 0 0 0 0 0 0 0 0 0 0 0 0 0 0 0 0 0 0 0 11 17 22 17 9 0 0
941 932 714 914 895 548 367 201 248 201 54 2 8 0 0 0 0 0 0 0 0 0 0 0 0 0 0 0 0 0 0 0 0 0 0 0 3 17 36 29 16 12 1
1265 1311 1007 1100 811 511 314 339 474 281 34 7 0 0 0 0 0 0 0 0 0 0 0 0 0 0 0 0 0 0 0 0 0 0 0 1 29 16 9 5 1 0 13
1504 1464 1133 902 579 517 436 427 350 19 0 0 0 0 0 0 0 0 0 0 0 0 0 0 0 0 0 0 0 0 0 0 0 0 0 0 0 9 15 2 0 0 0
1590 1512 1037 869 583 706 774 250 4 1 0 0 0 0 0 0 0 0 0 0 0 0 0 0 0 0 0 0 0 0 0 0 0 0 0 0 0 4 2 0 0 0 0
1255 1279 830 819 824 976 255 11 9 0 0 0 0 0 0 0 0 0 0 0 0 0 0 0 0 0 0 0 0 0 0 0 0 0 0 0 0 0 0 0 1 0 0
976 1149 1045 929 604 120 11 0 0 0 0 0 0 0 0 0 0 0 0 0 0 0 0 0 0 0 0 0 0 0 0 0 0 0 0 0 0 0 0 0 0 0 0
1081 852 380 143 25 0 0 0 0 0 0 0 0 0 0 0 0 0 0 0 0 0 0 0 0 1 0 2 0 0 0 0 0 0 0 0 0 0 0 4 0 0 0
208 108 9 0 0 0 0 0 0 0 0 0 0 0 2 0 0 0 0 0 0 0 0 0 0 0 0 0 2 11 0 0 0 0 0 0 0 0 0 1 0 0 0

GFSSE_con_mucape_024.txt.gz
CAPE
782 869 880 907 805 746 765 773 681 493 421 351 304 233 182 77 65 88 54 0 0 0 0 0 0 0 0 0 0 0 0 0 0 306 435 250 233 211 152 311 472 225 444
666 805 785 764 784 863 938 827 646 494 406 294 226 189 184 80 47 76 23 6 27 0 0 0 0 0 0 0 0 0 0 0 0 235 456 116 7 96 101 143 537 164 326
880 737 615 621 763 972 998 895 648 472 326 167 136 133 90 19 18 87 46 58 59 0 0 0 0 0 0 0 5 49 180 170 84 75 349 0 2 61 0 0 95 203 289
655 590 459 647 864 1031 942 761 479 283 195 203 132 11 46 10 24 79 143 131 148 13 0 0 0 0 0 14 99 81 144 120 111 226 19 37 38 33 34 0 0 0 166
510 405 505 699 920 1047 844 613 422 343 250 200 130 42 31 39 43 74 208 194 162 16 0 0 0 0 20 94 116 67 67 1 0 0 8 21 0 8 0 0 0 0 0
283 328 496 759 906 900 777 548 445 280 183 148 107 195 115 83 94 162 272 276 33 19 4 0 0 3 85 136 173 67 0 0 0 0 0 1 0 48 0 0 0 0 0
253 208 260 521 582 714 683 564 411 302 182 138 139 218 232 183 144 259 323 267 133 42 23 0 10 151 112 199 192 73 45 0 0 0 0 5 15 63 0 5 4 3 0
166 119 162 320 253 405 563 481 363 240 166 144 170 249 283 294 307 343 366 346 307 226 157 78 48 78 101 155 154 95 21 0 0 0 0 0 267 70 59 75 117 311 166
54 100 44 80 95 226 328 301 282 184 148 158 193 215 238 243 283 351 345 341 252 142 28 0 17 39 48 68 179 114 0 0 0 0 0 6 389 131 140 171 170 233 237
55 5 39 116 127 124 170 185 185 129 125 167 176 176 155 222 290 273 225 216 114 9 0 0 28 0 0 85 76 105 0 0 0 0 0 94 400 114 174 222 176 72 61
20 22 119 74 154 138 70 87 135 119 108 108 120 94 29 2 1 16 7 57 13 0 0 1 26 39 44 0 96 25 0 0 0 0 0 170 101 61 120 44 0 0 1
0 0 34 123 112 79 48 55 46 42 9 8 28 33 42 11 5 7 27 19 12 10 40 33 95 0 0 0 0 0 0 0 0 0 0 54 20 18 8 0 0 0 0
0 2 33 132 121 37 20 9 11 4 75 73 56 100 98 60 35 52 25 12 10 3 5 0 0 0 0 0 0 0 0 0 0 0 0 14 24 17 15 7 0 0 0
33 84 147 234 128 46 0 35 70 57 125 256 223 207 206 147 52 30 0 0 0 0 0 0 0 0 0 0 0 0 0 0 0 0 0 4 24 13 34 17 10 0 0
83 152 210 296 266 38 26 120 180 273 318 359 344 262 264 176 116 55 14 0 0 0 0 0 0 0 0 0 0 0 0 0 0 0 0 0 7 21 28 38 10 0 0
274 334 373 430 301 86 91 138 262 378 303 297 312 402 233 111 4 9 3 0 0 0 0 0 0 0 0 0 0 0 0 0 0 0 0 0 10 34 27 11 1 0 0
509 517 564 575 358 192 244 301 330 350 306 10 0 0 0 27 0 0 0 0 0 0 0 0 0 0 0 0 0 0 0 0 0 0 0 0 0 25 34 1 0 0 0
526 639 725 522 201 202 290 258 222 96 0 5 0 0 0 0 0 0 0 0 0 0 0 0 0 0 0 0 0 0 0 0 0 0 0 0 0 0 3 6 5 2 2
474 594 269 316 247 249 199 176 114 23 1 17 0 0 0 0 0 0 0 0 0 0 0 0 0 0 0 0 0 0 0 0 0 0 0 0 0 0 0 0 0 0 1
304 626 273 379 276 217 190 182 67 32 12 12 0 0 0 0 0 0 0 0 0 0 0 0 0 0 0 0 0 0 0 0 0 0 0 0 0 0 0 0 0 8 7
272 475 345 391 316 265 245 217 103 54 98 48 0 0 0 0 0 0 0 0 0 0 0 0 0 0 0 0 0 0 0 0 0 0 0 0 0 0 0 0 2 4 2
404 477 378 357 362 343 369 250 85 88 107 34 0 0 0 0 0 0 0 0 0 0 0 0 0 0 0 0 0 0 0 0 0 0 0 0 0 0 0 0 0 0 0
523 629 500 448 471 466 458 285 123 92 77 0 0 0 0 0 0 0 0 0 0 0 0 0 0 0 0 0 0 0 0 0 0 0 0 0 0 0 0 0 0 0 0
664 758 624 642 597 554 522 210 150 123 0 0 0 0 0 0 0 0 0 0 0 0 0 0 0 0 0 0 0 0 0 0 0 0 0 0 0 0 0 0 0 0 0
785 736 710 724 670 664 213 284 131 0 0 0 0 0 0 0 0 0 0 0 0 0 0 0 0 0 0 0 0 0 0 0 0 0 0 0 0 0 0 0 0 0 0
996 885 791 850 790 395 518 437 96 7 4 4 10 0 0 0 1 1 0 0 0 0 0 0 0 0 0 0 0 0 0 0 0 0 0 0 0 0 0 0 0 0 0

GFSSE_con_mucape_027.txt.gz
CAPE
702 816 801 780 732 768 708 502 348 304 280 257 173 86 48 9 9 17 31 11 0 0 0 0 0 0 0 0 0 0 0 94 408 479 334 52 42 79 125 191 116 72 268
920 824 730 753 807 868 762 525 402 336 289 142 112 99 87 49 65 65 62 22 26 0 0 0 0 0 0 0 35 31 0 41 488 342 66 45 2 0 0 4 138 77 235
849 855 664 680 815 849 753 591 493 370 121 39 50 80 45 58 16 119 95 92 91 15 0 0 0 0 0 32 452 488 161 179 385 401 59 0 0 0 0 0 0 1 202
915 680 488 700 805 852 671 530 387 208 92 70 45 47 51 58 35 146 178 159 155 74 0 0 0 0 0 16 163 176 292 266 128 2 0 0 0 0 0 0 0 0 0
917 482 498 739 787 789 536 371 298 281 208 165 136 62 62 103 48 86 229 229 197 33 18 12 0 0 42 53 51 54 60 31 22 0 0 0 0 0 0 0 0 0 0
581 458 616 742 757 675 538 467 366 260 172 152 220 277 210 134 74 166 263 235 130 36 30 11 7 73 169 70 74 35 0 0 0 0 0 0 0 0 0 0 0 0 0
595 389 569 620 645 618 539 425 308 257 202 232 316 319 339 311 199 341 265 271 226 76 31 27 123 193 172 121 36 56 0 0 0 0 0 0 9 8 2 1 122 131 111
373 263 419 507 392 391 405 350 264 232 235 316 333 338 383 369 343 332 323 334 287 241 188 147 69 106 166 144 7 24 0 0 0 0 0 0 281 16 19 101 118 103 121
72 61 129 58 246 305 214 191 192 230 254 326 314 324 327 317 307 327 327 309 225 134 106 84 80 97 284 162 3 0 0 0 0 0 0 29 274 57 130 106 64 37 31
41 89 43 16 81 165 152 203 196 173 200 274 291 247 232 259 316 296 252 222 96 20 61 97 74 109 42 149 0 0 0 0 0 0 0 70 114 50 80 37 0 0 0
37 31 46 54 200 153 116 161 152 174 175 213 193 145 78 31 7 4 37 37 5 0 19 90 22 7 0 1 0 0 0 0 0 0 0 62 14 21 0 0 0 0 0
1 15 61 86 144 132 110 100 30 47 46 31 17 9 2 0 7 6 18 10 3 37 8 10 0 0 0 0 0 0 0 0 0 0 0 19 14 18 19 7 0 0 0
15 2 75 183 187 123 67 41 13 2 0 0 22 39 9 2 9 0 8 0 0 0 0 0 0 0 0 0 0 0 0 0 0 0 0 10 20 26 23 21 0 0 0
0 0 8 138 216 68 28 4 1 0 26 33 103 85 46 20 75 39 15 0 0 0 0 0 0 0 0 0 0 0 0 0 0 0 0 0 9 5 45 35 22 5 0
23 20 72 217 293 69 0 0 0 128 242 247 136 174 129 78 40 31 5 0 0 0 0 0 0 0 0 0 0 0 0 0 0 0 0 0 0 21 21 60 36 6 0
89 118 191 298 346 63 9 45 138 309 365 311 261 242 206 136 97 32 48 10 1 0 0 0 0 0 0 0 0 0 0 0 0 0 0 0 0 19 40 48 16 0 2
139 190 250 367 430 60 49 145 306 318 329 410 397 363 214 194 47 0 0 0 0 0 0 0 0 0 0 0 0 0 0 0 0 0 0 0 0 2 31 1 0 0 2
317 375 421 468 341 76 65 206 361 375 329 185 1 0 0 0 0 0 0 0 0 0 0 0 0 0 0 0 0 0 0 0 0 0 0 0 0 0 0 3 6 4 2
486 466 464 422 301 179 162 275 373 442 92 0 0 0 0 0 0 0 0 0 0 0 0 0 0 0 0 0 0 0 0 0 0 0 0 0 0 0 0 0 1 2 1
534 510 593 656 606 320 227 332 317 176 31 13 20 1 0 0 0 0 0 0 0 0 0 0 0 0 0 0 0 0 0 0 0 0 0 0 0 0 0 0 0 0 0
503 554 795 561 387 255 274 249 214 143 52 33 29 12 0 0 0 0 0 0 0 0 0 0 0 0 0 0 0 0 0 0 0 0 0 0 0 0 0 0 0 0 0
489 620 692 278 246 294 292 230 185 130 42 60 59 31 0 0 0 0 0 0 0 0 0 0 0 0 0 0 0 0 0 0 0 0 0 0 0 0 0 0 0 0 0
387 598 579 330 314 237 233 236 236 170 64 58 79 49 0 0 0 0 0 0 0 0 0 0 0 0 0 0 0 0 0 0 0 0 0 0 0 0 0 0 0 0 0
322 357 546 363 353 324 304 289 291 203 51 76 118 22 0 0 0 0 0 0 0 0 0 0 0 0 0 0 0 0 0 0 0 0 0 0 0 0 0 0 0 0 0
436 347 354 416 397 359 288 395 364 304 106 107 58 0 0 0 0 0 0 0 0 4 0 0 0 0 0 0 0 0 0 0 0 0 0 0 0 0 0 0 0 0 0
531 481 371 567 498 455 438 438 304 128 112 42 0 0 3 2 1 0 0 0 1 4 0 0 0 0 0 0 0 0 0 0 0 0 0 0 0 0 0 0 0 0 0

GFSSE_con_mucape_030.txt.gz
CAPE
762 852 816 817 739 592 424 352 318 327 292 230 145 54 54 27 30 50 10 10 23 21 0 0 0 0 20 13 0 53 249 339 369 289 163 0 1 1 4 89 94 75 237
834 817 762 824 760 585 488 387 317 262 226 191 121 75 70 48 100 53 57 58 65 39 0 0 27 125 203 120 0 5 286 419 287 108 3 0 0 0 0 0 15 94 195
901 789 737 797 768 612 516 439 362 300 215 109 83 91 115 101 141 144 146 120 132 94 5 5 68 141 273 351 286 286 331 391 250 84 0 0 0 0 0 0 0 0 5
891 746 687 829 778 626 517 444 331 253 249 169 138 109 135 153 139 245 202 161 174 167 0 0 0 0 21 275 453 530 360 112 0 0 0 0 0 0 0 0 0 0 0
907 583 603 780 746 662 514 383 308 291 228 200 166 115 109 103 148 176 255 219 278 211 3 4 0 4 33 94 130 242 142 3 0 0 0 0 0 0 0 0 0 0 1
789 528 754 606 681 580 526 474 423 312 222 201 218 232 235 223 133 304 280 284 329 242 12 16 0 18 122 90 52 25 0 0 0 0 0 0 0 0 1 2 2 3 1
741 618 522 577 565 619 667 546 408 294 263 345 350 328 356 363 369 415 350 365 337 255 182 71 145 87 57 122 32 37 0 0 0 0 0 0 1 6 8 37 45 8 9
621 472 359 539 385 440 527 400 301 307 406 412 420 421 464 461 418 416 405 380 324 234 204 229 290 200 39 96 31 0 0 0 0 0 0 0 182 24 10 11 33 29 14
488 349 232 144 187 303 294 286 274 316 399 439 428 433 425 379 347 355 351 320 270 215 231 200 241 254 39 18 23 0 0 0 0 0 0 0 83 15 46 14 19 32 23
336 161 46 30 12 145 194 237 243 301 325 363 389 289 243 274 323 285 253 260 193 241 247 209 150 217 17 0 0 0 0 0 0 0 0 24 52 26 16 13 7 7 1
162 142 17 46 121 161 178 220 231 304 271 263 244 207 72 49 22 0 43 51 53 58 155 59 1 0 0 0 0 0 0 0 0 0 0 37 41 40 16 0 0 7 3
15 10 15 14 41 81 186 55 49 92 64 39 43 19 0 0 0 0 14 38 61 15 0 0 0 0 0 0 0 0 0 0 0 0 0 37 26 40 38 16 10 0 0
30 2 0 7 8 79 103 26 22 18 4 1 0 0 0 0 0 0 0 2 9 3 0 0 0 0 0 0 0 0 0 0 0 0 0 1 38 39 40 37 27 12 0
0 0 0 32 100 154 59 6 0 0 0 1 3 5 0 0 5 13 25 12 6 0 0 0 0 0 0 0 0 0 0 0 0 0 0 0 6 38 44 51 36 20 3
0 0 0 64 192 83 10 0 0 0 0 1 40 21 0 15 47 50 18 0 0 0 5 0 0 0 0 0 0 0 0 0 0 0 0 0 0 22 25 77 31 16 11
0 0 38 121 319 128 0 0 0 83 68 30 104 162 82 69 52 33 21 6 16 34 17 0 0 0 0 0 0 0 0 0 0 0 0 0 0 32 39 51 27 15 14
0 0 0 175 358 186 0 0 60 269 295 256 225 231 196 183 114 104 68 33 9 0 0 0 0 0 0 0 0 0 0 0 0 0 0 0 0 0 0 0 0 0 16
76 112 157 267 358 249 0 6 134 295 338 359 352 317 233 218 177 63 0 0 0 0 0 0 0 0 0 0 0 0 0 0 0 0 0 0 0 0 0 1 0 0 0
117 201 294 350 410 276 10 74 258 284 231 219 173 75 52 10 0 0 0 0 0 0 0 0 0 0 0 0 0 0 0 0 0 0 0 0 0 0 0 0 0 0 0
233 368 388 419 500 259 22 88 296 310 317 87 20 13 18 0 0 0 0 0 0 0 0 0 0 0 0 0 0 0 0 0 0 0 0 0 0 0 0 0 0 0 0
387 508 506 458 472 276 149 202 294 388 231 71 32 33 28 3 0 0 0 0 0 0 0 0 0 0 0 0 0 0 0 0 0 0 0 0 0 0 0 0 0 0 0
412 494 478 454 464 343 360 211 263 224 114 48 45 29 31 23 0 0 0 0 0 0 0 0 0 0 0 0 0 0 0 0 0 0 0 0 0 0 0 0 0 0 0
376 488 472 464 595 610 506 251 199 174 114 101 28 26 37 48 0 0 0 0 0 0 0 0 0 0 0 0 0 0 0 0 0 0 0 0 0 0 0 0 0 0 0
438 525 480 579 736 470 253 239 231 211 133 69 23 32 43 83 12 0 0 0 0 0 0 0 0 1 0 1 0 0 0 0 0 0 0 0 0 0 0 0 0 0 0
531 544 512 612 727 311 265 294 259 175 187 98 41 81 88 130 8 0 0 0 0 0 0 0 0 6 0 0 0 0 0 0 0 0 0 0 0 0 0 0 0 0 0
550 547 310 329 503 389 269 251 212 217 124 121 72 92 110 69 0 1 10 4 0 1 0 0 0 0 0 0 0 0 0 0 0 0 0 0 0 0 0 0 0 0 0

GFSSE_con_mucape_033.txt.gz
CAPE
686 504 834 904 766 663 581 536 485 439 386 316 213 130 64 47 71 29 22 54 117 121 17 41 64 29 9 284 199 6 92 138 247 148 10 0 0 0 3 76 194 122 241
784 564 767 856 771 719 613 500 432 373 349 287 202 126 129 89 61 88 123 142 180 157 118 234 243 172 68 283 301 262 80 194 98 0 0 0 0 0 0 0 68 93 145
892 615 734 766 744 700 643 557 443 390 348 285 213 176 148 139 179 178 180 186 258 306 262 309 333 267 165 313 569 371 121 68 61 0 0 0 0 0 0 0 0 0 2
878 664 531 749 688 662 578 463 421 399 304 243 244 237 194 279 300 246 207 234 223 299 168 245 406 402 378 567 582 332 97 0 0 0 0 0 0 0 0 0 0 0 0
966 745 605 788 654 646 560 467 353 318 276 252 249 299 303 373 377 332 272 258 263 279 53 34 81 214 328 394 345 221 3 0 0 0 0 0 3 15 14 6 3 3 1
1126 832 710 729 726 692 552 451 361 258 206 200 238 325 382 402 379 418 362 341 312 268 10 3 46 62 190 224 168 84 0 0 0 0 0 0 4 8 12 13 18 22 24
963 929 910 592 668 698 701 523 333 279 276 260 285 337 403 443 477 462 396 344 321 298 163 29 85 196 169 144 143 47 0 0 0 0 0 5 13 8 5 7 34 42 36
840 533 664 674 512 485 604 372 277 356 398 362 366 413 530 524 465 443 348 263 273 335 330 238 93 192 151 123 75 14 0 0 0 0 0 3 94 4 2 2 29 41 39
807 473 373 294 84 125 214 292 311 408 444 411 418 461 469 396 385 372 310 245 242 234 304 324 128 124 174 87 1 0 0 0 0 0 0 2 19 2 2 0 0 19 3
607 381 252 188 43 7 165 333 328 337 360 382 423 338 274 322 327 312 255 252 263 239 271 352 148 54 26 0 0 0 0 0 0 0 7 19 43 24 4 0 0 0 24
435 164 253 123 10 111 166 258 402 400 331 294 250 215 112 62 63 18 53 105 195 101 49 36 0 0 0 0 0 0 0 0 0 0 3 56 39 26 19 14 15 12 6
327 193 113 12 16 118 152 148 230 267 193 155 92 95 67 83 28 24 58 119 26 0 0 0 0 0 0 0 0 0 0 0 0 0 0 21 22 36 22 21 21 17 12
30 53 41 37 2 68 199 86 83 48 77 81 61 49 39 72 58 36 2 0 0 0 0 0 0 0 0 0 0 0 0 0 0 0 0 0 21 30 39 27 16 10 5
4 2 3 4 6 88 172 66 22 45 24 38 0 37 116 77 20 5 8 15 8 0 0 0 0 0 0 0 0 0 0 0 0 0 0 0 0 15 44 45 15 16 2
3 0 6 20 45 142 87 14 14 16 3 4 1 97 85 53 12 22 33 33 6 0 0 2 0 0 0 0 0 0 0 0 0 0 0 0 0 3 4 72 25 16 5
13 1 1 12 110 162 6 0 0 16 20 0 46 59 14 43 48 49 43 36 0 0 0 0 0 0 0 0 0 0 0 0 0 0 0 0 0 24 23 69 42 28 6
0 0 2 48 324 186 0 0 17 81 41 41 71 76 87 88 75 53 38 29 3 0 0 0 0 0 0 0 0 0 0 0 0 0 0 0 0 0 31 21 0 1 15
0 0 8 76 278 310 0 0 46 102 135 141 141 143 119 115 116 114 119 17 0 0 0 0 0 0 0 0 0 0 0 0 0 0 0 0 0 0 0 9 1 1 1
0 0 2 117 354 381 22 13 82 213 310 316 210 184 164 177 202 194 23 0 0 0 0 0 0 0 0 0 0 0 0 0 0 0 0 0 0 0 1 6 5 2 2
26 85 125 285 368 373 75 19 73 257 293 343 266 186 147 44 3 0 0 0 0 0 0 0 0 0 0 0 0 0 0 0 0 0 0 0 0 0 0 0 0 0 0
155 166 282 335 275 391 145 53 138 296 233 180 105 8 10 5 4 0 0 0 0 0 0 0 0 0 0 0 0 0 0 0 0 0 0 0 0 0 0 0 0 0 0
220 259 370 416 332 415 175 65 84 245 261 207 38 16 18 10 9 3 0 0 0 0 0 0 0 0 0 0 0 0 0 0 0 0 0 0 0 0 0 0 0 0 0
297 421 474 457 421 379 232 71 148 251 255 140 46 27 48 23 29 36 0 0 0 0 0 0 0 0 0 0 0 0 0 0 0 0 0 0 0 0 0 0 0 0 0
393 481 516 458 484 428 310 213 218 222 190 129 35 60 67 43 46 63 69 0 0 0 0 0 0 1 1 0 0 0 0 0 0 0 0 0 0 0 0 0 0 0 0
470 545 532 417 445 447 458 310 335 248 152 66 50 75 58 37 75 57 66 0 0 0 0 0 1 17 0 0 0 0 0 0 0 0 0 0 0 0 0 0 0 0 0
569 509 501 371 486 435 460 383 210 307 167 142 117 63 55 45 58 46 17 0 17 28 7 10 15 2 1 0 0 0 0 0 0 0 0 0 0 0 0 0 0 0 0

GFSSE_con_mucape_036.txt.gz
CAPE
802 522 897 1088 1173 1138 1031 918 813 682 537 390 250 173 167 158 154 98 77 157 191 190 36 36 213 429 16 0 46 114 108 142 97 0 0 0 0 1 0 53 247 140 225
802 438 864 980 1073 1097 976 805 645 524 430 268 186 171 179 133 140 161 210 254 306 186 183 158 186 281 5 0 39 71 9 77 0 5 0 0 0 0 0 0 14 17 180
864 454 808 889 961 946 866 712 580 487 365 259 254 179 171 221 306 263 317 364 529 508 313 254 234 242 47 59 198 110 8 0 0 0 11 0 0 2 1 0 4 0 5
983 567 248 902 906 867 693 593 511 447 334 290 267 243 323 381 382 403 401 514 713 870 629 315 348 284 172 245 260 103 9 0 0 0 2 3 0 3 4 3 1 0 0
1115 644 552 914 862 822 651 551 429 361 285 309 308 452 498 482 491 491 427 384 464 700 477 453 483 410 299 312 225 115 7 0 0 7 6 18 16 15 10 14 24 10 6
1119 873 746 754 772 746 683 536 414 289 278 264 394 549 568 590 560 547 471 416 364 360 164 278 289 223 259 172 168 34 12 0 16 4 12 19 17 14 12 21 31 23 24
1241 1150 802 645 768 786 719 556 397 297 295 338 436 481 557 642 678 610 477 425 359 260 177 116 153 228 220 204 66 4 0 0 0 0 5 7 12 5 7 6 13 35 35
1134 972 890 672 781 664 583 456 311 320 366 397 468 500 592 629 568 512 462 488 457 280 226 326 268 222 205 51 0 0 0 0 0 0 5 10 14 1 2 4 8 9 18
782 611 492 316 132 245 191 321 325 393 415 486 512 563 531 413 316 321 329 346 394 369 242 245 280 241 45 0 0 0 0 0 0 2 3 11 0 0 0 0 1 5 12
639 394 345 386 131 7 112 323 340 379 445 469 475 387 291 281 294 302 294 339 415 475 282 148 196 96 0 0 0 0 0 0 0 1 12 11 18 3 0 0 1 3 3
577 604 366 254 94 4 21 324 381 435 452 374 307 250 85 20 14 37 142 317 248 271 133 4 0 0 0 0 0 0 0 0 0 0 9 27 21 19 1 0 3 3 3
372 356 311 243 69 2 0 105 355 314 233 230 124 62 50 116 137 46 123 28 24 7 0 0 0 0 0 0 0 0 0 0 0 0 1 0 17 31 21 16 21 18 16
195 168 127 16 9 2 34 119 295 246 251 260 227 150 158 130 174 136 53 0 0 0 0 0 0 0 0 0 0 0 0 0 0 0 0 0 12 52 41 23 15 19 9
31 48 67 17 5 0 94 157 177 156 132 171 133 156 202 140 216 134 26 5 1 0 0 0 0 0 0 0 0 0 0 0 0 0 0 0 0 26 95 42 19 19 5
12 13 12 21 5 32 114 61 92 81 88 105 100 43 40 98 273 96 19 14 0 2 0 0 0 0 0 0 0 0 0 0 0 0 0 0 0 16 32 87 45 15 6
2 3 4 0 28 36 46 82 81 120 110 91 141 186 264 215 166 54 28 18 0 0 0 0 0 0 0 0 0 0 0 0 0 0 0 0 0 0 17 80 65 37 7
34 0 0 50 85 60 100 170 70 71 48 102 333 459 406 256 126 41 28 31 1 0 0 0 0 0 0 0 0 0 0 0 0 0 0 0 0 0 21 2 1 0 3
36 24 29 58 162 288 270 165 29 119 118 227 369 463 314 159 63 33 39 33 40 0 0 0 0 0 0 0 0 0 0 0 0 0 0 0 0 0 3 0 1 7 8
1 8 0 98 298 509 528 150 84 243 398 550 544 427 100 79 43 86 59 48 0 0 0 0 0 0 0 0 0 0 0 0 0 0 0 0 0 0 0 0 11 22 17
0 5 31 250 425 636 527 198 72 452 645 688 643 457 189 41 100 128 92 2 0 0 0 0 0 0 0 0 0 0 0 0 0 0 0 0 0 0 0 0 0 0 0
82 163 230 309 550 759 569 136 141 422 568 575 589 374 179 17 64 3 0 0 0 0 0 0 0 0 0 0 0 0 0 0 0 0 0 0 0 0 0 0 0 0 0
189 245 326 455 661 771 609 190 358 566 550 457 212 124 4 0 0 0 0 0 0 0 0 0 0 0 0 0 0 0 0 0 0 0 0 0 0 0 0 0 0 0 0
267 321 367 561 841 990 719 358 342 524 235 209 169 141 41 2 14 18 15 8 0 0 0 0 0 0 0 0 0 0 0 0 0 0 0 0 0 0 0 0 0 0 0
576 513 492 554 834 989 866 465 233 227 410 138 103 32 74 30 35 48 39 30 35 0 0 0 0 2 0 0 2 0 0 0 0 0 0 0 0 0 0 0 0 0 0
756 650 796 785 908 1070 990 730 565 436 582 278 43 57 43 28 49 49 45 81 103 29 0 1 18 12 0 0 0 0 0 0 0 0 0 0 0 0 0 0 0 1 3
1082 903 935 962 993 1049 853 400 402 396 505 106 83 73 72 98 84 88 70 59 27 0 2 5 16 8 3 0 0 0 0 0 0 0 0 0 0 0 0 0 6 11 9

GFSSE_con_mucape_039.txt.gz
CAPE
925 831 1322 1552 1428 1361 1261 1106 948 834 705 546 385 318 299 284 202 144 241 405 390 449 475 438 73 0 0 3 8 0 43 54 28 33 1 1 0 0 9 98 193 131 298
1005 894 1230 1502 1513 1484 1322 1127 907 715 593 457 395 383 323 192 171 319 341 356 385 394 420 273 0 0 0 0 0 1 0 11 69 73 40 0 4 1 0 0 5 16 114
989 885 1360 1366 1479 1410 1294 1051 856 717 524 456 459 356 259 273 373 455 513 557 588 558 303 175 0 0 0 0 42 3 0 0 0 32 165 0 3 12 6 15 16 2 1
986 918 1469 1220 1256 1213 1043 902 745 640 559 525 416 351 429 469 573 649 840 869 851 825 468 194 27 14 33 68 98 24 0 0 0 74 17 4 1 17 25 12 1 15 8
893 692 1230 1017 1063 1056 898 772 600 552 502 402 425 585 600 649 638 752 859 1035 1066 975 565 251 107 54 83 234 183 47 0 13 35 8 1 1 0 12 9 10 23 17 16
596 501 814 797 902 950 878 682 535 466 348 424 534 693 730 729 639 619 519 718 1035 958 559 318 115 75 201 210 132 11 0 45 83 25 10 4 1 9 5 16 18 42 43
169 609 887 780 809 963 894 655 485 483 415 579 629 693 694 694 736 644 437 456 533 594 448 209 116 148 241 153 1 0 3 55 3 25 11 3 3 3 5 3 8 10 9
1028 828 587 782 832 744 613 495 433 444 560 658 710 754 832 836 682 655 565 411 453 479 398 329 299 213 76 0 0 0 0 20 0 16 21 3 7 0 1 1 3 9 9
635 476 402 228 458 316 250 247 308 517 621 673 676 725 537 417 425 449 413 332 303 352 353 320 271 143 0 0 0 0 0 0 10 9 11 1 0 0 3 3 5 9 8
475 161 239 203 330 374 314 267 340 454 562 614 512 348 273 293 334 338 354 430 348 332 360 281 120 0 0 0 0 0 0 2 0 14 3 0 12 2 1 2 3 3 4
536 471 432 186 141 95 66 275 374 560 475 325 286 256 119 46 63 119 283 412 355 199 228 159 24 0 0 0 0 0 0 0 0 1 1 0 16 15 5 8 14 18 11
466 382 448 262 247 161 7 222 260 379 275 215 154 124 86 201 240 174 157 185 117 17 0 0 0 0 0 0 0 0 0 0 0 0 0 0 30 24 14 6 14 19 17
346 304 287 129 227 97 4 93 124 210 323 298 267 356 377 297 308 248 75 18 1 0 0 0 0 0 0 0 0 0 0 0 0 0 0 0 10 44 26 16 10 14 11
149 227 166 170 60 29 7 28 113 195 288 300 281 344 444 354 495 313 189 113 31 0 0 0 0 0 0 0 0 0 0 0 0 0 0 0 0 11 67 23 23 13 0
42 29 8 14 32 6 11 3 118 157 208 266 312 313 326 395 550 319 193 92 37 9 0 0 0 0 0 0 0 0 0 0 0 0 0 0 0 0 35 62 49 15 9
0 21 5 7 4 2 4 17 99 188 202 195 233 227 222 231 671 284 211 85 27 9 0 0 0 0 0 0 0 0 0 0 0 0 0 0 0 0 2 65 66 28 8
0 5 0 0 3 1 0 65 84 125 105 105 104 503 297 323 628 361 241 108 36 13 0 0 0 0 0 0 0 0 0 0 0 0 0 0 0 0 0 2 45 11 12
0 0 0 0 0 82 116 239 131 160 151 111 276 516 511 460 453 349 157 83 14 20 0 0 0 0 0 0 0 0 0 0 0 0 0 0 0 1 0 0 0 0 2
3 18 0 58 62 216 155 174 73 70 154 56 307 596 559 472 372 388 162 71 22 29 0 0 0 0 0 0 0 0 0 0 0 0 0 0 0 0 3 0 0 9 10
14 3 3 104 143 311 259 289 110 61 194 334 627 631 527 359 239 258 150 39 68 0 0 0 0 0 0 0 0 0 0 0 0 0 0 0 0 0 0 0 0 0 0
15 4 42 91 238 359 265 146 77 24 158 529 865 616 546 424 200 249 154 14 42 0 0 0 0 0 0 0 0 0 0 0 0 0 0 0 0 0 0 0 0 0 0
46 34 19 39 153 398 433 122 31 112 208 380 631 670 638 528 204 199 76 0 0 0 0 0 0 0 0 0 0 0 0 0 0 0 0 0 0 0 0 0 0 0 0
167 224 239 302 387 666 571 301 102 294 443 480 483 510 499 405 127 29 10 13 7 6 0 0 0 0 0 0 0 0 0 0 0 0 0 0 0 0 0 0 0 0 0
340 527 412 510 561 827 929 637 220 293 578 614 632 375 255 78 34 21 15 27 41 18 13 11 0 0 0 6 6 0 0 0 0 0 0 0 0 0 0 0 0 0 0
522 718 775 560 580 893 1152 1254 715 449 553 810 557 354 266 15 23 42 33 28 41 26 20 12 2 0 21 10 0 3 0 0 0 0 0 0 0 0 0 0 0 0 0
732 1015 1196 683 561 671 1250 1042 1009 701 741 840 663 298 70 19 39 63 72 37 50 29 72 31 0 0 4 7 5 1 5 1 0 0 0 0 0 0 0 0 0 0 5

GFSSE_con_mucape_042.txt.gz
CAPE
732 1205 1469 1510 1435 1253 1128 1005 933 846 755 617 500 450 423 337 337 533 626 672 807 515 26 0 0 0 0 0 0 0 44 9 0 0 5 0 0 0 0 93 141 81 222
743 1463 1485 1509 1557 1462 1270 1087 944 859 725 629 574 485 322 320 551 605 505 545 751 564 0 0 0 0 0 0 0 0 43 106 74 44 7 5 6 8 4 0 5 2 23
859 1692 1802 1552 1635 1531 1370 1138 980 846 756 718 589 373 314 543 576 583 559 556 758 367 4 0 0 0 0 0 0 0 14 31 42 95 8 0 12 18 16 26 24 5 8
1198 1844 1831 1582 1571 1508 1316 1110 935 827 789 692 491 411 578 696 779 859 808 718 719 482 50 0 0 0 0 28 60 55 101 108 175 52 0 0 6 43 29 16 23 21 17
1045 1667 1588 1272 1161 1286 1163 980 788 739 637 533 509 658 814 857 1077 1099 1027 892 858 615 84 37 0 0 16 72 41 29 32 53 21 0 0 0 0 8 11 31 35 40 35
574 1365 1054 965 1093 1054 1014 961 821 659 518 498 612 831 906 1044 1082 1191 1098 996 1000 723 112 53 0 3 127 35 27 44 74 91 27 0 0 0 0 6 11 17 19 25 34
869 1050 1067 863 851 1012 1107 978 791 644 602 700 778 822 806 826 773 829 948 980 973 681 250 78 45 103 107 15 10 36 44 29 0 0 0 0 0 3 5 10 9 8 22
558 875 660 727 816 715 719 794 632 684 765 837 838 796 902 737 563 619 663 664 672 443 335 289 215 119 31 0 0 0 0 57 17 0 0 0 2 2 3 6 9 12 18
352 489 206 289 560 386 383 432 525 709 781 851 922 841 635 530 436 385 470 557 505 358 311 237 164 63 0 0 0 0 0 22 14 0 0 0 12 6 6 5 6 6 10
388 303 70 77 155 162 271 395 478 516 562 549 440 357 277 320 360 317 286 380 376 346 284 211 86 0 0 0 0 0 0 0 1 0 0 0 7 5 8 4 5 7 11
377 168 79 75 23 136 328 423 566 600 397 324 276 223 117 69 41 195 296 322 346 291 258 140 0 0 0 0 0 0 0 0 0 0 0 2 7 10 10 7 9 12 15
424 409 249 184 54 98 292 319 350 294 181 203 140 111 103 125 169 212 276 211 191 201 161 22 0 0 0 0 0 0 0 0 0 0 0 0 10 18 18 13 10 12 18
417 387 293 213 126 83 2 80 57 118 90 158 148 209 162 158 160 124 114 53 9 1 0 0 0 0 0 0 0 0 0 0 0 0 0 0 3 11 7 8 18 14 17
268 312 111 195 46 33 8 43 82 90 157 146 226 272 238 287 200 92 117 98 25 0 0 0 0 0 0 0 0 0 0 0 0 0 0 0 0 7 27 15 15 13 18
145 91 77 28 44 15 14 15 38 51 126 176 228 309 331 339 424 236 116 88 4 42 0 0 0 0 0 0 0 0 0 0 0 0 0 0 0 0 36 39 26 12 16
26 26 29 43 30 27 5 2 2 2 83 167 210 263 307 376 410 327 334 253 159 35 10 0 0 0 0 0 0 0 0 0 0 0 0 0 0 0 0 64 66 26 22
6 7 9 16 21 28 8 0 1 0 64 45 99 263 297 245 534 456 252 184 127 95 45 0 0 0 0 0 0 0 0 0 0 0 0 0 0 0 8 86 58 25 16
4 0 0 1 2 3 8 3 3 1 24 19 49 324 354 363 477 445 363 201 113 20 0 0 0 0 0 0 0 0 0 0 0 0 0 0 0 0 0 0 0 0 0
0 0 0 3 3 0 0 3 0 15 222 111 67 262 546 474 379 426 304 196 74 23 0 0 0 0 0 0 0 0 0 0 0 0 0 0 0 0 0 0 0 0 0
0 0 0 0 0 0 0 23 38 143 110 75 81 328 310 430 484 463 305 124 58 25 18 0 0 0 0 0 0 0 0 0 0 0 0 0 0 0 0 0 0 0 0
0 0 0 0 0 0 16 58 102 30 79 112 352 338 505 458 388 296 254 110 68 50 11 0 0 0 0 0 0 0 0 0 0 0 0 0 0 0 0 0 0 0 0
0 0 0 0 0 45 82 3 58 14 25 136 460 597 556 444 272 253 247 98 57 24 0 0 0 0 0 0 0 0 0 0 0 0 0 0 0 0 0 0 0 0 0
0 0 0 0 21 95 140 90 31 34 15 98 260 521 503 442 283 166 210 80 19 11 2 4 1 0 0 0 0 0 0 0 0 0 0 0 0 0 0 0 0 0 0
16 0 0 0 0 121 274 392 38 0 14 255 410 320 382 498 361 116 51 6 2 13 11 12 27 2 1 2 0 4 4 0 0 0 0 0 0 0 0 0 0 0 0
110 144 99 75 157 232 308 536 368 101 302 611 459 476 283 281 255 86 17 20 33 46 36 29 27 16 10 30 0 0 0 3 0 0 0 0 0 0 0 0 0 0 0
182 236 334 321 363 416 558 610 577 331 504 509 387 336 302 155 98 50 19 29 52 76 93 78 31 54 37 1 5 8 11 2 0 0 1 0 0 0 0 0 0 0 0

GFSSE_con_mucape_045.txt.gz
CAPE
455 1123 1500 1659 1522 1396 1211 970 869 792 747 687 585 517 611 838 786 868 481 261 242 137 0 0 0 0 0 0 0 9 39 27 0 3 12 4 0 2 9 12 65 32 163
584 939 1187 1617 1641 1546 1323 1086 901 814 786 704 569 560 808 845 822 972 689 263 155 96 0 0 0 0 0 0 11 111 130 44 18 0 10 8 17 18 7 5 25 10 25
188 96 777 1508 1646 1627 1492 1193 988 944 888 688 585 712 859 765 743 905 736 178 181 103 0 0 0 0 0 0 30 84 54 20 29 5 7 11 7 24 30 18 30 21 20
1 4 736 1075 1666 1653 1309 1070 1014 1005 831 637 692 819 821 809 831 896 629 272 276 149 0 0 0 0 0 9 42 48 41 4 0 0 0 0 5 29 31 33 33 26 24
941 549 989 1246 1510 1413 1184 982 924 877 637 639 808 941 952 1014 1011 961 732 392 407 203 0 0 0 0 0 6 25 34 33 10 0 0 0 0 0 22 31 26 27 39 37
1023 805 1061 1030 1246 1258 1119 957 884 661 541 729 887 1003 1215 1257 1177 1074 858 587 523 183 0 0 0 0 8 0 18 10 10 0 0 0 0 0 0 14 15 15 33 43 46
653 280 592 532 715 844 911 974 804 666 722 870 945 1168 1326 1435 1327 1158 1002 673 451 222 18 0 0 0 0 0 19 26 9 0 0 0 0 0 0 10 14 16 26 30 25
560 518 590 488 383 615 681 626 740 756 873 878 906 953 1139 1206 1229 1224 1090 677 435 262 222 112 34 0 0 0 5 5 17 0 0 0 0 0 6 8 11 10 16 17 18
654 646 411 462 458 353 239 383 682 746 801 803 804 713 657 670 781 950 885 650 451 320 189 106 53 0 0 0 0 0 3 0 0 0 0 0 6 9 12 9 11 11 12
481 467 246 275 300 199 185 187 542 633 614 516 452 330 259 329 530 618 571 427 331 251 178 83 0 0 0 0 0 0 0 0 0 0 0 0 4 10 12 9 11 14 12
416 266 101 26 85 71 35 306 613 681 369 262 222 182 43 27 50 124 281 324 319 228 145 56 0 0 0 0 0 0 0 0 0 0 0 0 2 8 6 4 8 15 20
550 232 25 13 19 15 38 305 363 253 74 107 72 21 17 73 63 102 197 260 245 190 94 27 0 0 0 0 0 0 0 0 0 0 0 0 2 10 15 17 19 20 20
396 288 240 46 11 0 12 14 166 72 86 34 50 43 128 114 57 26 45 72 82 52 2 0 0 0 0 0 0 0 0 0 0 0 0 0 4 15 22 18 12 10 10
302 241 131 168 70 31 0 2 23 81 86 52 88 92 161 48 35 49 39 27 21 11 0 0 0 0 0 0 0 0 0 0 0 0 0 0 0 14 16 14 12 23 16
175 147 73 33 3 30 20 18 47 77 60 134 134 129 147 65 48 77 66 12 15 4 0 0 0 0 0 0 0 0 0 0 0 0 0 0 0 0 6 20 29 26 25
55 42 125 59 12 32 15 15 0 42 58 140 168 188 225 200 126 95 60 42 16 0 0 0 0 0 0 0 0 0 0 0 0 0 0 0 0 0 15 43 37 15 28
23 24 18 6 9 16 4 6 0 1 36 52 54 32 125 211 257 130 142 74 43 0 1 0 0 0 0 0 0 0 0 0 0 0 0 0 0 0 6 86 57 28 39
9 15 10 15 27 15 4 7 6 0 0 8 0 111 110 116 237 319 114 108 52 6 0 0 0 0 0 0 0 0 0 0 0 0 0 0 0 0 0 39 52 32 24
0 0 7 3 4 9 4 2 5 3 1 5 1 17 146 99 303 212 225 120 44 1 0 0 0 0 0 0 0 0 0 0 0 0 0 0 0 0 0 0 2 2 0
0 0 0 1 1 0 4 10 3 43 1 3 0 0 145 179 192 251 236 75 29 0 0 0 0 0 0 0 0 0 0 0 0 0 0 0 0 0 0 0 0 0 0
0 0 0 0 0 0 0 0 0 0 0 12 0 98 43 59 144 318 221 112 78 0 23 0 0 0 0 0 0 0 0 0 0 0 0 0 0 0 0 0 0 0 0
0 0 0 0 0 0 0 2 2 0 0 0 4 10 8 13 120 267 158 92 70 66 6 1 1 0 0 0 0 0 0 0 0 0 0 0 0 0 0 0 0 0 0
0 0 0 0 0 0 0 3 5 19 6 0 0 51 17 191 242 187 145 105 74 50 10 9 24 18 9 0 0 0 0 0 0 0 0 0 0 0 0 0 0 0 0
0 0 0 0 0 0 0 0 0 0 0 0 5 99 199 276 267 240 150 129 135 43 26 34 31 22 1 12 0 0 0 0 0 0 0 0 0 0 0 0 0 0 0
0 0 0 0 0 0 0 0 0 0 0 0 5 89 217 275 347 272 147 95 100 29 31 40 58 53 38 26 18 5 1 0 7 3 0 0 0 0 0 0 0 0 0
0 0 0 0 0 0 0 4 42 111 0 4 67 123 187 201 333 317 165 64 44 19 14 23 55 19 50 46 12 9 0 0 0 1 4 6 0 0 0 0 0 0 0

GFSSE_con_mucape_048.txt.gz
CAPE
1309 1411 1511 1653 1575 1368 1004 941 961 742 656 634 818 919 1012 700 523 477 402 298 173 39 0 0 4 1 2 1 0 5 3 7 20 30 25 13 23 30 31 18 50 34 89
1372 1307 1504 1695 1632 1300 1157 1037 923 744 680 829 1035 1078 1147 731 572 502 361 244 72 0 0 2 3 5 6 7 61 28 36 22 12 18 23 25 18 14 16 9 31 47 101
1237 1074 650 963 1225 1446 1308 1107 1032 890 746 1051 1023 1152 1261 917 616 475 334 152 8 0 0 0 0 1 6 17 33 9 7 0 2 18 7 0 9 23 29 18 25 24 28
902 948 999 906 890 1403 1276 1077 995 828 833 1101 1076 1211 1317 1101 632 535 350 139 24 0 0 0 0 0 0 4 4 35 0 0 0 0 0 1 6 21 16 22 17 16 22
260 356 411 44 305 965 1260 1119 821 652 791 958 939 1160 1345 1165 792 655 380 201 98 13 0 0 0 0 0 0 0 0 0 0 0 0 0 0 2 14 20 46 42 39 31
365 232 166 44 262 958 1175 1048 658 589 687 800 869 1139 1343 1233 891 741 478 334 189 0 0 0 0 0 3 5 19 7 0 0 0 0 0 0 0 16 38 44 40 35 29
712 205 185 92 229 618 1068 817 656 673 769 820 977 1097 1187 1267 976 782 554 352 172 8 0 0 0 14 0 8 9 0 0 0 0 0 0 0 1 15 22 18 15 16 13
601 564 559 421 339 412 517 481 607 715 903 1056 1125 1195 1252 1213 1014 803 569 369 257 168 45 0 0 19 5 0 0 0 0 0 0 0 0 0 8 8 13 14 15 16 19
465 534 545 233 369 62 64 144 641 733 930 975 1131 1189 1162 1077 985 768 603 418 250 120 53 0 0 0 18 0 0 0 0 0 0 0 0 0 7 7 10 10 13 15 18
432 419 361 223 118 15 24 30 300 617 576 502 633 664 740 812 793 623 392 318 189 127 63 0 0 0 0 0 0 0 0 0 0 0 0 0 7 7 13 16 21 18 16
450 243 232 109 33 71 60 75 153 422 365 274 390 417 375 319 236 78 170 212 184 85 65 0 0 0 0 0 0 0 0 0 0 0 0 6 6 8 11 15 19 21 18
383 159 120 93 25 11 18 15 177 287 144 71 121 129 104 95 55 86 126 143 107 77 64 12 0 0 0 0 0 0 0 0 0 0 0 8 9 15 15 19 18 24 23
340 347 229 130 57 3 0 5 70 96 44 1 2 6 12 7 36 30 19 25 38 60 23 1 0 0 0 0 0 0 0 0 0 0 0 0 4 11 14 18 24 17 10
339 291 253 135 74 5 1 0 48 25 0 0 0 8 1 0 6 7 4 3 2 0 0 0 0 0 0 0 0 0 0 0 0 0 0 0 22 13 18 17 26 20 9
249 211 206 52 98 11 6 4 57 2 0 1 19 11 0 0 4 7 0 5 10 10 1 0 0 0 0 0 0 0 0 0 0 0 0 0 15 31 19 23 21 30 20
89 100 131 45 48 23 10 16 11 0 9 11 48 20 0 6 9 4 0 3 7 16 0 0 0 0 0 0 0 0 0 0 0 0 0 0 0 0 17 10 28 41 37
69 105 155 36 36 40 23 12 16 10 6 41 77 41 16 16 28 17 17 27 24 10 3 0 0 0 0 0 0 0 0 0 0 0 0 0 0 0 0 90 67 34 53
13 32 75 23 17 11 25 16 8 10 28 43 61 83 87 102 99 104 103 71 32 29 1 0 0 0 0 0 0 0 0 0 0 0 0 0 0 0 0 87 111 40 39
6 17 2 46 8 12 20 8 15 14 7 15 18 32 48 74 159 161 119 113 69 27 0 0 0 0 0 0 0 0 0 0 0 0 0 0 0 0 0 0 6 11 26
0 0 14 17 6 17 19 4 16 10 3 0 2 1 1 70 82 168 144 94 62 26 0 0 0 0 0 0 0 0 0 0 0 0 0 0 0 0 0 0 0 0 0
0 0 0 4 1 0 4 2 1 1 0 2 4 2 3 14 70 144 126 103 47 5 0 9 0 0 0 0 0 0 0 0 0 0 0 0 0 0 0 0 0 0 0
0 0 0 0 0 0 0 5 0 0 0 3 0 0 0 0 41 94 141 94 71 3 44 19 25 11 0 0 0 0 0 0 0 0 0 0 0 0 0 0 0 0 0
0 0 0 0 0 0 0 0 0 1 3 0 0 0 0 0 0 16 51 132 68 39 27 49 48 14 13 29 20 23 0 1 0 1 0 0 0 0 0 0 0 0 0
0 0 0 0 0 0 0 0 0 0 0 0 0 0 0 5 14 18 64 109 62 60 48 62 52 30 41 38 34 8 9 28 6 0 0 0 0 0 0 0 0 0 0
0 0 0 0 0 0 0 0 0 0 0 0 0 0 2 30 31 103 139 177 127 97 40 36 10 21 41 34 20 27 42 1 3 5 0 0 1 4 2 0 0 0 0
0 0 0 0 0 0 0 0 0 0 0 0 0 0 0 46 82 115 164 206 112 91 94 36 24 23 35 37 21 24 0 0 10 0 0 0 0 0 3 3 0 0 0

GFSSE_con_mucape_051.txt.gz
CAPE
1366 1477 1508 1586 1326 1197 1023 935 1049 925 964 1054 1017 828 817 700 541 378 197 105 144 220 30 8 7 3 4 9 15 14 17 31 24 24 36 32 25 17 43 64 63 39 99
1424 1439 1421 1512 1381 1268 1145 1056 990 1077 1197 1301 1061 931 815 708 596 418 203 231 292 287 52 31 14 11 6 6 7 4 3 19 31 41 38 24 25 25 23 38 86 53 70
1435 1523 1449 1467 1475 1308 1253 1222 1044 1257 1406 1507 1170 991 922 766 562 349 210 253 420 378 78 59 48 34 17 8 9 14 10 15 30 30 22 7 4 22 18 15 31 18 22
1439 1334 1244 1445 1464 1396 1230 1118 1107 1381 1525 1560 1260 1009 871 704 470 258 183 281 418 379 46 12 4 0 0 48 21 5 0 0 0 0 0 3 6 48 42 31 18 28 21
1320 963 678 920 1137 903 1206 1175 1015 1230 1342 1457 1293 988 805 674 508 279 141 279 472 378 26 1 0 0 7 4 0 0 0 0 0 0 0 0 7 20 45 40 28 15 19
1301 1061 943 905 1100 853 702 1016 970 1266 1182 1385 1337 909 862 732 531 335 150 338 561 207 0 0 0 0 17 0 0 0 0 0 0 0 0 0 4 17 19 27 19 16 19
1193 832 592 356 718 723 563 452 668 1181 1092 1245 1145 801 812 696 589 374 178 160 128 8 0 0 0 154 37 0 0 0 0 0 0 0 0 0 3 17 16 17 16 19 21
643 281 316 265 283 538 584 348 573 970 980 874 1035 813 820 685 529 406 262 139 37 0 3 0 0 18 0 0 0 0 0 0 0 0 0 0 15 16 21 20 18 18 20
582 584 161 180 91 124 85 148 208 864 799 740 891 881 731 580 422 360 178 30 0 0 0 0 0 0 3 0 0 0 0 0 0 0 0 0 13 17 21 19 17 12 12
471 694 456 163 60 16 32 18 209 656 687 708 938 992 630 505 410 214 28 0 0 0 0 0 0 13 1 4 0 0 0 0 0 0 0 0 17 19 20 17 14 12 11
347 416 349 42 44 13 17 19 94 629 642 707 805 900 414 170 53 0 6 0 0 0 0 0 0 4 10 0 0 0 0 0 0 0 0 25 17 16 13 15 16 11 11
347 331 136 51 100 7 7 7 52 139 364 493 535 549 177 18 0 0 0 0 0 0 0 0 0 0 0 0 0 0 0 0 0 0 0 17 13 11 12 20 28 27 16
307 220 110 53 17 16 0 0 0 8 98 293 392 316 101 0 0 0 0 0 0 0 0 0 0 0 0 0 0 0 0 0 0 0 0 15 5 17 29 36 31 32 18
167 125 78 49 52 65 18 0 1 28 14 126 225 213 38 0 0 0 0 0 0 0 0 0 0 0 0 0 0 0 0 0 0 0 0 0 21 20 34 42 36 24 16
69 172 116 148 154 74 9 0 0 12 1 111 169 58 0 0 0 0 0 0 0 0 0 0 0 0 0 0 0 0 0 0 0 0 0 0 19 26 20 33 37 24 11
80 31 75 97 131 55 17 16 5 0 45 33 5 2 0 0 0 0 0 2 0 0 0 0 0 0 0 0 0 0 0 0 0 0 0 0 0 17 20 22 35 38 14
78 63 30 30 47 54 13 1 26 1 0 5 0 0 0 0 0 0 1 1 12 14 3 1 0 0 0 0 0 0 0 0 0 0 0 0 0 0 0 36 31 29 18
13 33 48 26 64 95 43 21 62 2 3 40 2 1 1 1 0 0 0 2 28 37 11 8 0 0 0 0 0 0 0 0 0 0 0 0 0 0 0 0 96 41 51
3 16 34 15 50 20 45 20 8 25 30 67 26 14 26 33 27 22 61 54 71 78 31 5 0 0 0 0 0 0 0 0 0 0 0 0 0 0 0 0 3 47 94
0 1 15 2 18 20 52 12 23 15 66 82 41 47 53 61 88 94 114 142 96 93 54 31 12 0 0 0 0 0 0 0 0 0 0 0 0 0 0 0 0 0 31
3 3 8 0 11 11 12 14 14 1 80 74 62 63 50 68 112 190 184 119 139 121 48 18 22 0 0 0 0 0 0 0 0 0 0 0 0 0 0 0 0 0 0
0 0 0 0 1 0 1 7 12 52 21 58 40 1 3 29 11 95 166 202 195 133 66 53 18 0 0 0 0 1 0 0 0 0 0 1 0 0 0 0 0 0 0
0 0 0 0 0 0 0 2 8 32 49 0 23 3 15 5 5 12 130 160 139 87 71 49 33 18 10 32 19 3 0 0 0 2 0 2 3 0 0 0 1 0 0
0 0 0 0 0 0 0 1 0 0 0 0 0 1 5 4 1 0 1 35 115 163 107 85 49 41 32 39 15 7 14 9 0 8 0 0 0 0 0 11 11 1 0
0 0 0 0 0 0 0 0 0 0 0 0 0 0 0 0 0 0 0 8 9 109 70 60 46 38 44 48 27 30 35 6 11 1 0 0 9 0 0 4 10 3 10
0 0 0 0 0 0 0 0 0 0 0 0 0 0 0 0 0 0 5 58 67 75 84 76 31 36 46 34 19 29 17 19 26 9 8 0 1 13 9 10 8 9 4

GFSSE_con_mucape_057.txt.gz
CAPE
1065 1227 1211 1165 1570 1568 1748 1651 1504 1426 1384 1313 1184 1140 1202 1224 1246 1097 979 818 712 612 185 85 81 57 39 66 44 41 164 230 195 194 198 70 64 72 67 141 84 55 178
1085 1132 1140 1402 1488 1600 1776 1814 1575 1537 1591 1375 1262 1264 1211 1063 1022 881 733 664 517 372 45 50 34 31 22 28 22 66 59 36 32 94 111 40 29 24 34 20 74 34 52
981 562 1053 1495 1426 1575 1734 1809 1718 1696 1632 1456 1409 1297 1060 838 710 563 443 378 341 230 24 23 23 27 35 23 64 49 22 16 15 17 35 16 7 13 7 4 22 12 15
1061 967 1259 1528 1526 1697 1676 1735 1724 1764 1615 1586 1429 1156 871 821 758 632 455 370 344 278 15 21 19 21 23 46 55 31 9 16 19 22 5 5 23 20 11 2 5 8 5
1572 1437 1402 1564 1538 1724 1719 1692 1650 1589 1503 1370 1228 1023 855 872 859 766 608 548 448 456 224 32 12 15 28 58 12 4 3 10 18 9 19 26 11 25 22 31 17 24 23
1516 1555 1489 1383 1364 1673 1771 1811 1640 1477 1274 1113 1065 887 944 954 947 776 604 609 643 605 176 14 6 8 21 4 0 0 4 8 4 6 17 18 14 29 28 24 18 12 15
1387 1324 1587 1251 1313 1639 1773 1872 1550 1374 1152 1025 890 746 818 944 825 657 541 467 429 522 470 71 1 2 2 0 0 0 0 0 3 3 5 14 25 29 29 25 20 20 19
1034 786 996 1264 1390 1313 1339 1749 1385 1219 1083 949 707 641 784 620 527 507 443 239 234 381 374 126 0 0 0 0 0 0 0 0 0 4 9 21 38 29 20 17 17 16 17
1021 700 371 295 823 662 827 1174 1166 991 989 826 539 456 457 343 410 414 175 208 334 307 294 77 0 0 0 0 0 0 0 0 0 2 5 15 24 22 17 17 17 15 11
767 495 444 256 96 52 185 233 405 582 669 676 462 329 212 254 244 157 93 246 516 423 230 35 0 0 0 0 0 0 0 0 0 2 6 16 26 21 22 17 17 13 10
465 291 162 169 56 38 18 16 98 342 309 557 487 283 154 222 61 0 2 136 290 201 78 50 0 0 0 0 0 0 0 0 0 5 6 30 25 22 22 17 13 9 8
289 194 90 144 76 97 74 44 19 35 159 268 469 405 175 79 0 0 1 21 65 115 105 64 12 1 0 0 0 0 0 0 0 6 10 32 26 18 16 15 11 8 8
186 103 48 0 27 66 64 43 32 11 11 108 402 228 111 34 21 4 0 0 29 58 70 36 3 0 0 0 0 0 0 0 1 3 10 31 28 20 14 14 12 8 5
182 105 51 15 6 17 24 15 25 13 6 90 355 185 87 27 0 0 0 0 0 0 9 32 0 0 0 0 0 0 0 0 0 4 9 21 34 20 35 24 17 10 5
106 75 83 84 5 2 45 13 27 16 46 37 269 175 51 12 3 0 0 0 0 0 0 0 0 0 0 0 0 0 0 0 0 2 7 15 26 35 27 29 26 15 14
33 96 97 2 5 5 28 0 5 26 45 59 149 127 66 26 29 0 0 0 0 0 0 0 0 0 0 0 0 0 0 0 0 1 4 9 5 24 35 26 32 28 23
37 9 1 21 13 29 14 5 0 3 30 58 146 138 80 85 49 24 0 0 0 0 0 0 0 0 0 0 0 0 0 0 0 0 0 1 0 0 12 44 47 35 39
13 34 11 40 34 16 34 9 2 3 13 43 79 103 48 32 69 66 2 2 0 3 0 0 0 0 0 0 0 0 0 0 0 0 0 0 0 0 0 3 56 88 38
7 7 4 3 27 7 11 41 2 4 4 31 18 51 46 5 29 45 22 24 7 27 20 25 20 2 0 0 0 0 0 0 0 0 0 0 0 0 0 0 5 73 105
3 14 23 31 7 20 15 32 14 12 5 5 3 30 38 26 39 65 45 35 27 47 40 60 36 6 0 0 0 0 0 0 0 0 0 0 0 0 0 0 0 39 51
0 0 19 38 6 39 14 23 5 3 2 31 29 37 31 66 52 59 92 52 38 56 54 82 71 58 32 23 4 0 0 0 0 0 0 0 0 0 0 0 0 3 51
0 4 0 46 17 18 10 11 6 6 0 31 63 61 57 85 72 132 107 108 74 70 56 66 68 55 37 45 23 0 0 0 0 0 0 0 0 1 10 0 0 0 1
0 14 0 0 2 0 8 7 7 5 0 8 57 73 80 119 165 135 148 168 135 87 100 63 51 63 62 49 36 0 0 0 12 4 8 1 8 0 9 16 4 3 3
3 13 0 0 0 0 3 20 6 9 13 0 4 31 15 67 95 132 112 83 82 63 72 65 89 84 59 68 65 56 28 16 26 9 4 14 21 14 1 1 8 5 9
0 0 0 0 0 4 8 5 22 1 0 0 3 35 10 69 68 27 35 72 121 103 119 88 75 89 62 44 44 54 24 23 0 25 9 21 18 29 19 6 0 4 2
0 0 0 0 0 0 0 1 2 6 7 0 3 0 47 41 25 15 5 12 60 174 166 149 101 74 61 56 46 48 22 41 12 38 48 15 15 7 1 1 1 2 1

GFSSE_con_mucape_060.txt.gz
CAPE
1341 1452 1298 1572 1846 1909 1713 1521 1438 1500 1388 1315 1145 1243 1260 1273 1259 1019 936 829 724 784 469 302 241 283 271 235 171 153 323 334 348 307 294 242 130 162 99 291 219 138 247
1377 1421 1219 1551 1916 2009 1783 1646 1669 1586 1551 1464 1342 1417 1398 1360 1295 1215 1019 829 609 628 196 87 69 158 71 34 80 161 262 231 144 177 215 77 80 85 63 51 194 57 64
1306 1504 1164 1402 1842 2054 1918 1854 1819 1775 1699 1498 1557 1512 1529 1435 1322 1071 800 624 602 612 106 19 12 28 21 8 39 17 4 8 71 48 69 37 17 15 12 9 35 21 19
1518 1615 1242 1498 1753 2097 2045 1955 1882 1921 1753 1611 1636 1511 1508 1269 1059 833 554 404 414 357 28 21 16 13 17 41 16 14 8 5 0 23 10 21 15 15 14 9 11 12 10
1559 1266 1240 1482 1514 2000 1993 1994 1898 1824 1663 1617 1500 1388 1302 1128 903 669 344 199 252 159 12 13 18 25 24 40 0 13 6 2 5 6 1 7 4 26 18 10 11 11 12
1456 1234 1253 1484 1540 1951 2051 2071 1930 1703 1533 1481 1288 1342 1319 1175 904 643 301 337 492 273 9 14 20 21 23 17 13 10 0 0 8 0 0 7 8 21 13 10 12 13 12
1346 1807 1361 1358 1237 1625 2100 2119 1909 1689 1509 1287 1231 1249 1231 1195 1041 617 458 432 519 206 62 12 15 15 16 1 0 0 0 1 1 0 4 9 21 22 21 21 18 19 14
1360 1088 1473 1139 1044 1495 1717 1751 1624 1469 1377 1170 1179 1185 1220 1104 875 728 635 587 484 234 94 43 36 5 0 0 0 0 0 0 0 1 4 12 34 22 21 21 18 14 12
1199 923 823 595 300 513 738 1205 894 1232 1190 1072 1073 1084 1008 817 704 594 551 612 488 176 114 47 5 0 0 0 0 0 0 7 0 1 0 11 23 21 22 16 13 11 11
970 821 727 605 360 229 110 369 588 683 894 851 964 892 612 587 521 260 226 410 405 191 65 72 0 0 0 0 0 0 0 0 2 1 7 12 27 20 15 14 12 13 14
1071 830 831 427 314 181 146 181 639 792 669 616 861 640 546 513 268 96 83 299 326 89 54 72 0 0 0 0 0 0 0 0 7 4 2 29 22 19 15 16 12 12 8
587 367 396 196 218 126 95 117 141 318 408 524 589 747 423 533 233 8 187 285 181 96 98 59 0 0 0 0 0 0 0 3 11 9 6 33 18 21 18 19 12 11 7
387 248 166 196 72 119 97 62 95 66 67 100 168 421 473 372 130 87 285 305 220 47 11 0 0 0 0 0 0 0 0 1 13 7 8 35 25 23 22 18 18 12 4
137 234 55 151 28 68 87 10 30 52 83 82 65 166 282 133 151 137 168 159 125 62 53 6 1 8 0 0 0 0 0 0 8 9 11 34 40 21 19 11 11 9 5
86 106 51 28 27 0 19 38 43 26 51 74 42 154 252 191 139 53 82 106 125 171 155 51 34 21 0 0 0 0 0 0 3 6 12 23 39 43 25 24 11 5 11
74 65 41 86 89 3 35 71 71 6 8 14 60 223 247 175 133 54 40 1 11 90 122 40 22 19 0 0 0 0 0 0 1 5 6 14 26 54 68 38 26 18 16
36 42 29 45 2 1 6 8 3 2 9 13 66 230 211 156 145 90 27 20 5 17 13 8 8 9 3 1 0 0 0 0 0 0 8 12 7 12 39 83 49 23 23
22 4 5 0 20 1 3 4 0 3 14 84 118 181 155 136 117 89 40 29 8 0 0 5 3 9 3 0 0 0 0 0 0 0 0 4 12 6 2 44 68 74 40
1 46 1 0 13 10 13 1 0 4 40 53 101 140 135 101 106 82 50 97 50 0 0 0 0 0 0 0 0 0 0 0 0 0 0 0 0 1 5 0 12 43 60
18 3 5 1 25 17 12 19 2 8 5 8 43 171 121 90 108 76 58 118 84 28 22 10 0 0 0 0 0 0 0 0 0 0 0 0 0 0 0 1 0 9 33
8 11 2 23 7 22 17 19 9 2 0 0 40 69 131 108 142 138 119 132 108 99 94 76 32 17 0 0 0 0 0 0 0 0 0 0 0 0 0 0 0 2 12
13 23 1 10 32 7 53 3 2 9 4 0 30 40 108 150 132 134 150 119 106 147 156 130 94 71 29 15 10 13 6 0 2 0 0 0 0 0 0 0 0 1 0
6 3 26 2 4 10 12 1 4 2 1 0 6 0 56 153 198 118 139 174 167 153 196 207 169 160 133 63 54 130 151 105 106 0 1 0 6 1 2 0 3 2 0
1 11 22 0 32 0 0 0 4 0 0 0 0 34 87 124 162 157 131 192 251 236 203 269 268 242 266 235 43 64 74 73 109 61 1 19 17 19 14 10 0 0 0
0 7 11 0 0 0 0 0 2 0 1 2 1 0 98 79 114 146 167 231 286 285 261 293 244 217 245 264 196 147 37 25 13 4 39 8 2 15 23 11 0 0 0
0 1 8 0 0 0 0 0 1 6 0 0 0 1 1 36 83 106 142 246 279 208 119 54 156 296 306 238 210 190 102 13 0 0 13 10 0 0 25 10 0 0 0

GFSSE_con_mucape_063.txt.gz
CAPE
993 1598 1444 1598 1967 1757 1626 1491 1464 1509 1478 1257 1160 1195 1408 1265 1142 1051 945 893 918 982 715 594 502 444 378 270 181 453 412 374 337 405 409 325 240 219 264 431 308 145 452
1570 1748 1415 1704 2123 1981 1847 1638 1609 1673 1530 1499 1355 1321 1421 1335 1229 1120 1160 1044 1048 1048 615 526 434 371 277 181 346 443 386 240 265 322 358 181 127 115 80 164 227 51 83
1651 1765 1303 1501 1924 2173 1962 1798 1797 1799 1724 1560 1542 1528 1653 1469 1399 1337 1015 914 986 861 383 375 248 101 42 39 252 222 170 196 273 168 90 17 18 23 32 12 20 11 16
1627 1605 1347 1421 1810 1887 1797 1765 1865 1930 1813 1681 1778 1815 1744 1673 1455 1154 940 887 918 683 103 159 121 33 5 27 15 27 59 94 152 231 18 24 22 18 16 18 16 14 16
1691 1723 1484 1459 1614 1897 1822 1921 1861 1900 1688 1750 1787 1903 1843 1652 1378 1083 797 722 767 490 19 30 54 23 2 0 0 0 0 0 9 37 4 13 24 14 12 14 11 9 15
1672 1764 1475 1329 1492 1770 1758 1823 1575 1732 1586 1654 1757 1842 1738 1522 1262 952 698 649 561 301 55 18 28 8 0 0 0 0 0 0 11 4 5 17 12 18 12 6 7 7 7
1604 1954 1373 1117 1404 1743 1790 1450 1419 1420 1559 1560 1625 1528 1450 1267 997 655 436 339 300 200 158 36 20 0 0 0 0 0 0 1 1 0 3 4 13 15 11 9 10 8 10
1430 1672 1752 1309 1060 1068 1208 1091 790 1051 1409 1365 1440 1341 1356 1020 772 647 658 394 190 119 104 89 12 0 0 0 0 0 0 11 6 3 2 4 24 11 14 10 10 11 10
1253 1360 1575 1624 602 285 149 28 346 1049 1138 1236 1250 1191 1092 854 713 773 672 356 190 131 117 51 5 0 0 0 0 0 0 15 5 4 1 6 16 15 17 16 11 10 11
1135 846 1175 922 384 373 286 176 69 197 848 1035 1096 991 835 817 957 847 453 305 254 165 100 30 2 0 0 0 0 0 0 0 4 1 1 4 22 15 17 12 9 8 9
1112 1030 1070 471 305 157 158 42 85 129 264 703 944 762 800 582 702 545 270 245 161 70 47 7 0 0 0 0 0 0 0 7 9 3 1 26 19 21 16 16 13 11 12
545 1041 783 568 445 262 152 121 40 35 276 666 1112 897 427 746 813 316 307 180 99 35 0 0 0 0 0 0 0 0 7 19 17 6 6 32 27 23 20 14 14 12 9
524 399 569 496 541 258 98 131 169 62 208 851 687 693 474 751 509 382 585 219 109 0 0 0 0 0 0 0 0 5 6 21 17 6 12 37 22 18 17 17 10 7 4
238 127 238 193 169 139 206 32 23 55 76 165 242 190 162 303 251 294 335 180 12 0 0 0 0 16 0 0 3 0 11 25 18 4 16 38 37 22 21 17 11 6 3
123 84 86 168 111 122 138 115 97 34 12 31 59 57 91 167 282 251 331 266 68 107 32 0 18 3 1 1 1 4 11 28 17 5 15 34 39 37 12 16 17 12 7
62 73 43 1 38 30 45 61 99 38 39 25 15 32 51 169 203 261 298 278 206 209 132 40 50 12 2 1 0 2 5 10 21 13 10 24 32 52 35 12 13 17 10
110 57 1 1 47 18 1 2 10 8 21 15 2 14 52 162 238 309 334 397 309 264 241 147 39 17 2 0 0 0 1 6 10 24 4 9 11 21 36 49 24 13 20
114 29 0 0 14 28 1 1 19 44 23 8 25 52 10 170 206 271 237 232 194 239 160 82 20 14 7 0 0 0 0 1 2 6 25 17 2 11 1 40 51 45 35
68 214 15 0 0 1 0 0 3 3 13 8 12 56 95 195 180 217 180 220 218 139 169 117 104 69 32 2 0 0 0 0 0 0 1 1 19 14 7 4 9 34 53
116 56 10 12 0 5 2 3 1 0 5 4 11 84 148 108 140 162 167 207 90 73 55 101 108 47 24 0 0 0 0 0 0 0 0 0 0 0 3 43 3 9 13
74 37 6 6 0 10 26 0 1 0 0 0 26 57 140 68 144 183 192 261 264 128 97 213 78 54 0 0 0 0 0 0 0 0 0 0 0 0 0 0 21 0 0
39 10 17 2 7 19 20 25 3 13 0 1 11 58 107 137 208 258 270 266 269 247 288 237 240 81 24 6 0 0 0 0 0 0 0 0 0 0 0 0 0 0 28
49 8 11 8 7 45 7 14 4 3 1 1 0 0 50 85 172 224 309 280 255 340 297 327 363 294 155 60 51 90 85 54 89 7 0 0 0 0 5 4 0 0 0
8 8 35 30 1 0 0 0 0 0 0 0 0 0 2 25 155 154 138 153 295 250 270 327 302 293 309 212 99 40 213 204 206 98 13 17 0 15 14 13 8 1 0
21 14 7 22 14 0 0 3 1 19 1 13 3 2 0 1 75 75 112 93 158 331 279 394 390 383 351 260 325 221 122 170 249 165 186 1 10 22 29 14 18 0 3
11 25 10 9 19 13 0 0 0 0 0 0 0 0 0 1 44 125 115 101 96 180 232 287 312 394 342 327 315 358 304 172 105 71 37 177 59 0 0 0 0 3 2

GFSSE_con_mucape_069.txt.gz
CAPE
1221 1585 1527 1540 1562 1606 1497 1450 1407 1224 1313 1503 1497 1377 1301 1227 1123 955 862 761 652 748 751 718 784 668 673 678 704 824 695 596 570 706 686 663 314 336 260 416 388 186 644
1544 1552 1761 1641 1649 1738 1703 1601 1531 1322 1522 1639 1605 1417 1278 1175 1091 1018 939 829 882 992 758 604 602 373 357 511 705 600 531 450 406 455 522 291 248 244 163 132 295 200 385
1657 1457 1836 1839 1696 1765 1814 1781 1739 1536 1665 1757 1674 1499 1292 1257 1208 1030 1067 1325 1338 1282 874 184 225 319 477 705 543 473 403 204 128 114 102 15 46 150 117 62 84 62 55
1757 1608 1608 2028 1852 1834 1816 1794 1815 1767 1778 1831 1735 1567 1456 1469 1516 1500 1353 1249 1278 1160 841 479 338 256 520 498 426 370 162 58 23 29 12 23 47 105 67 36 27 22 18
1186 1676 1495 1842 1976 1913 1845 1801 1793 1763 1657 1767 1675 1625 1614 1716 1733 1531 1293 1083 1209 1179 807 484 313 352 386 334 386 165 112 29 0 0 6 7 9 51 32 26 20 22 18
1064 1454 1622 1527 2088 2027 1906 1835 1827 1735 1498 1609 1651 1678 1814 1846 1733 1408 1152 1155 1229 1196 597 353 251 236 51 35 46 44 42 17 0 0 4 14 6 22 16 2 5 5 5
1135 1487 1586 1481 1927 1960 1718 1898 1586 1576 1478 1574 1633 1643 1632 1740 1574 1232 1006 1032 1077 954 661 283 158 26 0 17 17 8 16 0 0 0 1 5 15 16 10 16 12 11 7
1620 1564 1411 1318 1516 1513 1595 1436 1106 842 1007 1076 1159 1273 934 1361 1178 1021 852 848 806 503 274 187 52 23 14 2 0 0 0 0 0 0 0 3 25 19 28 21 20 16 17
1315 1302 1440 1312 1109 1036 970 880 519 378 311 288 587 479 761 898 866 867 730 592 520 321 161 72 24 3 0 0 0 0 0 0 0 0 3 3 25 23 20 14 13 13 11
1080 1055 1014 1272 1138 771 617 528 332 167 168 17 30 330 511 679 636 657 557 490 329 183 68 54 3 0 0 0 0 0 0 0 0 0 4 11 27 20 18 14 14 15 14
861 858 663 951 984 956 657 323 217 168 140 29 9 5 359 421 340 312 253 285 181 63 53 38 0 0 0 0 0 0 0 0 0 0 3 34 23 20 18 14 14 10 10
776 908 759 596 370 404 291 187 86 36 42 3 0 23 163 251 115 156 158 139 75 31 15 0 0 0 0 0 0 0 0 0 0 0 2 31 22 18 14 13 9 8 6
651 785 681 371 191 137 83 50 11 18 8 0 0 6 199 138 80 60 27 19 1 3 0 0 0 0 0 0 0 0 0 0 0 0 5 27 22 16 14 11 8 8 7
533 433 356 270 96 49 50 10 0 0 1 0 0 39 190 104 63 4 2 1 0 0 0 0 0 0 0 0 0 1 0 0 0 0 2 19 25 18 15 15 7 8 6
211 245 167 45 161 164 0 0 4 1 2 2 17 57 133 85 23 0 0 0 0 0 0 0 0 0 0 0 0 0 0 0 0 0 0 15 23 27 12 13 7 5 3
102 84 42 13 132 0 0 0 0 0 1 31 79 92 91 90 28 0 0 0 0 0 0 0 0 0 0 0 0 8 7 0 0 0 0 3 14 24 18 8 6 4 3
80 21 7 11 2 3 0 0 6 1 12 39 67 73 56 64 44 0 0 0 0 0 0 0 0 0 0 0 0 5 4 2 0 0 0 0 0 6 12 15 10 6 4
25 13 51 32 7 0 1 2 0 0 0 44 57 37 55 56 38 3 0 0 0 0 0 0 0 0 0 0 4 7 8 2 0 0 0 0 0 0 0 5 10 10 6
11 4 14 36 0 0 0 5 0 0 9 18 7 2 18 29 26 15 2 0 14 0 0 0 0 0 0 0 0 0 4 0 0 0 0 0 0 0 0 0 2 1 14
8 0 0 15 11 0 0 1 6 0 4 40 22 20 12 25 16 17 42 32 77 7 18 4 3 9 0 0 0 0 0 0 0 0 0 0 0 0 0 0 0 0 0
4 0 3 6 3 1 0 0 0 10 0 17 31 9 3 3 3 32 32 38 71 60 59 66 41 24 0 0 0 0 0 0 0 0 0 0 0 0 0 0 0 0 0
0 0 1 13 12 8 0 0 3 5 0 0 5 10 4 11 3 19 27 36 34 50 59 49 36 20 10 9 3 5 0 4 3 0 0 0 0 0 0 0 0 0 0
0 0 0 1 8 8 1 0 1 1 0 0 0 13 4 8 8 14 12 6 9 18 9 1 47 9 7 6 8 16 0 0 4 0 0 0 0 0 0 0 0 0 0
10 0 0 0 4 4 5 3 0 0 0 0 4 10 14 5 9 28 2 3 15 3 3 61 63 24 15 5 1 5 9 16 0 0 0 0 0 0 0 0 0 0 0
4 0 14 0 4 3 1 5 0 0 0 0 2 11 15 2 6 4 15 19 4 29 54 57 72 47 25 0 0 0 0 11 57 33 20 23 3 3 1 0 0 0 0
13 13 6 5 0 2 11 2 1 0 0 0 0 0 4 10 5 1 3 40 44 32 102 76 70 66 77 68 43 20 9 5 7 47 38 17 6 10 7 0 0 0 0

GFSSE_con_mucape_072.txt.gz
CAPE
1495 1381 1485 1553 1580 1534 1477 1362 1273 1459 1521 1516 1513 1468 1450 1408 1296 1160 1101 1064 1086 1311 1051 873 1151 1075 1049 797 928 1020 936 848 797 777 677 578 476 342 352 495 417 188 657
1348 1549 1492 1609 1701 1688 1653 1500 1398 1608 1669 1632 1565 1506 1407 1317 1216 1089 1040 1071 1200 1366 888 914 1177 882 786 747 903 811 774 659 578 640 634 418 328 330 244 244 391 309 478
1497 1697 1557 1591 1739 1768 1788 1687 1581 1818 1822 1700 1599 1475 1421 1307 1246 1067 941 1040 1274 1327 899 641 726 728 740 728 691 673 592 510 380 360 241 23 56 189 185 161 327 177 192
1416 1708 1704 1608 1728 1831 1816 1770 1629 1851 1828 1761 1595 1474 1448 1382 1255 1404 1273 1122 1248 1299 821 630 814 669 766 660 464 395 310 227 114 111 2 18 62 165 117 92 74 49 34
1522 1594 1841 1620 1688 1862 1831 1792 1630 1764 1820 1734 1558 1567 1561 1462 1686 1732 1491 1392 1291 975 771 524 683 660 677 479 257 167 64 18 6 0 13 26 29 65 57 38 25 13 13
1440 1340 1717 1777 1720 1860 1866 1863 1699 1680 1623 1576 1527 1643 1776 1836 1868 1667 1395 1352 1363 1213 1026 816 760 762 461 299 179 45 0 0 0 5 8 20 15 42 26 18 19 22 19
1154 1390 1561 1894 1800 1876 1976 1918 1696 1574 1556 1544 1554 1601 1770 1872 1802 1440 1306 1229 1164 1058 958 869 706 358 170 40 6 2 0 0 0 3 5 10 7 28 8 13 6 6 11
1167 1428 1554 1574 1918 1940 1821 1500 1326 1375 1406 1325 1436 1605 1676 1574 1418 1383 1256 1010 965 790 670 614 207 91 19 0 6 0 0 0 0 0 2 5 26 16 17 19 7 15 14
1394 1312 1265 1235 1494 1709 1723 1348 1067 808 288 353 316 643 343 677 767 1098 1149 1046 729 577 507 278 94 21 11 0 0 0 0 0 0 0 2 6 15 9 24 17 21 15 15
1157 1107 1267 1174 1058 1069 1004 1041 856 516 285 193 156 65 66 280 502 799 871 727 534 412 304 181 53 18 3 0 0 0 0 0 0 0 0 10 17 12 26 24 18 17 15
743 669 780 1094 843 1058 771 698 614 360 303 205 125 32 29 195 319 508 368 410 354 185 120 77 19 6 0 0 0 0 0 0 0 0 2 29 15 24 28 23 20 20 16
534 517 487 743 811 642 1225 546 322 139 154 79 12 0 0 1 208 231 261 225 172 88 64 37 1 0 0 0 0 0 0 0 0 0 1 26 17 25 21 20 21 14 14
623 715 595 550 421 598 434 583 483 126 95 30 16 1 1 0 126 170 124 45 42 65 23 0 0 0 0 0 0 0 0 0 0 0 7 24 31 16 19 19 15 14 10
642 679 655 452 195 97 67 71 49 0 0 8 9 2 0 25 115 64 24 1 4 1 0 0 0 0 0 0 0 0 0 0 0 0 5 25 28 17 18 14 11 11 7
558 379 491 369 212 94 36 0 0 0 0 2 0 0 38 69 33 11 0 0 0 0 0 0 0 0 0 0 0 0 0 0 0 0 0 14 21 16 10 11 8 9 8
142 188 263 240 282 68 49 0 2 3 3 1 0 0 10 31 0 1 0 0 0 0 0 0 0 0 0 0 0 0 0 0 0 0 0 0 10 16 19 9 8 6 6
43 87 164 199 59 37 0 0 1 0 0 1 0 3 75 37 9 0 0 0 0 0 0 0 0 0 0 0 0 0 0 0 0 0 0 0 0 4 8 18 14 7 4
4 75 80 52 0 0 0 0 0 0 4 12 9 2 5 52 7 0 0 0 0 0 0 0 0 0 0 0 0 0 0 0 0 0 0 0 0 0 0 10 15 10 4
0 22 64 27 1 2 5 1 2 5 12 34 18 46 14 11 5 0 0 0 0 0 0 0 0 0 0 0 0 0 0 0 0 0 0 0 0 0 0 0 0 3 5
0 1 1 2 2 0 0 7 0 4 25 17 27 38 56 38 45 0 0 0 0 0 0 0 0 0 0 0 0 0 0 0 0 0 0 0 0 0 0 0 0 0 0
0 0 0 1 0 0 0 0 2 0 0 11 24 24 16 28 45 13 0 0 0 0 0 0 0 0 0 0 1 0 3 2 0 0 0 0 0 0 0 0 0 0 0
47 0 0 0 2 1 3 0 7 0 9 13 20 33 52 58 45 38 3 6 14 0 0 10 4 0 1 0 0 0 3 15 43 22 1 0 0 0 0 0 0 0 0
60 8 0 0 0 3 5 0 0 24 2 0 21 36 8 27 26 9 4 9 67 37 21 45 27 16 15 4 2 2 2 3 16 36 36 12 4 0 0 0 0 0 0
65 15 0 0 0 4 4 0 0 0 1 1 27 30 20 10 15 7 4 13 64 70 51 58 66 49 19 0 4 10 1 4 0 2 35 21 15 5 6 1 0 2 1
57 23 0 0 0 0 4 0 0 0 0 9 0 17 22 1 7 25 10 41 44 53 63 52 63 47 26 25 2 3 7 0 0 0 0 0 0 0 0 0 0 4 6
63 26 0 0 0 0 1 0 0 0 0 0 2 0 3 6 17 9 23 19 37 31 49 42 30 14 20 59 41 23 2 0 5 45 28 17 15 9 12 11 1 0 0

GFSSE_con_mucape_075.txt.gz
CAPE
1044 1160 1374 1534 1522 1430 1246 1356 1356 1436 1553 1677 1746 1726 1631 1554 1466 1350 1214 1298 1354 1353 1171 1075 1473 1363 957 948 813 836 988 818 858 750 777 747 529 470 526 612 572 336 775
1066 1221 1348 1572 1625 1482 1387 1454 1505 1559 1722 1754 1757 1728 1656 1580 1494 1362 1355 1480 1520 1445 1012 1040 1510 1258 1016 938 1068 1028 923 792 713 735 683 569 574 488 395 446 622 433 643
1295 1325 1324 1503 1715 1721 1575 1569 1713 1773 1793 1852 1753 1690 1643 1553 1478 1415 1401 1499 1508 1486 1173 1009 1140 1059 881 1004 935 870 787 650 598 564 364 422 389 382 427 358 560 537 408
1387 1347 1353 1540 1699 1830 1743 1646 1833 1917 1897 1852 1786 1670 1618 1515 1446 1427 1391 1427 1426 1495 1338 1202 1143 974 895 893 735 674 601 464 335 223 40 61 86 274 288 209 237 189 266
1520 1440 1363 1556 1653 1820 1843 1716 1865 1864 1846 1760 1720 1712 1646 1557 1419 1429 1446 1413 1456 1439 1364 1175 1105 838 808 545 449 396 270 134 58 15 6 16 45 142 143 91 38 22 27
1356 1592 1495 1475 1599 1847 1908 1771 1854 1847 1666 1593 1619 1711 1686 1596 1685 1552 1389 1457 1414 1108 1360 1287 1043 802 516 283 142 82 25 6 0 0 1 34 28 85 33 14 16 11 15
1317 1460 1682 1417 1524 1843 1995 1891 1793 1794 1670 1530 1571 1549 1528 1803 1822 1632 1395 1302 1177 1232 1251 1133 804 626 392 135 37 0 0 0 0 0 6 11 11 37 23 16 14 5 12
1283 1173 1386 1688 1525 1778 1905 1764 1357 1581 1619 1554 1554 1545 1531 1704 1445 1548 1454 1249 1045 886 849 694 496 412 167 42 2 0 0 0 0 1 2 13 28 38 35 23 9 7 16
1130 1262 1364 1680 1956 1769 1792 1660 1235 1067 989 917 665 359 380 637 794 1054 1053 918 912 853 641 413 305 42 86 11 0 0 0 0 0 0 2 7 22 25 22 20 10 5 7
1122 1262 1354 1303 1480 1517 1856 1540 1187 889 527 308 109 24 4 270 367 381 586 748 599 725 426 268 58 42 60 2 0 0 0 0 0 0 1 4 26 9 19 6 8 7 19
1134 1139 1130 1085 1057 1062 1231 1274 1119 773 468 182 178 132 71 149 200 222 472 566 407 366 254 122 12 4 6 0 0 0 0 0 0 0 4 40 27 22 20 19 11 9 9
863 733 698 865 945 721 426 1039 958 764 463 332 96 58 41 118 116 143 246 322 253 220 153 47 3 4 0 0 0 0 0 0 0 0 4 40 16 21 18 10 16 8 7
473 381 500 462 680 485 307 595 698 602 159 112 84 57 53 27 139 245 126 194 138 135 4 0 0 0 0 0 0 0 0 0 0 0 7 13 29 11 11 12 5 10 11
474 431 419 431 427 314 706 409 424 334 214 66 95 53 30 55 42 99 95 94 85 51 8 0 0 0 0 0 0 0 0 0 0 0 1 12 21 13 22 17 18 15 11
549 551 443 338 246 141 171 226 229 195 101 60 42 39 30 2 55 141 65 66 22 30 3 0 0 0 0 0 0 0 0 0 0 0 0 24 25 23 22 23 18 15 14
628 472 485 157 119 76 7 11 0 0 0 0 11 35 44 21 133 99 40 3 2 13 5 0 0 0 0 0 0 0 0 0 0 0 0 3 14 26 22 19 16 13 9
645 278 224 166 126 109 29 1 0 0 0 0 2 1 12 26 147 72 41 4 0 0 0 0 0 0 0 0 0 0 0 0 0 0 0 0 2 12 18 17 16 8 9
389 76 117 89 143 51 1 0 1 2 4 7 13 10 4 53 83 52 75 6 0 0 0 0 0 0 0 0 0 0 0 0 0 0 0 0 0 0 7 11 17 15 7
66 60 83 98 53 8 0 0 3 0 2 22 8 0 0 11 11 28 85 1 0 0 0 0 0 0 0 0 0 0 0 0 0 0 0 0 0 0 0 5 9 10 10
41 68 51 14 5 2 0 0 1 8 6 23 2 7 5 62 56 62 73 0 0 0 0 0 0 0 0 0 0 0 0 0 0 0 0 0 0 0 0 0 0 0 1
44 63 30 1 0 3 0 4 9 0 3 28 10 0 12 49 91 81 27 0 0 0 0 0 0 0 0 0 0 0 4 0 0 6 0 0 0 0 0 0 0 0 0
66 58 19 0 0 0 0 0 2 6 87 61 55 40 48 50 19 21 4 0 0 0 0 0 0 0 0 0 0 1 0 3 7 8 6 7 6 0 0 0 0 0 0
79 82 49 0 0 0 0 2 1 2 53 49 63 60 65 14 14 37 6 0 0 0 0 0 0 0 0 1 0 0 6 5 21 15 7 12 34 22 20 19 0 0 0
107 115 78 3 0 0 0 1 0 0 0 43 42 34 56 78 30 27 33 7 18 1 6 4 14 12 5 11 0 0 17 11 31 40 26 10 35 40 50 49 20 14 1
127 123 94 22 0 0 0 0 0 0 0 0 4 0 48 45 45 43 55 2 24 2 7 50 82 52 57 47 10 11 16 4 14 15 40 29 16 20 54 61 41 21 1
142 132 92 31 2 0 0 0 0 1 0 0 3 4 10 2 20 34 22 9 11 5 38 25 97 93 104 61 45 37 19 10 10 7 0 0 0 21 39 34 17 12 13

GFSSE_con_mucape_081.txt.gz
CAPE
1088 1218 1189 1037 1151 1455 1538 1573 1692 1790 1828 1842 1910 1957 1986 1982 1933 1848 1811 1716 1718 1710 1687 1327 1573 1426 1066 1043 1337 1331 1188 1038 963 1050 1071 1096 903 955 836 892 861 625 895
1322 1369 1122 1097 1145 1588 1633 1662 1806 1906 1971 2038 2048 2083 2068 2075 1997 1864 1709 1718 1724 1862 1591 1566 1763 1749 1343 1293 1331 1187 1046 919 887 925 920 1044 881 733 738 848 815 606 857
1562 1463 1415 1286 1252 1622 1685 1787 2007 2250 2196 2195 2181 2172 2162 2117 1959 1777 1752 1783 1798 1979 1800 1653 1789 1450 1239 1275 1148 1058 1003 941 796 786 813 710 706 751 695 816 795 881 748
1503 1506 1566 1453 1602 1659 1593 1834 2035 2423 2445 2337 2316 2310 2224 2092 1913 1866 1851 1807 1885 2068 2053 1577 1547 1282 1290 1250 1042 984 887 764 643 652 564 657 563 752 723 641 680 615 621
1451 1313 1494 1476 1447 1537 1641 1712 1928 2198 2339 2293 2282 2349 2267 2076 2023 1950 1796 1856 1985 2125 2120 1709 1441 1523 1273 993 891 781 609 434 365 354 362 625 641 622 630 508 506 498 567
1602 1393 1433 1436 1298 1464 1734 1701 1880 1869 2153 2021 2189 2253 2248 2158 2035 1685 1473 1908 2027 2169 2124 1830 1506 1256 984 798 678 560 350 234 251 307 573 593 446 298 146 66 286 272 398
1764 1727 1782 1524 1441 1523 1590 1776 1760 1807 1633 1863 2125 2003 1738 2019 1630 1534 1302 1784 1947 1886 1833 1479 1342 1070 837 617 478 304 238 134 479 484 418 325 192 103 23 10 9 11 8
1481 1502 1522 1603 1592 1476 1480 1730 1595 1590 1710 1787 1958 1980 1866 1428 1200 1025 979 1073 1109 1392 1374 1276 1049 892 680 439 251 180 103 69 165 209 165 120 114 35 1 6 7 13 12
1900 1644 1980 2191 1812 1546 1503 1649 1624 1362 1411 1444 1633 1629 793 243 408 483 341 624 1025 1137 997 1007 799 624 508 237 125 74 42 19 94 61 29 39 96 17 12 17 21 14 21
1617 1882 1659 1625 2513 2157 2165 1493 1525 1404 1053 839 921 453 309 200 182 132 292 438 610 1147 871 854 611 450 247 170 81 41 14 0 29 9 12 41 87 19 16 12 9 11 18
1339 1532 1655 1866 2083 1966 1847 2236 1515 1266 1050 652 479 228 201 144 89 96 213 267 301 573 546 452 399 276 195 86 32 21 1 0 0 0 10 32 37 22 17 24 21 17 18
904 1126 1353 1625 1828 2325 1939 1820 1514 1254 904 621 557 234 142 104 161 68 75 144 214 281 287 266 263 209 164 110 67 26 2 0 0 0 3 26 27 27 30 29 19 15 16
1039 1363 1315 1425 1771 2007 1825 1690 1579 1252 680 594 474 355 120 83 74 25 78 165 201 192 285 297 220 155 132 74 5 1 0 0 0 2 6 41 44 34 32 17 16 14 20
1108 1103 1084 1084 1236 1279 1230 1328 1150 839 483 436 417 290 167 107 115 182 248 194 96 70 144 320 224 93 22 1 0 0 0 0 0 0 15 28 41 20 12 27 28 25 20
1074 1068 1188 1174 1055 674 589 802 519 270 359 268 375 273 97 75 208 210 218 223 70 50 70 204 80 16 0 0 0 0 0 0 0 2 10 17 36 44 35 37 42 31 16
931 946 948 980 568 447 364 319 225 296 265 252 381 241 266 78 237 261 252 259 122 39 60 126 58 0 0 0 0 0 0 0 0 0 7 24 26 48 51 41 35 25 15
824 803 742 593 714 316 345 180 141 302 208 250 301 71 43 130 52 158 225 206 156 33 47 66 76 63 0 0 0 0 0 0 0 0 14 21 18 22 42 46 25 10 7
802 774 650 622 475 173 86 59 85 178 302 282 196 204 386 39 45 184 171 141 56 47 44 101 57 45 3 0 0 1 0 0 0 12 6 12 19 6 13 20 29 26 20
797 704 647 642 498 46 83 76 2 20 86 115 203 159 169 99 60 98 120 106 50 58 22 63 43 28 6 5 0 0 0 1 5 9 6 8 16 19 29 14 16 19 21
674 606 628 676 535 12 51 0 2 75 21 0 3 0 2 46 56 93 50 57 52 44 33 44 23 19 17 12 0 0 4 4 9 11 14 4 9 15 21 23 19 15 13
500 539 508 628 166 62 89 5 0 0 0 10 24 26 8 0 3 62 29 20 26 35 31 45 9 4 6 16 0 0 2 0 2 1 11 10 3 9 9 8 9 11 6
399 470 480 549 113 38 167 0 13 4 2 21 28 31 60 13 3 14 7 14 41 34 37 41 0 1 0 0 2 3 0 2 0 0 4 16 13 3 6 2 1 1 1
396 359 542 358 101 46 4 11 2 20 4 11 15 67 18 10 5 11 21 19 31 26 26 14 2 0 0 1 0 18 8 33 7 0 0 10 10 7 1 0 1 3 8
471 311 480 219 174 185 14 8 2 6 5 14 15 21 2 4 7 10 29 41 5 37 37 0 0 0 0 0 2 14 53 27 82 32 0 0 1 4 6 0 2 6 8
359 280 365 161 101 185 28 2 3 8 10 6 64 8 4 25 8 4 17 39 34 50 60 0 3 0 0 18 11 27 27 16 52 76 59 2 19 1 0 16 20 22 13
217 195 237 130 58 93 29 2 0 26 4 4 22 20 37 15 9 8 6 28 39 26 19 0 0 0 0 12 15 45 56 62 42 61 60 80 79 41 43 36 25 16 12

GFSSE_con_mucape_084.txt.gz
CAPE
1264 1277 1206 1295 1493 1584 1661 1675 1796 1902 1944 1871 1930 2029 2049 2028 1995 2015 1925 1916 1986 2075 1852 1548 1690 1330 1286 1222 1207 1520 1485 1317 1276 1297 1190 1169 1077 987 858 974 966 821 1047
1502 1667 1013 1223 1464 1668 1785 1789 1884 2071 2064 2032 2044 2143 2117 2145 2147 2089 2093 2104 2052 2128 1864 1558 1516 1545 1520 1506 1577 1384 1263 1199 1142 1109 1139 1095 1008 888 824 924 1009 846 1072
1763 2022 1488 1126 1489 1794 1857 1894 2091 2233 2251 2206 2172 2199 2234 2255 2249 2132 2018 1991 2015 2071 2018 1673 1651 1643 1583 1542 1350 1253 1234 1141 1009 1049 905 898 934 982 900 977 948 1013 798
1748 2068 2035 1081 1443 1830 1966 2078 2231 2341 2410 2371 2391 2346 2348 2335 2246 2027 1968 1947 2027 2119 2187 1841 1822 1724 1605 1394 1245 1227 1131 1003 903 948 865 765 808 892 842 800 831 825 810
1786 1906 2051 1234 1397 1820 1954 2054 2207 2287 2332 2274 2393 2512 2464 2351 2186 2068 1956 1977 2137 2283 2248 1886 1656 1803 1466 1179 1072 1003 892 829 844 802 830 710 709 788 839 831 751 662 668
1815 1853 1632 1126 1435 1756 1856 2047 2040 1962 2245 2218 2322 2477 2475 1620 1740 2080 1958 2060 2200 1997 2060 1851 1654 1512 1145 958 833 706 595 561 606 931 764 763 716 691 706 539 684 590 603
1965 2018 2084 1219 1235 1530 1895 1992 1987 1844 1894 2159 2249 1768 1775 1502 1969 1617 1576 1374 1999 1777 1651 1477 1489 1260 997 831 705 535 471 483 658 805 776 667 607 483 326 191 94 142 98
2213 2366 2231 1449 1331 1424 1751 1741 1796 1797 1775 1799 1999 1644 1698 1839 1312 972 1031 1018 1304 1236 1058 1143 1204 1095 883 733 511 388 294 417 630 599 591 538 315 244 84 33 11 2 0
2378 2401 2166 2145 1839 1272 1245 1611 1419 1672 1670 1532 1844 1629 1164 975 827 806 688 723 577 703 836 1126 1111 902 756 527 432 378 285 371 501 423 350 192 239 27 0 0 2 7 8
2728 2472 2012 2131 2199 1988 1666 1407 1458 1382 1430 1464 1565 1393 879 662 652 532 447 438 238 670 843 950 771 635 537 457 395 328 184 203 325 383 198 142 181 6 3 4 5 5 5
2536 2669 2638 2059 2142 2386 2325 1944 1479 1518 1292 1117 1041 938 815 1049 947 358 254 289 416 521 775 784 573 449 451 333 263 177 91 244 212 123 131 74 75 3 8 8 8 12 15
2105 2509 2504 2135 2287 2215 2328 2238 2155 2224 1978 1686 1409 929 1105 1082 709 415 197 255 340 406 539 428 322 313 329 463 243 102 210 120 108 57 45 32 47 9 19 13 14 22 17
1715 2073 2181 1952 2370 2517 1916 1908 2057 1831 1699 1727 1461 1047 1006 979 504 193 167 269 694 278 247 248 248 568 401 356 266 257 126 189 74 52 11 17 29 29 34 26 24 20 17
1647 1988 1903 1754 1997 2121 1662 1665 1552 1158 1408 1281 1315 1223 618 718 659 398 107 137 253 148 140 179 746 527 411 290 230 210 94 63 37 40 22 19 26 36 32 28 19 18 19
1673 1974 1804 1894 1896 1474 1999 1792 1582 1727 1115 1012 1104 912 596 454 467 203 139 332 415 201 165 204 573 417 317 214 192 145 77 24 20 27 29 17 35 62 15 18 32 35 23
1179 1843 1911 1754 1782 1782 1883 1067 1329 1323 1063 746 787 666 332 267 415 242 305 458 250 87 114 128 298 288 263 210 213 123 25 10 11 11 11 12 23 45 53 35 44 32 12
909 1622 1954 1745 1613 1636 1537 1454 1091 838 800 692 450 444 231 335 520 414 495 441 195 184 87 104 271 325 177 172 161 90 21 11 8 6 11 30 27 24 39 50 51 31 13
981 1552 1888 1395 1497 1475 1387 1079 877 513 585 578 409 460 182 198 249 184 269 395 236 115 152 99 301 180 170 162 96 79 21 6 6 4 13 41 18 18 33 41 42 32 30
1186 1544 1840 1435 1504 1587 1055 623 610 267 211 180 232 271 159 142 78 163 468 460 195 82 201 65 197 191 171 143 99 62 23 19 10 18 14 40 30 11 35 18 17 23 28
1160 1599 1759 1514 1591 1201 615 397 302 294 131 234 229 171 159 354 259 222 184 201 76 57 45 45 141 193 185 138 59 45 60 28 18 22 17 39 41 31 42 27 21 16 12
1201 1656 1678 1373 1436 796 335 372 251 310 153 176 47 243 70 38 177 95 74 72 59 62 28 33 165 175 145 144 87 72 49 9 37 20 18 35 31 29 30 38 27 17 5
1148 1579 1567 1250 1135 787 526 300 140 50 90 128 69 247 207 109 143 67 50 54 58 28 46 18 125 149 152 134 84 56 32 32 17 27 20 31 36 33 29 18 13 11 6
994 1498 1209 1022 1094 508 461 213 159 91 24 37 109 232 121 75 56 36 38 20 12 41 20 14 109 157 150 151 149 60 25 27 42 53 46 24 26 24 19 33 33 30 18
882 1342 970 965 1000 382 299 193 112 33 15 80 66 23 89 5 18 19 3 8 9 22 38 27 24 137 126 133 134 97 47 26 62 69 91 74 43 16 33 14 10 9 3
789 1312 912 606 655 298 143 247 73 58 45 100 40 28 6 0 6 1 16 30 20 16 15 34 43 174 169 159 77 117 129 123 100 75 75 89 94 78 85 70 47 53 31
738 1210 669 772 390 229 226 261 81 70 57 43 41 3 15 4 3 6 6 12 9 24 29 4 71 128 100 153 101 162 117 112 100 115 93 119 117 139 141 122 151 109 109

GFSSE_con_mucape_087.txt.gz
CAPE
949 1341 1376 1587 1635 1723 1727 1826 1890 1730 1835 1904 2025 2074 2075 2098 2113 2106 2038 2018 2038 2219 2313 1803 1699 1471 1315 1275 1233 1651 1673 1511 1423 1509 1507 1486 1189 1060 972 1118 1090 847 1095
1223 1342 1184 1470 1652 1760 1826 1832 1967 1902 2018 2024 2129 2209 2201 2213 2220 2207 2128 2155 2265 2452 2181 1866 1698 1539 1480 1366 1788 1584 1481 1332 1244 1274 1344 1277 1062 951 874 1097 1044 933 1116
1514 1610 1372 1334 1680 1824 1855 1881 2108 2260 2263 2181 2214 2282 2139 2192 1956 2248 2176 2265 2360 2454 2104 1725 1601 1506 1616 1679 1548 1477 1432 1302 1221 1239 1197 843 958 1057 1052 1031 1084 1115 982
1363 1884 1714 1279 1633 1898 2013 2119 2277 2545 2485 2350 2308 2344 2364 2392 2276 1945 1949 2153 2358 2398 2303 1837 1753 1875 1780 1573 1434 1400 1285 1184 1094 1086 859 709 888 1017 917 963 1010 1031 995
719 1520 2056 1239 1598 1935 2046 2195 2327 2470 2473 2414 2360 2438 2464 2503 2428 1735 1662 1983 2317 2415 2448 1989 1841 1773 1591 1333 1264 1228 1135 1014 953 884 883 847 831 998 1053 953 791 833 857
981 1321 1753 1070 1483 1888 2064 2190 2390 2355 2387 2333 2325 2414 2524 1890 1856 1606 1477 1767 2270 2186 2350 1965 1943 1591 1271 1118 1065 1059 988 928 819 656 738 863 796 806 833 796 916 882 836
1404 1578 2081 1056 1395 1793 2076 2203 2204 2084 2269 2280 2332 2295 1991 1867 1649 1523 1411 1758 1750 1742 1422 1379 1332 1284 1121 959 951 867 789 761 570 901 777 762 808 830 790 646 574 754 725
1644 2015 2314 1243 1306 1535 1773 1961 1956 2005 2087 2298 2188 1904 1903 1670 1600 1340 1142 1016 919 503 635 905 1076 1169 1012 899 735 591 510 465 749 755 863 832 705 722 445 262 190 413 172
1959 2286 2441 2077 1652 1190 1493 1569 1779 1868 1958 2007 1778 1654 1496 1222 1043 1017 873 940 871 692 622 861 951 946 931 645 487 462 437 460 667 684 648 474 623 413 274 98 34 20 20
2354 2558 2563 2465 2247 2053 1840 1426 1402 1738 1830 1853 1747 1429 1162 1017 912 724 707 746 614 428 624 754 639 728 622 428 371 402 398 315 412 429 423 265 312 57 30 17 11 9 6
2461 2491 2590 2387 2390 2282 2110 1845 1444 1404 1494 1580 1451 1244 1123 1132 1153 653 514 421 353 298 513 741 527 369 352 351 380 376 257 520 349 166 356 138 253 5 1 0 0 1 1
2149 2562 2781 2574 2485 2545 2034 2502 2024 1845 1781 1758 1448 1507 1244 1235 1140 861 440 251 238 251 401 524 368 280 282 569 455 257 464 316 154 46 77 49 36 6 4 3 0 0 2
1836 2165 2579 2608 2621 2515 2301 2621 2249 2118 2396 2183 2153 1830 1606 1581 1482 972 474 315 370 308 283 389 274 423 525 661 739 612 316 249 79 42 23 29 57 16 8 14 11 11 15
1567 1857 2420 2571 2256 2446 2117 1978 1946 2445 2486 2130 1837 1790 1823 1654 1380 1027 754 375 354 716 473 271 268 469 669 460 455 330 168 191 155 87 3 0 23 29 21 20 25 20 12
1228 1674 2390 2252 2400 2337 2157 2032 1971 2160 2015 1831 1892 1659 1858 1547 1243 897 506 519 569 739 181 46 108 336 578 426 351 270 78 115 51 74 3 0 29 52 27 24 23 12 22
410 1474 2406 2286 2297 2240 2254 1858 1911 1765 1620 1522 1436 1485 1450 1463 1211 975 755 629 758 668 299 45 116 158 574 423 275 234 78 56 32 31 19 7 21 39 30 26 27 34 31
0 646 2296 2453 2301 2284 2158 2142 1499 1654 1184 1194 1202 1425 1202 1052 841 952 805 887 378 402 438 77 102 109 285 229 179 123 51 51 22 10 22 24 19 8 22 54 60 40 16
0 85 1888 2292 2222 2302 2153 2007 1800 1157 1290 1127 1271 1151 1026 729 693 698 704 656 596 314 261 61 103 80 103 167 159 64 66 35 21 12 19 11 11 6 18 44 44 42 32
0 235 1494 2459 2137 2249 2113 1912 1575 1328 1004 1025 1119 920 692 650 521 630 616 509 346 299 237 147 65 67 128 125 121 104 52 19 17 9 28 10 11 21 30 32 25 19 33
1 520 1550 2490 2110 2172 2067 1533 1181 815 716 611 495 620 681 490 313 313 176 196 130 261 265 182 86 85 139 142 81 60 61 48 33 19 19 16 21 17 26 25 20 12 17
99 1014 1706 2330 2069 2358 1703 1067 911 637 610 347 280 320 350 383 268 215 194 157 60 192 140 151 93 64 68 85 126 87 83 56 42 21 24 12 32 8 28 36 6 5 0
481 1314 1809 2182 2066 2005 1327 1263 946 771 465 588 507 266 164 120 211 294 172 73 73 75 51 85 70 58 84 152 121 41 60 34 59 39 28 1 50 24 25 40 26 6 7
540 1286 1739 2071 2047 1843 1404 1230 868 571 353 377 221 184 691 502 431 305 181 103 64 85 45 38 21 37 41 94 140 42 24 22 41 41 66 20 56 26 28 17 9 8 11
580 1171 1619 1921 1875 1758 1466 1121 782 495 292 284 207 263 391 276 223 195 172 101 76 35 55 41 15 45 69 143 110 83 41 25 32 66 59 29 32 4 37 35 18 8 15
425 998 1645 1718 1642 1607 1336 1040 772 472 242 164 197 219 118 27 4 23 16 21 21 35 8 35 32 38 50 170 99 162 131 143 85 79 48 95 44 70 38 24 17 17 9
137 1162 1810 1541 1607 1199 1275 1022 817 486 175 128 237 281 14 11 0 0 0 0 7 20 8 14 41 17 71 123 124 179 156 116 146 125 130 121 99 88 111 127 96 53 35

GFSSE_con_mucape_090.txt.gz
CAPE
1410 1362 1539 1630 1790 1876 1879 1696 1645 1726 1836 1880 2017 2032 2073 2131 2116 2123 2102 2072 2188 2367 2423 2040 1887 1649 1463 1424 1405 1405 1386 1449 1448 1432 1507 1539 1245 1044 1136 1013 956 772 1199
1409 1402 1461 1688 1787 1881 1948 1977 1760 1810 1973 2035 2145 2176 2202 2250 2244 2205 2199 2205 2314 2443 2246 1936 1704 1530 1503 1549 1652 1577 1445 1312 1294 1342 1424 1425 1236 999 935 1033 1058 1034 1213
1343 1509 1454 1554 1800 1905 1952 2042 2160 2037 2158 2187 2256 2281 2324 2310 2295 2255 2235 2322 2449 2185 2202 1940 1753 1696 1576 1682 1544 1480 1378 1279 1239 1209 1197 698 936 1163 1130 997 1259 1320 1215
1366 1313 1462 1514 1728 1908 1950 2024 2211 2369 2372 2273 2348 2407 2323 2267 2220 2078 2015 2237 2365 2115 2128 1928 1804 1826 1785 1568 1462 1415 1353 1267 1164 1096 764 813 889 1124 1125 1108 1182 1202 1025
1505 1429 1543 1405 1664 1927 1964 2043 2172 2405 2394 2294 2308 2465 2346 2244 2125 1944 1610 2044 2326 2154 1955 1934 1830 1937 1540 1303 1260 1242 1224 978 781 696 725 769 787 1078 1213 1076 1097 1003 964
1435 1847 1199 1261 1566 1881 1999 2103 2211 2357 2344 2257 2290 2448 2448 2320 2108 1866 1594 1892 1731 1702 1949 2120 1909 1627 1250 1124 1109 1106 951 858 734 591 540 877 667 922 864 1078 1067 1003 904
2031 2087 1446 1209 1503 1830 2040 2172 2219 2240 2271 2351 2282 2358 2456 2151 1898 1737 1601 1697 1453 1015 1045 1110 1081 1196 1173 1073 1088 949 832 591 755 532 619 656 606 992 912 921 1020 949 861
2391 2723 1729 1271 1485 1642 1860 1916 1979 2010 1695 2117 2700 2308 2361 2039 1605 1426 1438 1219 954 722 443 616 483 985 1060 996 868 709 629 493 538 555 526 558 797 894 828 704 669 714 604
2695 3034 2252 1663 1520 1407 1461 1632 1794 1896 1705 2414 2240 2229 2108 1791 1503 1283 1051 951 928 503 237 306 701 455 776 748 632 563 365 355 426 463 564 401 671 838 603 466 294 236 230
3267 3399 2835 2369 1866 1632 1511 1326 1599 1756 1849 1728 1893 1884 1816 1543 1233 1067 938 857 755 618 414 605 801 810 608 547 491 416 269 246 515 409 402 290 599 523 338 203 120 43 31
2974 3000 3272 2839 2415 2349 2165 1517 1289 1596 1709 1768 1794 1591 1442 1493 1232 828 649 635 702 585 567 789 712 523 399 389 326 282 257 316 331 249 154 310 428 255 105 66 25 15 18
2676 2916 2918 2703 2771 2550 1789 1887 1695 1709 1657 1739 1717 1352 1625 1553 1297 955 599 414 261 293 322 348 392 318 307 277 223 224 161 184 169 116 66 157 337 28 11 18 9 11 17
2467 2501 2801 2392 2302 2304 1942 2278 1883 1985 1768 1769 1825 1731 1310 1348 1275 958 655 339 201 231 277 302 224 223 337 389 300 218 221 91 52 70 38 72 173 11 15 8 8 11 11
2049 2249 2835 2599 2150 2316 2185 2135 2336 2152 2154 2217 2057 1929 1661 1362 1126 1041 777 440 186 133 171 163 193 218 272 381 319 293 179 87 49 46 23 21 14 5 11 16 16 14 12
1047 2027 2468 2734 2408 2536 2574 2060 2116 2326 2419 2191 2113 1865 1654 1281 1079 951 912 584 298 306 208 197 184 84 124 311 280 174 168 110 71 26 11 0 0 16 18 16 25 21 12
23 1470 2480 2654 2513 2415 2473 2214 2127 2131 2058 2099 2050 1772 1530 1245 1056 956 771 567 400 376 209 147 120 46 70 151 198 149 182 124 37 33 1 0 0 16 33 34 17 15 20
0 256 2579 2429 2506 2236 2324 1953 1561 1711 1577 1572 1588 1680 1347 1175 974 748 618 504 417 349 152 47 53 24 44 137 107 136 154 80 38 1 0 0 0 13 21 34 33 24 21
0 0 2577 2402 2392 2362 2088 1955 1439 1345 1559 1473 1266 1325 1300 1122 853 767 530 467 439 311 166 48 48 36 89 121 79 122 82 30 12 2 0 0 0 0 7 25 35 48 42
0 0 2522 2430 2417 2386 2176 2291 1817 1428 1295 1191 1196 1167 1027 1006 836 685 523 469 337 303 159 44 34 25 63 52 58 48 34 15 1 0 4 0 0 1 6 18 15 18 37
0 0 2521 2493 2387 2365 2209 2164 1791 1438 1046 1096 1239 1002 892 894 742 593 446 389 337 147 79 52 44 48 28 57 102 41 18 7 0 6 13 6 0 4 4 3 5 11 20
0 0 2598 2485 2271 2188 2098 1821 1519 1103 810 739 766 787 717 722 512 377 304 267 250 120 85 59 45 33 38 76 29 32 39 14 3 0 23 8 1 0 0 0 0 0 0
0 190 2456 2551 2170 2076 2140 1751 1260 968 722 490 569 499 697 598 323 236 196 235 278 128 95 55 77 22 43 34 3 0 0 34 41 21 20 20 14 2 0 0 0 0 0
105 1428 2256 2460 2034 2028 1941 1614 1107 829 728 622 445 367 514 562 291 197 134 226 297 94 95 70 53 44 0 42 45 0 0 0 29 23 23 9 16 25 2 2 2 1 0
259 1354 1891 2364 1944 2012 1729 1382 1038 763 519 469 324 249 315 353 155 85 87 108 74 103 128 81 56 39 19 24 36 31 16 1 1 14 23 15 13 15 10 11 9 10 5
221 1223 1540 2173 1928 1879 1662 1514 1109 788 527 350 390 341 361 458 191 142 183 131 75 54 73 79 53 73 27 10 0 0 23 60 5 0 0 5 6 6 0 0 12 1 0
163 1036 1521 2010 1838 1848 1576 1536 1067 858 509 341 282 304 152 43 142 70 1 38 87 55 41 34 64 49 21 15 16 21 11 46 32 43 33 8 0 0 0 0 0 10 1

GFSSE_con_mucape_093.txt.gz
CAPE
1218 1212 1569 1765 1733 1609 1534 1497 1490 1593 1695 1860 1923 1941 1988 2023 2036 2011 2067 2223 2353 2495 2450 2196 2152 1975 1655 1652 1819 1744 1561 1256 1263 1439 1582 1670 1331 1266 1479 1287 1094 981 1381
1250 1300 1467 1754 1874 1838 1700 1564 1564 1732 1873 2015 2066 2090 2087 2062 2099 2100 2089 2272 2431 2594 2200 1947 2040 1805 1661 1620 1668 1595 1579 1387 1276 1251 1259 1340 1606 1328 1158 1258 1148 1150 1362
1254 1432 1477 1648 1882 1998 1954 1755 1748 1951 2079 2151 2200 2192 2193 2188 2219 2136 2082 2243 2516 2620 2238 1917 1805 1597 1639 1692 1548 1454 1406 1259 1166 1266 1233 913 1017 1502 1206 1334 1254 1266 1303
1243 1327 1428 1604 1794 1889 1949 1964 1865 2111 2221 2249 2292 2315 2273 2314 2307 2205 2098 2166 2383 2450 2196 1991 1911 1764 1692 1527 1406 1437 1355 1254 1187 1075 844 910 1069 1372 1259 1160 1091 1212 1322
947 1236 1400 1507 1733 1785 1782 1907 1999 2108 2164 2224 2265 2428 2357 2389 2338 2251 1980 2166 2451 2244 1813 1684 1829 1939 1602 1362 1303 1333 1306 1126 931 794 826 889 926 1255 1310 1171 1211 1320 973
989 1343 1263 1388 1622 1781 1796 1844 1970 2102 2079 2102 2215 2424 2430 2382 2362 2121 1884 2246 2150 1499 1180 1518 1795 1650 1314 1220 1210 1234 1086 869 654 775 792 876 837 1096 1262 1119 1185 1091 990
1458 1393 1133 1362 1629 1772 1879 1939 1997 2166 2166 2084 2157 2276 2365 2331 2194 1930 1768 1722 1443 1209 1473 1565 1527 1265 1090 1088 1048 931 741 633 496 672 681 734 727 1182 1052 1089 1172 1055 940
1817 1643 1102 1409 1631 1691 1736 1834 1953 2167 2172 1742 2070 2146 2362 2009 1777 1782 1695 1336 1155 979 1100 989 1009 1021 882 885 782 532 559 570 528 544 583 670 927 1077 1014 958 1024 904 782
1897 1553 1139 1396 1576 1500 1537 1618 1876 2022 1604 1927 2430 2091 2273 1958 1584 1560 1531 1186 996 732 703 611 640 611 799 746 564 504 354 423 468 469 518 590 786 1050 922 743 660 517 473
2214 1981 1173 1271 1408 1313 1341 1494 1745 1730 1414 1686 2130 2107 2178 1969 1629 1319 1189 1102 929 692 667 696 577 442 667 561 439 344 233 313 342 405 418 437 726 810 827 710 391 164 175
2530 2188 1960 1420 1289 1214 1146 1308 1568 1722 1720 1598 1617 1886 1917 1804 1525 1226 961 997 835 515 561 637 595 631 598 460 403 197 230 384 359 361 303 453 726 781 604 328 314 36 61
2305 2548 2273 1909 1676 1475 1377 1174 1362 1604 1604 1727 1741 1643 1409 1465 1317 1110 895 752 624 445 426 632 616 536 432 370 324 204 171 279 312 301 213 302 775 582 412 129 85 52 23
2330 2698 2451 2455 2226 1992 1771 1438 1174 1297 1374 1509 1444 1232 1152 1298 1181 1067 861 716 558 521 421 465 297 221 228 229 236 158 114 157 191 140 107 278 591 366 232 60 56 50 27
2280 2656 2576 2350 2443 2163 1605 1515 1369 1395 1300 1329 1446 1327 1070 1285 1148 1047 929 713 548 529 322 195 158 99 173 234 205 170 111 115 139 118 56 84 154 140 13 18 31 31 23
1846 2337 2523 2332 2072 2081 1942 1771 1614 1774 1498 1494 1442 1554 1157 1153 1197 1108 841 570 457 362 279 168 110 99 74 205 229 171 129 97 87 79 20 39 13 12 9 20 11 14 21
2 2264 2509 2501 2426 1892 1994 1853 2005 1987 1751 1866 1788 1642 1417 1168 1045 1125 915 543 468 271 140 102 96 62 31 192 131 102 109 92 51 3 4 6 1 2 15 29 21 8 18
0 880 2472 2651 2484 2164 2016 2078 1913 2111 1983 1890 1789 1614 1382 1198 1061 1015 837 602 495 304 208 143 63 32 15 87 62 63 85 53 40 26 27 4 0 0 4 30 35 21 18
0 0 2111 2552 2482 2229 1993 2208 1943 1673 1566 1602 1619 1583 1349 1327 1129 1000 802 560 489 423 219 111 60 38 12 12 24 66 69 54 41 33 0 0 0 0 5 19 30 40 47
0 0 1882 2482 2502 2245 2259 2217 1964 1713 1230 1292 1221 1312 1313 1047 1058 945 756 547 539 352 169 109 49 28 14 33 71 80 60 33 23 4 0 0 0 0 0 10 17 24 45
0 0 1730 2286 2372 2191 2199 2103 1961 1412 1057 1251 1144 963 1095 941 1027 789 622 498 438 273 205 121 36 20 21 55 138 101 49 21 20 6 0 0 0 0 0 11 21 14 11
0 0 1675 2028 2175 2131 2034 1772 1762 1772 1506 1022 991 839 687 786 880 739 516 375 395 251 165 97 20 27 45 36 38 30 48 21 18 6 0 0 0 0 0 3 13 1 0
0 0 1702 2098 2146 2100 1804 1939 1950 1703 1402 857 888 703 1092 785 784 675 456 338 282 204 146 66 23 49 67 47 51 8 12 7 1 0 0 3 0 0 0 0 0 0 0
0 17 1868 2111 2215 2103 1891 1848 1686 1486 1217 677 501 412 963 534 634 499 439 389 323 220 136 99 97 86 51 29 32 8 0 0 0 0 1 11 2 0 0 0 0 0 0
0 1235 1854 2045 2126 2048 1913 1870 1681 1498 1298 636 394 250 251 706 651 313 300 228 212 211 201 150 102 50 35 29 22 45 2 0 0 0 16 17 9 12 1 0 0 0 0
23 2000 2037 2038 1976 1893 1892 1731 1526 1511 1067 550 390 306 216 205 184 294 255 205 163 140 115 124 102 73 42 18 6 15 0 0 0 0 0 0 15 8 5 0 1 3 0
20 1897 2132 1979 1904 1862 1734 1551 1448 1231 705 534 383 276 263 265 257 231 185 324 68 170 89 137 105 82 51 22 6 10 32 3 0 0 0 0 0 0 2 1 0 0 0

GFSSE_con_mucape_096.txt.gz
CAPE
956 1289 1511 1599 1696 1659 1530 1437 1452 1500 1642 1727 1731 1910 2071 2088 2023 2030 2152 2232 1967 2253 2487 1965 2069 2059 1623 1745 1989 1775 1613 1438 1334 1170 1697 1578 1457 1409 1344 1521 1414 1303 1653
1022 1441 1625 1619 1729 1781 1692 1561 1569 1687 1901 1940 1887 1952 2058 2099 2072 2155 2265 2398 2397 2541 2162 1802 1922 1907 1608 1702 1660 1652 1548 1323 1364 1435 1529 1562 1574 1439 1282 1396 1396 1418 1562
1149 1455 1654 1685 1753 1816 1837 1774 1818 1965 2100 2092 2048 2046 2121 2203 2141 2156 2266 2404 2502 2495 2054 1828 1791 1722 1629 1703 1540 1549 1545 1489 1456 1550 1578 1264 1256 1399 1349 1466 1509 1560 1493
1292 1438 1637 1765 1848 1870 1830 1829 1931 2144 2187 2223 2201 2210 2237 2263 2208 2146 2197 2346 2511 2553 2128 1818 1624 1737 1691 1587 1560 1517 1486 1365 1220 1150 1043 1042 1271 1377 1354 1306 1355 1287 1305
1361 1409 1538 1759 1912 2009 1871 1812 1939 2121 2152 2183 2221 2350 2399 2397 2327 2225 2137 2290 2612 2353 2208 1740 1799 1696 1582 1311 1277 1344 1344 1132 971 871 912 1038 1196 1369 1382 1351 1261 1277 1213
1312 1385 1549 1625 1782 1955 2036 1956 1950 1991 1979 1994 2169 2380 2498 2493 2456 2121 2023 2069 2387 2154 1990 1990 1633 1613 1216 1101 1154 1244 1052 839 807 849 849 1009 1044 1402 1433 1231 1226 1212 1202
1135 1170 1429 1572 1682 1852 2013 2030 1999 1975 1922 1943 2136 2275 2384 2481 2393 2120 1945 2086 2083 1887 1869 2061 1755 1344 1127 1041 1068 1037 665 806 760 750 887 874 907 1281 1255 1059 1152 1243 1159
1143 1025 1175 1440 1631 1791 1885 1791 1868 2005 1952 1987 2078 2147 2308 2260 2146 1940 1861 1785 1675 1530 1525 1612 1405 1247 1110 1055 847 652 616 556 738 679 745 816 1034 1240 1140 1041 1072 1083 982
1235 1029 1195 1433 1599 1652 1709 1736 1866 2034 2071 1758 1873 2006 2160 1949 1748 1747 1741 1566 1434 1375 1239 1310 1216 1105 1065 958 550 468 460 502 577 538 609 713 1144 1187 1070 942 924 782 695
1536 1027 1085 1366 1480 1469 1526 1711 1866 2078 1702 1449 1565 1669 2065 1896 1560 1538 1444 1312 1170 1093 1036 1046 927 828 884 703 376 299 431 493 415 423 478 531 1073 1154 1075 903 780 586 376
1563 1389 1070 1167 1309 1276 1336 1593 1818 1707 1460 1382 1717 1714 2079 1945 1737 1434 1287 1094 890 680 832 785 686 514 693 553 311 218 355 364 376 357 438 651 937 932 870 807 723 460 181
1782 1625 1156 1106 1237 1183 1198 1459 1705 1634 1503 1509 1522 1834 2067 1953 1734 1365 1191 949 695 524 546 636 560 478 556 519 311 222 295 310 275 278 404 568 829 784 854 597 364 216 191
2021 1910 1776 1204 1094 1099 1151 1226 1478 1714 1714 1616 1621 1861 1836 1751 1632 1365 1086 919 712 500 500 650 733 602 544 534 337 234 274 335 329 310 339 375 780 944 768 533 292 219 127
2162 2178 2133 2009 1337 1225 1379 1056 1074 1312 1307 1624 1699 1639 1454 1531 1455 1294 1040 898 760 654 636 567 622 590 493 359 278 139 237 359 292 235 255 417 681 818 656 509 342 225 83
1997 2509 2400 2354 1897 1597 1680 1539 1043 1049 1198 1318 1349 1195 1197 1374 1226 1108 1051 910 798 738 512 561 503 205 259 250 174 77 105 229 221 165 158 298 352 440 393 327 319 226 72
1942 2475 2525 2516 2387 2101 1922 1612 1373 1156 1059 1050 1245 1260 1039 1246 1134 1002 979 943 876 682 491 509 232 100 59 173 160 87 73 115 157 109 120 141 102 93 141 108 88 52 42
1 2149 2579 2595 2623 2298 2076 1723 1624 1384 1461 1259 1210 1336 1263 1112 1114 1013 950 941 845 625 491 276 134 77 44 162 73 75 68 61 90 105 77 18 17 0 0 33 61 40 32
0 693 2428 2410 2538 2307 2100 1889 1885 1640 1811 1600 1697 1507 1543 1417 1226 1116 1070 998 777 601 445 273 156 88 54 39 60 25 44 46 46 90 42 3 0 0 0 8 31 36 42
0 0 2101 2338 2393 2452 2113 1670 1809 1879 2047 1834 1831 1719 1587 1460 1258 1110 1037 1029 851 570 473 313 107 118 59 32 21 19 55 47 38 58 41 30 1 0 0 4 17 18 35
0 0 1523 2192 2269 2316 2230 1652 1819 2023 2021 1807 1638 1663 1550 1315 1286 1159 1040 921 667 530 438 298 215 89 55 56 12 65 47 57 48 47 38 1 0 0 0 0 1 12 18
0 0 1303 2082 2135 2236 2245 1657 1581 1875 1745 1601 1360 1036 1202 1213 1008 1045 993 919 705 542 423 292 216 137 74 32 49 64 42 37 29 37 6 0 0 0 0 0 0 5 13
0 0 321 1870 2034 2103 2096 1925 1497 1611 1657 1543 975 984 840 935 763 945 759 662 593 513 427 333 199 94 53 25 12 7 5 0 30 25 15 2 0 0 0 0 0 3 0
0 0 374 1668 1862 1917 2033 1830 1521 1442 1416 1127 998 755 598 483 438 1300 735 621 508 427 542 368 166 119 38 26 16 1 7 0 13 8 2 0 0 0 0 0 0 0 0
1 0 66 1609 1756 1830 1933 1872 1401 1348 1333 1311 966 576 376 754 1060 711 712 578 397 320 273 238 164 79 47 43 36 11 5 0 0 1 0 1 0 0 0 0 0 0 0
31 61 1146 1698 1826 1836 1922 1822 1695 1481 1476 1118 910 507 302 270 544 751 522 494 402 281 196 126 125 84 78 76 30 26 29 5 0 0 0 0 0 0 0 0 0 0 0
119 1150 1544 1867 1941 1789 1779 1765 1679 1613 1366 1075 940 551 195 139 189 609 300 235 269 151 143 136 105 86 61 79 44 30 36 22 0 3 0 0 0 0 0 0 0 0 0

GFSSE_con_mucape_099.txt.gz
CAPE
803 1202 1447 1630 1758 1659 1488 1352 1316 1459 1696 1841 1918 2018 2133 2236 2188 2133 2106 2094 2145 2451 2359 1786 1911 1843 1676 1569 1840 1886 1822 1684 1489 1447 1458 1869 1652 1581 1577 1656 1694 1371 1529
913 1368 1474 1626 1800 1757 1627 1473 1461 1609 1795 1925 2060 2055 2041 2093 2167 2186 2139 2166 2409 2657 2112 1747 1761 1800 1844 1829 1591 1627 1622 1480 1484 1591 1586 1690 1410 1462 1526 1660 1635 1310 1521
1187 1520 1530 1662 1813 1818 1775 1724 1767 1906 1953 1979 2062 2113 2104 2134 2207 2264 2277 2301 2539 2539 2047 1757 1758 1726 1713 1494 1590 1600 1582 1612 1612 1686 1776 1211 1574 1296 1436 1557 1658 1584 1487
1306 1529 1600 1702 1839 1895 1837 1828 1895 2111 2098 2047 2079 2194 2213 2213 2309 2352 2311 2303 2525 2485 2119 1852 1849 1755 1750 1487 1476 1604 1630 1627 1555 1530 1294 1155 1137 1455 1325 1457 1449 1461 1449
1414 1615 1676 1692 1821 1929 1899 1903 1941 2082 2054 2029 2070 2242 2296 2289 2383 2468 2205 2303 2544 2528 2215 1859 1801 1742 1537 1366 1375 1434 1363 1281 1276 1266 1216 1135 1167 1318 1275 1531 1390 1467 1432
1439 1599 1734 1721 1791 1892 1947 1966 1993 1963 1918 1891 2022 2249 2394 2422 2417 2391 1992 2417 2602 2544 2467 2194 1870 1574 1174 1126 1221 1220 1065 1054 1104 1020 1130 1000 820 1522 1445 1373 1357 1461 1341
1414 1526 1740 1812 1845 1957 2049 2013 1967 1839 1812 1887 2036 2194 2347 2426 2367 2159 1971 2173 2396 2481 2266 2279 1847 1359 1135 1087 1177 924 819 851 811 832 951 876 889 1324 1294 1169 1464 1393 1278
1248 1407 1603 1796 1875 1959 2074 1978 1902 1794 1782 1863 1983 2063 2277 2276 2156 1978 1968 2080 1935 1798 1944 1794 1468 1292 1167 1132 1011 812 800 754 742 823 866 767 1032 1396 1189 1220 1321 1181 1131
1118 1332 1477 1612 1659 1729 1851 1923 1921 1833 1797 1837 1949 1986 2072 2021 1948 1834 1895 1849 1646 1546 1676 1601 1390 1232 1178 1083 830 676 723 803 683 607 743 754 1071 1440 1211 1199 1054 968 984
877 1007 1200 1442 1562 1608 1609 1630 1770 1870 1837 1882 1952 1940 2004 1877 1770 1690 1673 1580 1442 1369 1459 1535 1337 1203 1157 953 728 683 567 714 556 597 461 623 1310 1281 1233 1083 1010 855 673
850 905 1073 1270 1366 1471 1509 1599 1743 1885 1909 1632 1778 1704 1881 1790 1614 1565 1471 1295 1171 1058 1090 1353 1202 1104 1053 848 612 606 591 601 483 478 408 564 972 1208 1099 1096 1034 773 495
1127 868 981 1143 1256 1290 1345 1552 1708 1912 1703 1315 1309 1368 1765 1830 1591 1408 1380 1164 886 819 832 961 848 875 862 755 635 499 490 510 439 380 379 562 787 1107 990 892 706 415 263
1512 1259 1005 1103 1158 1148 1199 1441 1641 1731 1550 1199 1390 1506 1876 1844 1753 1410 1333 1084 836 703 565 481 541 431 629 760 595 478 512 443 422 356 409 514 713 1079 848 806 619 378 285
1802 1563 1429 1105 1077 1050 1050 1206 1595 1451 1742 1525 1355 1446 1980 1927 1761 1506 1280 1145 886 773 571 436 374 408 522 771 542 394 394 352 300 349 486 467 519 890 913 773 583 422 290
1844 1903 1733 1467 1110 968 985 899 1100 1416 1592 2086 1507 1610 1929 1867 1654 1524 1240 1083 969 853 665 438 390 425 523 667 428 323 315 230 221 316 423 403 354 628 914 722 603 424 239
1692 2062 2148 1950 1724 1448 1167 891 762 1004 1390 1491 1380 1495 1731 1639 1539 1460 1296 1084 947 906 773 553 419 514 572 348 307 93 97 104 91 249 332 291 267 502 713 799 634 497 335
28 1854 2275 2303 2172 2032 1719 1351 1177 776 907 999 1216 1413 1407 1303 1410 1298 1176 1053 959 894 809 704 355 339 206 105 63 87 73 68 75 91 178 234 268 261 288 331 418 469 263
0 343 2150 2364 2397 2396 2172 1757 1508 1008 922 861 1001 1185 1151 1039 1197 1107 943 794 893 877 841 756 338 237 42 75 39 70 75 71 71 70 66 162 172 100 23 17 104 180 161
0 0 1483 2321 2420 2526 2510 2262 1896 1273 1134 956 921 933 1145 1073 1026 1012 896 767 981 862 846 690 416 281 99 49 67 40 32 53 50 56 56 81 79 24 0 0 13 23 40
0 0 33 1915 2283 2495 2600 2401 2143 1625 1470 1309 1274 1195 1193 1366 1304 1198 1129 1057 1152 917 699 622 563 332 110 63 87 32 29 33 36 45 43 57 56 16 0 0 7 15 12
0 0 0 1418 2040 2127 2287 2353 2149 1834 1712 1560 1709 1580 1656 1615 1540 1422 1242 1103 1036 971 988 620 357 318 136 125 79 18 13 16 42 40 45 55 43 24 0 0 0 3 6
0 0 0 1005 1833 1959 1956 2033 1898 1876 1570 1332 1588 1689 1789 1639 1455 1255 1129 1075 999 884 1038 745 330 167 149 108 47 43 15 6 25 34 50 44 32 6 0 0 0 0 2
0 0 0 816 1741 1924 1913 1808 1793 1579 1418 1423 1608 1553 1607 1390 1303 1097 758 923 920 1089 781 680 358 218 115 57 56 52 38 14 5 0 19 35 10 3 0 0 0 0 0
0 0 0 577 1750 1911 1931 1651 1502 1574 1314 1246 1210 1250 1265 883 963 587 611 870 652 780 704 782 387 281 192 132 67 56 20 1 2 0 7 27 3 1 0 0 0 0 0
185 74 317 115 1508 1789 1919 1732 1623 1582 1241 1000 976 1061 856 659 700 489 308 996 410 506 734 538 490 372 135 71 62 68 29 6 0 4 0 23 2 9 0 0 0 0 0
396 261 892 627 1398 1777 1912 1769 1502 1402 1383 1008 875 949 817 559 302 341 775 558 699 344 426 498 543 150 100 85 72 61 61 26 3 2 13 0 5 7 5 0 0 0 0

GFSSE_con_mucape_102.txt.gz
CAPE
687 1188 1473 1672 1697 1548 1386 1388 1411 1493 1773 2083 2235 2307 2026 1990 1986 1940 2054 2127 2338 2497 2371 1933 1995 2051 2010 1916 2198 1943 1781 1794 1659 1743 1964 1940 1660 1528 1465 1732 1605 1341 1726
810 1301 1469 1715 1806 1685 1523 1440 1512 1628 1849 2116 2212 2308 2248 2161 2084 2048 2114 2170 2432 2601 2204 1868 1899 1948 1650 1884 1680 1679 1688 1496 1551 1781 1992 1814 1565 1618 1656 1703 1474 1505 1544
1148 1384 1515 1609 1893 1808 1716 1632 1744 1896 1999 2066 2156 2209 2291 2254 2231 2145 2132 2208 2561 2371 1998 1839 1922 1992 1821 1689 1535 1643 1564 1570 1671 1709 1912 1223 1376 1648 1504 1690 1643 1493 1466
1307 1404 1555 1752 1944 1865 1729 1748 1855 2046 2094 2105 2115 2180 2250 2294 2291 2203 2156 2359 2521 2477 2145 1895 1946 1918 1923 1546 1439 1540 1619 1620 1587 1630 1213 1197 1254 1598 1494 1424 1489 1514 1495
1403 1438 1586 1860 1943 1902 1845 1879 1947 1983 1945 2017 2065 2210 2267 2361 2428 2361 2239 2381 2505 2561 2407 1982 2021 2105 1527 1303 1358 1466 1538 1491 1471 1303 1014 996 1289 1446 1399 1521 1566 1531 1548
1505 1566 1709 1897 1970 1958 1980 2016 2036 1878 1767 1819 2008 2236 2348 2459 2538 2364 2174 2421 2635 2660 2582 2425 2324 1767 1267 1226 1280 1292 1243 1311 1363 1258 1101 1070 1191 1481 1466 1339 1526 1464 1429
1562 1614 1732 1902 1970 2002 2124 2121 2027 1823 1675 1759 1967 2141 2257 2399 2493 2239 2061 2323 2265 2526 2499 2388 1943 1396 1195 1191 1225 1096 1123 1137 1236 1227 1089 812 943 1604 1466 1434 1406 1495 1411
1494 1618 1699 1856 1919 1972 2035 2007 1962 1814 1694 1721 1865 2037 2240 2240 2179 2090 2027 2200 2181 2263 2186 1974 1433 1242 1199 1217 1087 1010 962 1030 1048 1065 1015 833 1057 1364 1392 1361 1258 1270 1237
1428 1574 1699 1810 1876 1896 1885 1882 1908 1824 1773 1736 1751 1878 2049 2021 1912 1956 1981 1995 1820 1695 1686 1523 1237 1148 1220 1193 934 840 833 855 814 965 889 829 1227 1543 1349 1328 1189 1274 1240
1383 1537 1731 1842 1916 1879 1809 1801 1864 1854 1823 1784 1755 1762 1857 1862 1805 1762 1791 1788 1581 1453 1587 1403 1170 1133 1153 1116 985 835 832 779 777 839 790 697 1060 1291 1414 1125 1143 1240 1152
1196 1414 1540 2118 2053 1743 1810 1907 1887 1910 1904 1860 1828 1795 1796 1749 1758 1666 1636 1620 1347 1192 1444 1343 1135 1059 1083 1084 982 773 897 891 726 678 723 520 964 1421 1246 1170 1146 1067 940
826 1079 1257 1531 2032 1745 1513 1538 1640 1859 1892 1929 1883 1844 1799 1730 1657 1612 1549 1523 1267 988 1211 1263 1129 1035 1068 1013 893 823 731 872 755 687 594 506 1037 1281 1277 1062 1108 922 818
846 751 886 1089 1536 1408 1486 1455 1621 2295 1838 1913 1682 1686 1657 1789 1661 1530 1465 1429 1184 855 832 1068 995 858 942 951 842 775 766 805 705 633 515 634 977 1265 1198 932 816 661 477
1619 1256 796 963 1015 1224 1223 1387 1774 2292 1640 1706 1565 1289 1348 1750 1784 1539 1437 1362 1140 875 747 791 870 785 736 846 789 654 700 612 503 505 489 632 798 1268 1112 1087 802 603 480
1551 1756 1639 1069 1110 1185 1161 1165 1207 1632 1811 1427 1093 1297 1260 1572 1863 1647 1436 1349 1149 884 721 640 438 448 318 594 579 531 551 447 343 251 414 592 541 743 1280 1030 810 659 485
73 1443 1826 1829 1539 1299 1050 967 1056 1155 1028 1509 2093 1625 1562 2031 2171 1709 1596 1338 1239 1016 851 757 550 373 309 452 539 462 323 299 121 124 141 343 414 433 596 920 818 680 535
0 21 1517 1915 1935 1680 1372 1040 863 862 806 1049 1748 1989 1600 1669 1794 1632 1615 1387 1232 1164 1007 801 620 459 242 439 457 292 210 85 59 48 45 78 163 215 268 468 561 660 492
0 0 358 1731 1893 2025 1817 1490 1147 1121 1032 1092 1520 1834 1538 1548 1817 1696 1484 1354 1295 1185 1064 807 717 507 302 346 186 115 73 27 42 60 61 55 97 141 304 369 378 350 351
0 0 0 997 1935 1870 2012 1991 1608 1373 1160 1098 830 952 1109 1463 1619 1502 1410 1182 1156 1107 1025 909 799 641 290 217 116 65 50 33 41 57 68 56 45 123 170 126 132 186 158
0 0 0 2 1649 1959 1905 2019 1924 1680 1364 1438 1042 918 979 1227 1263 1178 1155 1064 1405 809 765 803 788 663 433 233 84 63 34 38 41 42 37 32 38 71 77 33 27 24 22
0 0 0 0 758 1925 2016 1966 2033 1881 1775 1657 1308 899 840 969 1047 1018 975 922 908 827 688 695 873 558 532 297 138 59 45 48 1 20 36 22 18 45 56 24 5 0 8
0 0 0 0 143 1851 1854 1874 1821 1688 1613 1546 1523 1044 853 904 987 1126 1100 1099 1041 900 764 841 1120 535 387 377 80 74 39 31 25 29 19 27 26 24 46 24 1 0 0
0 0 0 0 2 1571 1813 1961 1861 1838 1580 1744 1665 1371 1256 1323 1332 1346 1370 1098 1282 1627 610 928 995 905 331 316 333 39 44 12 5 7 12 19 28 23 37 38 7 0 0
0 40 0 0 0 873 1743 1797 1505 1516 1383 1154 1504 1813 1413 1568 1671 1674 1606 1379 1224 766 642 800 921 794 546 249 54 58 25 35 19 0 4 7 5 18 30 17 0 0 0
0 0 188 88 141 11 1704 1702 1558 1428 1356 1106 1126 1274 1153 1333 1432 1688 1453 1296 665 316 795 806 661 1009 288 255 108 17 46 35 38 13 0 0 18 16 3 6 3 0 0
0 0 17 277 483 105 1640 1745 1533 1365 1335 1275 1050 1266 1188 1300 1652 1309 1181 844 324 291 583 708 785 720 325 193 177 254 50 35 33 31 10 4 18 12 13 10 7 0 0

GFSSE_con_mucape_105.txt.gz
CAPE
828 1648 1567 1731 1664 1517 1462 1417 1618 1883 2110 2219 2026 1891 1838 1966 1949 1897 2076 2308 2456 2497 2402 2037 1897 2312 1852 1996 2281 2115 1887 1785 1806 1764 1597 2003 1692 1460 1489 1767 1515 1328 1758
1034 1712 1558 1752 1751 1658 1612 1471 1593 1972 2290 2419 2199 2045 1997 2044 2038 2031 2137 2313 2402 2544 2340 1908 1955 2232 2220 2302 2003 1744 1719 1645 1604 1529 1834 1959 1723 1557 1605 1584 1441 1452 1779
1415 1810 1828 1751 1784 1777 1714 1679 1730 2120 2406 2491 2417 2206 2136 2136 2111 2119 2142 2325 2533 2598 2300 1990 1936 1889 1944 1846 1612 1645 1611 1574 1556 1658 1865 1158 1273 1654 1681 1625 1691 1711 1791
1596 1861 1997 1777 1807 1858 1777 1788 1890 2205 2392 2451 2519 2422 2272 2226 2171 2218 2176 2378 2557 2572 2399 2004 2061 2221 1992 1519 1499 1497 1619 1643 1610 1643 1599 1521 1355 1717 1564 1545 1579 1410 1511
1661 1811 1939 1843 1822 1879 1886 1866 1947 2101 2133 2248 2401 2553 2452 2402 2397 2376 2273 2451 2557 2592 2544 2167 2282 2384 1614 1286 1344 1467 1553 1519 1457 1362 1467 1524 1414 1574 1572 1497 1625 1622 1462
1816 1850 1760 1883 1824 1904 1943 2025 2032 1945 1865 1942 2179 2508 2614 2609 2563 2420 2329 2513 2769 2689 2661 2620 2473 1934 1285 1182 1281 1420 1431 1424 1327 1584 1485 1293 1542 1616 1421 1507 1646 1590 1354
1987 2025 2106 1876 1873 1913 2041 2122 2030 1821 1767 1851 2049 2245 2459 2600 2572 2338 2361 2469 2647 2649 2625 2572 2273 1524 1220 1217 1324 1318 1326 1292 1577 1566 1488 1419 1479 1672 1478 1610 1685 1535 1466
2048 2131 2239 1926 1925 1939 2006 2022 1860 1718 1733 1839 1973 2100 2353 2471 2392 2185 2260 2350 2373 2424 2371 2125 1701 1369 1272 1264 1239 1205 1229 1267 1435 1694 1577 1520 1477 1691 1629 1558 1430 1448 1450
1914 2108 2244 2310 2159 1936 1974 1918 1793 1660 1674 1779 1898 2009 2168 2227 2231 2104 2201 2254 2169 2130 2099 1930 1370 1227 1281 1228 1127 1123 1165 1190 1733 1753 1558 1494 1511 1456 1491 1449 1356 1457 1361
1489 1978 1931 1971 2372 2203 2404 1877 1832 1697 1662 1716 1772 1888 2019 2005 2035 2062 2099 2192 2012 2008 1895 1701 1220 1144 1200 1162 1070 1036 1027 1084 1633 1630 1596 1579 1288 1680 1451 1406 1342 1433 1311
1214 1475 1539 1725 2168 2031 2231 2160 1845 1780 1736 1728 1739 1747 1945 2230 2303 2243 2058 2080 1843 1641 1688 1540 1145 1071 1154 1159 999 915 900 1465 1532 1560 1530 955 1120 1611 1364 1398 1423 1275 1238
1299 1274 1843 2201 2336 2293 1868 2243 2359 2078 2274 2319 2262 2185 2162 2260 2279 2051 1932 1817 1742 1350 1543 1378 1155 1066 1189 1680 1303 924 1504 1578 1484 1513 1589 745 1171 1420 1250 1199 1278 1170 1075
1099 1186 1157 1776 2112 2038 1999 1850 1952 1878 1969 2177 2345 2489 2264 2206 2296 2180 2144 2182 2294 1349 1909 1484 1413 1607 1647 1773 1511 1377 1404 1253 1450 1369 1190 661 945 1293 1104 1088 1092 920 893
1550 1276 1224 961 1399 1947 1802 1516 1622 1906 2110 2128 2314 2506 2455 1987 2044 2175 2064 2316 2322 1919 1879 1895 1824 1717 1666 1650 1668 1332 834 1055 1283 1343 756 532 467 947 972 815 808 755 641
997 1912 1273 1056 693 1188 1755 1390 1513 1541 1631 1903 2219 2296 2455 1822 1882 1834 2167 2077 1982 1763 1675 1573 1598 1427 1503 1458 1442 1380 963 1029 795 819 574 244 283 389 797 852 544 894 574
37 651 2029 1440 1055 1140 1116 1354 1370 1456 1557 1884 2210 2131 2148 2146 1840 1895 1692 1675 1698 1599 1438 1393 1372 1335 1275 1217 1236 1031 1096 846 600 218 132 133 120 208 506 873 862 845 611
0 1 130 1642 1473 1467 1453 1567 1659 1500 1667 1386 1426 1442 1332 1415 2084 2195 1972 1425 1308 1265 1221 1088 1007 899 1074 819 740 969 1067 908 659 164 86 69 55 80 167 350 686 840 675
0 0 0 204 1798 1817 1744 1704 1774 1651 1563 1268 1079 1218 1503 1814 2032 2322 2147 1857 1368 1286 1216 1082 972 798 737 665 553 851 961 697 116 92 48 45 49 68 62 298 226 304 432
0 0 0 0 446 1751 1884 1937 1757 1642 1442 1511 1124 1095 1600 1872 1915 1973 2121 1957 1502 1346 1234 1206 1097 900 651 507 579 735 758 439 53 34 64 36 43 58 58 60 114 210 225
0 0 0 0 0 1359 1906 1794 1699 1620 1540 1235 1007 1033 1078 1810 1908 1888 1806 1371 1142 1284 1016 1105 1003 832 743 588 423 372 367 380 172 58 53 45 49 41 35 51 126 282 113
0 0 0 0 0 0 1163 1801 1405 1106 1439 1499 1246 1326 1343 1513 1632 1566 1389 1245 1139 1093 1175 860 683 791 572 417 342 346 215 323 220 62 164 110 110 28 28 35 62 206 132
0 0 0 0 0 0 235 1541 1819 1532 1333 1471 1491 1270 1140 1118 1180 1164 1161 979 1045 900 1026 791 525 678 436 543 400 353 183 78 107 115 89 140 156 83 16 29 58 88 114
0 0 0 0 0 0 7 1361 2070 1520 1482 1488 1989 1431 1460 1394 1170 1119 1015 818 805 807 888 609 518 729 308 481 602 320 201 139 15 23 28 112 116 89 60 11 44 42 37
0 0 0 0 1 1 0 614 1615 1346 1295 1444 1835 1486 1578 1398 1055 1125 909 730 726 882 808 549 498 440 251 180 282 248 117 18 29 6 1 6 93 48 25 20 7 37 8
0 0 0 0 0 36 3 8 1476 1623 1725 1931 1976 1986 1609 1272 1182 1012 862 809 965 937 731 876 630 284 207 290 228 261 90 24 15 124 2 0 5 13 8 2 5 37 11
0 0 0 0 0 0 85 133 908 1684 1801 1716 1991 1973 1620 1580 1803 1132 1098 1201 1102 1125 1113 671 313 286 240 200 153 121 167 31 9 8 7 4 4 0 0 20 24 8 2

GFSSE_con_mucape_108.txt.gz
CAPE
1084 2185 1570 1708 1687 1714 1689 1828 1923 1924 1868 1918 1877 1931 1980 2042 2029 2057 2240 2360 2376 2493 2274 2329 2629 2486 1961 1753 2180 2225 2023 1989 1897 1924 1751 1932 1629 1448 1513 1750 1561 1258 1642
1201 2364 1553 1698 1736 1844 1802 1852 1995 2143 2226 2277 2021 2065 2098 2174 2104 2239 2411 2458 2648 2738 2627 2134 2123 2201 2025 2615 2400 2165 1878 1761 1715 1833 2146 1833 1578 1574 1464 1603 1470 1443 1813
1605 2307 1987 1653 1775 1872 1909 1975 2259 2499 2634 2498 2279 2174 2272 2281 2243 2346 2418 2485 2713 2762 2587 2065 2141 2180 2450 2439 1855 1825 1857 1581 1536 1895 2123 1579 1522 1814 1489 1745 1739 1740 1718
1811 2144 2111 1607 1723 1844 1891 1997 2269 2665 2778 2676 2474 2406 2421 2409 2373 2406 2397 2467 2768 2883 2766 2138 2240 2259 2262 1773 1655 1664 1735 1610 1561 1676 1413 986 1259 1692 1636 1641 1679 1707 1800
1823 1979 2304 1665 1647 1786 1837 1968 2174 2474 2571 2634 2553 2616 2573 2560 2567 2543 2409 2586 2890 2941 2826 2286 2492 2581 1687 1459 1453 1542 1674 1583 1581 1459 1319 1277 1436 1699 1685 1603 1506 1761 1578
1863 2097 2083 1662 1615 1749 1893 1965 2113 2169 2274 2427 2544 2674 2684 2702 2742 2578 2424 2721 3018 2962 2940 2855 2890 2294 1405 1264 1350 1503 1528 1518 1413 1510 1347 1394 1401 1767 1602 1742 1584 1511 1399
1977 2372 2538 1697 1649 1787 1983 2055 2044 1936 2059 2282 2498 2617 2704 2796 2754 2516 2451 2722 2921 2919 2920 2891 2616 1733 1334 1236 1401 1438 1445 1460 1571 1309 1310 1436 1498 2026 1613 1441 1490 1402 1576
2202 2563 2698 1833 1735 1819 1954 1976 1868 1747 1799 2074 2347 2479 2693 2700 2531 2443 2475 2581 2584 2658 2631 2574 2140 1538 1373 1311 1380 1361 1358 1381 1422 1211 1255 1321 1690 1817 1689 1552 1349 1232 1602
2550 2749 2929 2705 2198 1830 1905 1889 1816 1658 1665 1841 2085 2307 2487 2484 2335 2359 2502 2476 2445 2352 2409 2203 1945 1438 1404 1351 1246 1253 1317 1272 1553 1325 1255 1374 1666 1702 1624 1517 1398 1591 1570
2603 2900 3022 2963 2601 2744 2477 1839 1731 1620 1604 1765 1885 2044 2242 2301 2263 2190 2310 2356 2260 2235 2203 2042 1663 1359 1357 1279 1205 1155 1200 1292 1696 1277 1520 1337 1471 1522 1586 1465 1421 1597 1387
2261 2530 2614 2501 2641 2580 2842 2440 1820 1628 1581 1671 1814 1906 2126 2269 2603 2507 2184 2072 2136 2041 1924 1901 1488 1214 1265 1223 1129 1072 1125 1505 1376 1408 1415 1026 1426 1387 1568 1245 1330 1396 1307
2242 2197 2106 2122 2399 2612 2664 2875 2658 2598 2326 2226 2178 2299 2311 2313 2493 2218 2093 2124 2103 1870 1715 1641 1434 1128 1222 1641 1525 1025 1557 1216 1181 1310 1566 1109 1175 1449 1415 1184 1291 1297 1063
1966 2211 2215 2090 2052 2160 2213 2634 2617 2843 2665 2720 2730 2780 2495 2486 2655 2510 2590 2571 2605 1766 2088 1642 1781 1824 1634 1650 1840 1494 1427 1380 1721 1498 1393 915 786 1307 1259 1252 1089 1140 1106
1912 1883 2167 2194 2301 2210 1998 2524 2581 2622 2571 2500 2595 3008 2860 2745 2624 2538 2393 2506 2487 2397 2116 2109 1881 1813 1710 1700 1531 1546 1622 1480 1644 1366 1051 459 463 524 1000 1138 1033 1262 944
310 654 1846 1956 2143 1987 1814 2201 2239 2209 2158 2273 2729 2786 2968 2637 2730 2528 2304 2289 2419 2210 2183 2187 1924 1915 1779 1770 1648 1668 1532 1452 1251 1442 1027 411 256 206 340 592 716 881 758
42 156 290 1719 1957 1892 1852 2107 2023 2116 2013 2207 2329 2343 3151 2680 2564 2363 2442 2430 2428 2321 2206 2115 2026 1967 1792 1606 1539 1592 1412 1357 1145 1228 1053 516 168 157 149 306 272 491 613
0 2 173 305 2156 2086 1887 1897 1919 1800 1919 1843 2086 2353 2542 2651 2548 2408 2293 2362 2375 2299 2352 2247 2098 1901 1772 1397 1462 1484 1303 1203 1189 1090 740 173 73 6 38 109 84 218 754
0 0 0 43 206 459 1860 2121 2125 1963 1951 1898 1891 2057 2485 2416 2371 2316 1966 2076 2259 2419 2341 2156 1891 1686 1793 1552 1442 1290 1181 1210 1101 1015 504 123 179 218 42 17 42 144 514
0 0 0 0 1 4 767 1670 2130 2343 2217 2089 2040 1953 1982 2117 1919 1872 1958 1826 2494 2161 1987 1913 1779 1753 1569 1325 1309 1237 1149 1035 927 710 155 63 129 198 224 67 16 87 238
0 0 0 0 0 0 16 1021 1445 1968 2240 2363 2219 2004 1828 1792 1655 1822 1754 1958 1991 1862 1726 1796 1488 1555 1347 1198 802 834 880 875 891 715 382 70 30 157 102 110 57 134 48
0 0 0 0 0 0 0 95 907 1652 1858 1781 2235 2183 1919 1815 1760 1671 1764 1689 1900 1862 1384 1626 1438 1287 1124 915 630 496 659 680 619 667 451 83 188 114 151 80 145 112 69
0 0 0 0 0 0 0 0 313 1039 1257 1457 1778 2136 2028 1681 1741 1615 1760 1565 1834 1843 1343 1193 995 850 839 963 437 271 193 230 503 619 481 304 193 171 210 109 47 78 71
0 0 0 0 0 0 1 0 0 770 1344 1329 1477 1844 1874 1998 1796 1600 1642 1703 1781 1521 1377 1251 876 930 501 446 675 245 131 133 170 205 405 283 397 256 223 248 107 48 48
0 0 0 0 0 0 0 0 2 203 1082 1410 1515 1515 1587 1694 2067 1762 1712 1744 1804 1391 1378 1403 902 1096 913 515 435 524 161 100 132 220 129 379 438 328 159 288 197 164 59
0 0 0 0 0 0 0 0 0 30 1116 1435 1439 1658 1653 1667 2191 1902 1946 1869 1778 1459 1239 1322 1117 1249 1379 1065 414 253 302 145 170 221 264 89 65 137 326 193 135 137 137
0 0 0 0 0 0 0 0 0 0 262 1667 1742 1846 1725 1756 2307 2010 1879 1876 1845 1347 1089 1232 1524 1472 1124 1147 959 746 500 95 112 13 51 77 165 88 60 60 50 61 9

GFSSE_con_mucape_114.txt.gz
CAPE
2079 1577 1593 1895 2067 2177 2230 2122 1791 1864 2030 2090 2074 2106 2195 2307 2258 2250 2339 2270 2484 2767 2812 2725 2633 2267 1690 1627 1547 1673 1634 1629 1715 1833 1853 1854 1617 1703 1784 1856 1726 1196 1765
2407 1692 1483 1826 2022 2220 2289 2237 1965 1975 2157 2250 2225 2279 2353 2342 2320 2396 2504 2539 2542 2717 2684 2636 2408 2292 2056 2023 1950 1766 1508 1444 1574 1808 2031 1758 1598 1642 1599 1638 1631 1437 1695
2593 2025 1630 1710 1954 2188 2376 2378 2323 2215 2321 2385 2363 2403 2457 2399 2409 2474 2477 2434 2761 3003 2975 2496 2356 2300 2377 2370 2302 2003 1623 1555 1605 1861 2027 1273 1413 1742 1434 1319 1518 1501 1782
2624 1991 1907 1666 1903 2122 2282 2371 2423 2458 2489 2483 2499 2529 2557 2532 2556 2584 2466 2352 2570 3098 3054 2593 2574 2732 2675 2606 1991 1862 1629 1570 1529 1700 1550 1341 1093 1736 1610 1792 1567 1830 1904
2071 2683 2171 1654 1824 2059 2229 2362 2440 2517 2517 2466 2499 2676 2698 2638 2702 2711 2465 2445 2800 3094 3040 2406 2491 2807 2480 2010 1615 1678 1681 1422 1387 1481 1233 848 960 1619 1740 1798 1736 1671 1558
2098 2817 2086 1675 1733 1967 2246 2413 2543 2530 2379 2315 2430 2700 2805 2747 2810 2761 2451 2618 2954 3139 3055 2809 2800 2485 1786 1511 1465 1536 1598 1391 1174 1266 927 633 977 1872 1701 1734 1609 1597 1425
2412 2719 2274 2000 1637 1887 2271 2471 2508 2438 2311 2278 2394 2596 2743 2792 2803 2643 2417 2648 2960 3125 3114 3036 2793 2191 1419 1341 1382 1452 1432 1338 1213 1014 569 141 1061 2028 1777 1867 1544 1530 1350
2976 3327 2103 1820 1588 1781 2023 2218 2326 2363 2362 2314 2361 2486 2678 2687 2648 2520 2397 2626 2725 2764 2844 2787 2601 2277 1482 1287 1350 1338 1342 1235 1144 987 212 104 590 2002 1766 1708 1487 1415 1447
3090 3763 2998 2199 1739 1602 1712 1886 2065 2232 2319 2353 2342 2380 2506 2515 2466 2347 2383 2570 2514 2605 2582 2504 2393 2070 1477 1296 1275 1231 1216 1212 1082 1006 623 406 1151 2043 1777 1713 1466 1435 1525
3410 3926 3688 2783 2206 1997 1741 1528 1703 1925 2107 2291 2361 2359 2383 2390 2342 2206 2203 2405 2510 2389 2391 2305 2254 1911 1415 1255 1143 1124 1120 1073 940 1016 1051 564 1181 1858 1789 1739 1668 1532 1404
3358 3766 3943 3166 2687 2504 2210 1659 1415 1542 1745 2035 2226 2333 2392 2455 2286 2151 2184 2112 2273 2203 2216 2254 2118 1960 1376 1219 1143 1064 1030 1108 1063 793 916 611 1019 1744 1966 1871 1409 1452 1220
3166 3335 3612 3351 3061 2991 2344 2108 1878 1707 1689 1844 2028 2150 2529 2594 2551 2345 2272 2016 2054 2051 2099 2005 1964 1852 1431 1285 1142 1067 1025 1162 1053 892 605 735 917 508 1899 1732 1370 1004 758
170 3027 3183 2703 2561 3027 2929 2612 2039 2041 1789 1834 1974 2184 2138 2288 2535 2284 2215 1958 2078 1979 1923 1837 1769 1733 1467 1332 1377 1268 1179 1106 1085 1072 605 727 994 1446 1983 1659 1293 1085 733
0 2645 3057 2562 2507 2391 2408 2914 2803 2453 2273 2206 2113 2360 2207 2108 2125 2383 2020 2179 2173 2036 2015 1990 1842 1761 1644 1644 1505 1554 1253 1105 1191 1072 873 394 727 1506 1795 1413 1226 813 819
0 1168 2255 2313 2569 2329 2564 2605 2806 2546 2611 2636 2495 2638 2518 2239 2398 2403 2083 2230 2311 2146 2107 1953 1940 1935 1858 1762 1708 1448 1345 1318 1227 1149 1154 846 348 695 1585 1282 985 854 750
0 0 563 1745 1971 2591 2651 2638 2504 2955 2776 2510 2497 2765 2748 2547 2015 2414 2189 2248 2411 2312 2162 2011 1783 1541 1842 1774 1574 1602 1378 1371 1201 1274 1191 759 440 224 665 1246 916 513 416
0 0 0 0 137 906 1931 2058 1998 2468 2455 2654 2534 2427 2506 2752 2354 2299 2471 1986 1861 2318 2119 2058 2175 2041 1946 1778 1583 1519 1426 1372 1229 1128 970 699 600 141 266 368 600 570 170
0 0 0 0 0 698 1154 1946 2280 2009 2234 1961 2299 2369 2243 2655 2278 2722 2228 2296 2431 1818 2331 2246 2146 1750 1857 1910 1661 1650 1584 1307 1150 1037 976 667 464 162 51 82 202 239 145
0 0 0 0 0 0 285 1268 1306 1682 2270 1897 1726 2172 2164 2063 2716 2329 2447 2220 2162 2453 2108 2332 2048 1843 1918 1697 1698 1622 1422 1204 1069 1029 863 722 468 339 136 89 19 15 19
0 0 0 0 0 0 0 29 298 567 1259 2082 2186 1924 2131 2213 2211 2411 2372 2542 2062 2123 2168 2167 2026 2106 1897 1691 1789 1455 1346 1156 1009 970 869 714 467 293 162 105 26 18 4
0 0 0 0 0 0 0 0 0 0 78 1122 1804 2201 2426 2358 2403 2289 2327 2531 2333 1867 1834 1887 2101 1927 1944 1914 1606 1329 1207 1154 1091 890 750 571 398 295 207 175 17 13 5
0 0 0 0 0 0 0 0 0 0 0 43 389 1077 1876 2433 2385 2504 2452 2440 2347 1995 1645 1834 2195 1949 1709 1785 1509 1069 773 882 928 836 686 595 398 255 188 40 23 3 16
0 0 0 0 0 0 0 0 0 0 0 1 19 258 1253 1664 2544 2023 2261 2307 2197 1969 1607 1793 1955 1858 1421 1358 1447 730 389 301 570 613 733 513 404 320 236 157 10 0 6
0 0 0 0 0 0 0 0 0 0 0 0 0 4 401 892 1118 2145 1948 2247 2057 2063 1610 1403 1731 1633 1318 1145 1396 1257 559 404 254 424 501 535 441 358 299 215 115 20 0
0 0 0 0 0 0 0 0 0 0 0 0 0 0 2 422 840 1752 1975 2098 2065 2093 1888 1390 1639 1537 1271 1075 1019 1055 930 688 557 445 520 460 597 456 317 297 206 74 4
0 0 0 0 0 0 0 0 0 0 0 0 0 0 0 0 490 1260 1732 1928 1959 1793 1885 1673 1494 1540 1273 1260 955 807 871 706 613 389 305 331 266 290 394 406 193 194 94

GFSSE_con_mucape_117.txt.gz
CAPE
1497 1592 1807 2058 2165 1998 1808 1682 1731 1836 1957 2018 2008 2112 2190 2130 2020 2084 2197 2386 2573 2849 2734 2390 2543 2247 1921 1764 1860 1493 1455 1565 1574 1825 1866 1860 1845 1748 1868 1886 1555 1330 1802
1510 1572 1731 1942 2138 2221 1966 1715 1748 1943 2121 2184 2192 2252 2222 2133 2097 2153 2133 2319 2679 2861 2504 2440 2323 2073 1843 1911 1763 1435 1477 1558 1680 1735 1720 1884 1824 1735 1594 1716 1588 1561 1769
1775 1561 1678 1818 2083 2224 2281 1969 1967 2167 2288 2291 2305 2310 2255 2238 2258 2235 2194 2222 2555 2779 2546 2357 2282 2146 2233 1997 2016 1722 1451 1535 1623 1556 1874 1458 1620 1841 1523 1224 1667 1525 1812
2114 1498 1583 1741 1981 2161 2209 2192 2039 2309 2414 2381 2407 2401 2296 2301 2333 2361 2233 2330 2658 2987 2805 2231 2275 2444 2385 2438 2022 1869 1548 1537 1448 1577 1680 1334 1247 1859 1657 1886 1794 1823 1959
2534 2049 1667 1670 1871 2089 2163 2234 2117 2238 2287 2327 2381 2502 2420 2441 2477 2446 2192 2178 2513 3149 3050 2592 2562 2561 2371 2125 1606 1661 1550 1435 1430 1434 1027 930 896 1809 1786 2078 1997 1888 1536
2687 2565 1944 1614 1753 2020 2170 2241 2235 2190 2131 2148 2268 2510 2524 2591 2608 2407 2104 2250 2773 3075 3041 2730 2661 2443 2088 1567 1426 1472 1571 1471 1272 891 676 630 678 1492 1596 1874 1803 1736 1486
2528 2474 2020 1557 1690 1975 2222 2294 2297 2226 2070 2049 2227 2397 2413 2558 2591 2296 2069 2277 2699 2856 2847 2664 2560 2056 1373 1236 1306 1381 1432 1494 1302 887 541 382 432 667 1552 1568 1793 1720 1363
2334 2419 2124 1964 1666 1926 2192 2294 2323 2247 2053 1994 2167 2326 2389 2364 2344 2190 2098 2199 2540 2692 2441 2562 2400 2117 1447 1144 1232 1274 1333 1350 1259 962 632 47 3 745 1615 1346 1629 1526 1268
2738 2264 2175 1970 1710 1768 2017 2184 2188 2144 2046 2011 2095 2263 2375 2272 2209 2125 2119 2188 2471 2505 2441 2444 2352 2102 1679 1146 1167 1187 1200 1277 1102 1053 662 136 48 589 1482 1765 1616 1529 1443
3035 3020 2663 2607 2169 1608 1677 1984 2107 2136 2171 2135 2127 2167 2289 2242 2192 2120 2061 2185 2404 2387 2324 2232 2180 1965 1505 1153 1090 1109 1104 1087 1002 880 729 548 339 1008 1888 1938 1692 1502 1358
2676 3273 3025 2856 2538 1668 1391 1570 1789 1952 2091 2164 2178 2133 2202 2165 2208 2077 1950 2042 2286 2217 2182 2092 2080 1869 1474 1149 1076 1046 1037 991 937 911 656 806 1234 1577 1829 1792 1572 1387 1399
2812 2913 3019 2949 2630 1725 1666 1299 1335 1549 1749 1985 2154 2148 2085 2090 2084 2011 1880 1911 2028 2039 2020 2048 1983 1844 1585 1168 1024 1067 1026 968 978 922 759 734 1338 1552 1755 1877 1479 1344 1208
1441 2802 3071 3013 2720 2057 1931 1564 1197 1266 1317 1576 1919 2007 2090 2091 2074 1867 1786 1696 1895 1854 1842 1915 1742 1734 1581 1250 1148 1097 1101 1001 958 868 714 649 1003 1306 1192 1864 1707 1480 1233
0 2933 3068 3054 2694 2592 2359 2166 1773 1410 1217 1263 1554 1873 1904 2163 2308 2177 2029 2034 1773 1908 1755 1611 1573 1593 1492 1252 1085 1180 1338 1027 975 856 669 460 323 1318 1932 1738 1801 1653 1121
0 2612 2649 2671 2494 2299 2362 2588 2599 2122 1614 1439 1459 1653 1860 1802 1936 2233 2184 2117 1967 1770 1756 1637 1570 1505 1443 1378 1282 1306 1329 1185 1071 1062 886 613 562 1063 1978 1879 1459 1348 1018
0 737 635 2083 2385 2094 1736 1799 2130 2358 2077 1841 1790 1791 1998 1922 1659 1742 1908 1925 1869 1795 1733 1642 1742 1638 1560 1357 1338 1482 1348 1197 1260 1003 887 667 358 467 1115 2032 1835 1479 1091
0 0 0 10 406 1142 1067 1044 1168 1031 1651 2032 2044 2320 2235 2132 2327 1834 2059 1878 1956 1970 1972 1888 1593 1708 1600 1363 1404 1201 1224 1184 1163 1093 850 713 524 271 279 1002 1348 1440 1318
0 0 0 0 0 0 633 529 444 988 1069 1302 1419 1986 2462 2398 2123 2318 1686 2011 1706 2044 2049 1956 1818 1627 1438 1267 1480 1395 1184 1169 1150 1058 981 751 701 545 228 502 567 652 518
0 0 0 0 0 0 0 382 764 679 691 1051 1236 1792 1750 2017 2352 2185 2027 2040 1910 1760 2030 2093 1851 1706 1521 1236 1431 1436 1257 1260 1138 966 910 807 650 491 331 56 140 270 134
0 0 0 0 0 0 0 0 291 1087 912 556 798 1160 1522 1578 1614 2199 2155 2096 1944 1845 1929 1949 1802 1697 1515 1405 1561 1486 1312 1185 1123 1029 902 730 678 578 417 244 41 13 20
0 0 0 0 0 0 0 0 0 2 754 971 339 863 911 1181 1513 1675 2106 1911 2029 1831 1515 1950 2019 1712 1641 1434 1528 1380 1395 1150 938 816 884 764 703 605 422 307 68 0 0
0 0 0 0 0 0 0 0 0 0 0 0 0 202 481 690 1089 1296 1509 1803 1787 1743 1276 1581 1762 1894 1732 1751 1262 1252 920 945 961 931 855 716 671 554 382 241 110 2 0
0 0 0 0 0 0 0 0 0 0 0 0 0 0 194 339 545 960 1310 1346 1461 1417 1277 1233 1257 1706 1626 1594 1353 895 603 745 464 773 853 680 523 484 359 260 167 27 0
0 0 0 0 0 0 0 0 0 0 0 0 0 0 0 71 386 433 897 893 1375 1187 1047 1081 1003 1234 1393 1196 1400 1091 428 215 217 101 491 650 601 453 372 303 176 109 22
0 0 0 0 0 0 0 0 0 0 0 0 0 0 0 0 0 245 563 518 776 1089 978 925 846 1364 1171 1064 1031 1202 1068 505 251 357 294 573 609 467 484 323 218 127 42
0 0 0 0 0 0 0 0 0 0 0 0 0 0 0 0 0 0 166 526 479 940 1253 1168 1067 1082 1326 1250 983 809 847 753 500 538 435 428 420 473 445 423 309 193 103

GFSSE_con_mucape_123.txt.gz
CAPE
1362 1455 1719 1860 1908 1854 1702 1654 1560 1680 2022 2156 2226 2370 2517 2579 2532 2482 2547 2656 2766 2882 2887 2521 2194 2039 1713 1202 1362 1564 1562 1655 1571 2054 1901 1950 1798 1765 1585 1831 1815 1426 1720
1386 1719 1759 1860 1933 1958 1844 1768 1736 1801 2115 2222 2248 2323 2372 2433 2478 2552 2636 2756 2936 3033 2728 2515 2299 2123 1644 1398 1331 1352 1458 1488 1575 1571 1844 1719 1819 1695 1706 1799 1678 1563 1957
1444 1785 1810 1855 1956 2005 1994 1967 2000 2078 2182 2250 2223 2258 2343 2427 2493 2536 2594 2713 2865 2964 2620 2373 2184 2123 1966 1777 1283 1264 1367 1415 1478 1452 1787 1477 1451 1672 1668 1694 1840 1874 1947
1535 1758 1894 1827 1901 1960 1934 1993 2098 2314 2296 2281 2192 2191 2335 2421 2475 2535 2550 2649 2846 2929 2566 2243 2100 2057 2183 1784 1460 1286 1343 1322 1333 1350 1242 1152 1195 1640 1278 1447 1744 1807 1900
1499 1661 1811 1910 1883 1875 1827 1925 2068 2250 2213 2234 2166 2227 2273 2401 2490 2482 2361 2570 2911 3024 2541 2252 2105 2477 1987 1626 1475 1292 1301 1212 1207 994 1019 798 825 1113 992 1770 1971 2021 1918
1585 1538 1670 1916 1951 1919 1835 1870 2012 2106 1996 2036 2100 2224 2299 2374 2396 2244 2077 2485 2907 2969 2711 2681 2919 2252 1779 1397 1257 1249 1196 1099 881 739 658 646 255 657 1336 1871 1741 1691 1667
1966 1876 1724 1752 1899 2000 2033 1931 1906 1955 1855 1898 2046 2079 2222 2418 2435 2134 2061 2479 2924 3023 3045 2830 2457 1939 1611 1312 1138 1179 1127 1067 844 570 586 675 407 962 1346 1875 1487 1593 1701
2168 2257 2101 1851 1797 1962 2076 1921 1761 1810 1780 1817 1913 1921 2109 2149 2136 1998 1983 2119 2550 2861 2522 2292 2062 1812 1418 1117 1062 1005 1089 1145 879 665 431 470 459 1113 1185 1910 1585 1692 1688
2165 2350 2301 2020 1806 1909 2002 2037 1857 1765 1700 1760 1840 1860 1914 1830 1763 1794 1851 1907 2340 2506 2161 2117 1944 1467 1084 1012 942 928 984 1139 909 711 365 341 445 1127 1505 2100 1818 1564 1605
2215 2360 2325 2078 1835 1774 1886 1992 2013 1933 1759 1716 1783 1849 1786 1716 1685 1618 1621 1760 2134 2293 2149 2058 1988 1674 1233 884 847 840 920 962 889 695 663 331 359 1248 1721 2196 2008 1783 1639
2296 2300 2278 2168 2007 1882 1847 1827 2034 2051 1979 1782 1751 1814 1798 1607 1643 1627 1559 1647 1906 2252 2121 2049 2014 1824 1515 1079 804 796 811 821 763 634 587 524 396 1349 1724 2082 2031 1774 1707
2660 2420 2400 2320 2252 2199 2209 2000 1980 2067 2082 1917 1693 1693 1821 1704 1679 1689 1652 1643 1795 2054 2261 2128 1969 1815 1555 1140 819 736 753 696 628 597 522 518 712 992 1333 1960 1968 1834 1673
2211 2732 2679 2598 2546 2582 2494 2233 1846 1877 1974 1875 1780 1705 1973 2136 1826 1804 1785 1674 1661 1810 2042 2124 1936 1776 1577 1192 848 730 683 647 576 567 544 547 654 1241 1760 2130 2079 1914 1670
0 0 856 2812 2893 2827 2659 2307 1859 1647 1792 2070 2587 2887 2910 2575 2370 2186 1814 1654 1572 1558 1724 1982 1886 1677 1600 1323 997 777 697 639 577 558 498 613 598 1555 1937 2147 2241 2047 1795
0 912 1453 2294 3010 2882 2581 2255 1887 1388 1396 1554 1681 2044 2413 2597 2227 1986 1725 1625 1540 1406 1479 1659 1732 1564 1533 1441 1156 909 702 611 751 573 501 559 661 1077 1640 1647 1806 1857 1771
50 868 1703 2919 3283 2755 2344 2017 1632 1220 1032 1115 1197 1261 1732 1606 1560 1593 1522 1578 1574 1463 1329 1339 1347 1386 1386 1325 1192 1023 809 733 899 849 546 567 568 499 439 906 1959 2066 1834
0 102 959 1291 1285 1601 1827 1690 1496 1140 1247 1283 1117 1230 1079 1244 1455 1394 1456 1619 1625 1591 1405 1272 1363 1415 1394 1258 1063 1006 904 735 875 971 701 611 545 563 465 519 1247 1792 1877
0 10 182 970 1097 1217 852 1137 1292 973 741 620 735 786 1108 899 1246 1427 1414 1266 1414 1545 1739 1746 1641 1494 1447 1360 1094 931 904 831 923 998 779 808 818 744 553 415 765 942 1507
0 0 12 137 423 534 146 157 529 576 295 137 59 159 241 213 394 480 1081 546 708 950 1254 1497 1553 1534 1319 1269 1281 1051 1021 847 994 1132 885 858 851 789 634 469 263 559 906
0 0 0 0 0 0 0 0 0 0 0 25 57 44 9 95 56 146 67 58 7 276 486 1036 1157 1301 1163 1073 1036 946 1130 1067 1069 1184 1011 964 872 727 676 495 355 283 567
1 0 0 0 0 0 0 0 0 0 0 0 0 0 100 152 149 99 198 53 34 113 109 459 852 1068 1030 774 677 659 634 684 932 1042 1041 967 801 723 689 475 417 372 320
9 0 0 0 0 0 0 0 0 0 0 0 0 0 0 0 0 72 55 75 30 15 154 151 656 789 764 660 532 348 284 380 644 870 1128 956 842 753 643 489 457 392 235
37 8 0 0 0 0 0 0 0 0 0 0 0 0 0 0 0 0 0 56 80 138 243 204 528 412 390 377 429 128 170 211 240 508 846 1006 950 802 675 608 525 438 362
90 58 12 2 0 0 0 0 0 0 0 0 0 0 0 0 0 0 0 0 0 0 128 167 145 369 205 36 143 190 102 5 0 6 122 676 929 822 720 622 556 494 440
124 80 34 18 7 10 10 0 0 0 0 0 0 0 0 0 0 0 0 0 0 0 0 23 109 150 546 78 88 93 116 41 0 16 0 49 232 708 760 581 573 549 487
109 120 56 0 0 0 0 0 0 0 0 0 0 0 0 0 0 0 0 0 0 0 0 0 0 0 109 441 310 183 118 67 55 58 0 0 62 180 467 681 628 588 428